GFSSW_prec_cthk_000.txt.gz
RH
17 16 14 12 13 13 12 12 13 13 16 17 17 16 16 17 18 18 19 20 18 17 16 16 15 14 13 12 11 10 12 13 13 13 13 13 14 18 19 21 23 26 31 35 41
17 14 14 14 13 13 12 13 12 15 16 17 17 15 15 15 17 21 21 21 20 19 17 19 17 15 15 15 14 14 15 16 15 14 14 13 13 14 16 17 19 21 25 28 31
15 14 15 14 13 13 13 12 15 16 17 17 16 14 13 14 19 19 19 19 19 19 18 20 19 19 16 17 18 19 20 17 18 18 17 15 16 17 20 20 19 19 20 22 24
15 15 15 14 13 13 13 14 15 15 15 13 14 16 17 18 18 18 18 18 16 16 17 18 19 20 21 21 21 25 22 22 23 22 22 24 27 27 29 31 33 31 29 31 34
15 14 14 13 13 14 14 14 14 13 12 12 13 14 16 16 17 16 17 19 17 15 15 16 16 18 20 19 21 23 23 23 23 23 24 24 23 22 23 24 28 30 31 29 30
15 14 13 14 14 14 14 15 15 14 13 13 14 14 17 15 18 18 18 18 18 17 17 17 17 18 20 19 19 21 23 25 24 22 22 20 18 18 18 19 19 20 21 21 21
15 15 14 15 16 16 15 15 15 14 15 15 14 14 16 17 18 18 18 19 19 19 19 17 18 19 19 22 22 21 20 21 20 20 20 16 18 15 13 14 16 19 20 20 21
15 15 15 15 17 17 16 15 15 15 15 16 16 16 16 18 20 20 20 19 19 19 18 15 14 15 19 19 19 19 18 17 16 16 17 15 14 15 15 15 16 17 17 17 18
15 15 16 16 17 16 16 15 14 15 15 16 16 17 17 18 18 19 18 18 18 18 17 16 14 16 18 21 20 17 16 16 16 16 17 17 14 15 15 14 13 14 17 17 18
16 15 16 16 16 15 15 14 14 14 14 14 15 17 17 18 18 18 18 18 18 18 18 17 17 19 19 20 21 22 22 21 21 18 19 19 18 17 17 17 14 15 16 18 19
17 16 16 16 17 16 15 14 14 14 14 15 16 16 15 17 18 18 18 18 17 18 19 18 19 20 21 23 24 26 27 27 23 23 25 23 22 21 20 18 19 20 19 20 21
18 17 17 16 15 16 15 14 12 12 14 13 14 13 13 13 15 15 16 18 17 17 18 20 22 21 22 22 26 29 29 27 26 27 27 25 23 22 22 23 24 24 24 24 26
16 18 18 17 16 16 16 13 13 12 14 15 14 14 14 14 14 14 14 15 16 16 17 20 22 23 22 22 26 30 32 30 29 27 25 26 24 25 24 27 27 28 30 31 31
19 16 19 19 20 18 16 16 18 19 16 17 17 18 16 16 16 16 15 15 16 17 17 20 23 23 21 22 28 33 32 33 33 32 28 29 27 24 25 26 26 30 32 33 34
25 22 19 21 23 23 21 22 23 25 34 24 22 21 20 19 19 19 15 16 18 18 19 23 22 21 21 25 32 34 34 33 33 33 32 31 32 29 26 27 27 28 30 31 32
29 28 24 23 24 26 26 26 27 36 34 30 27 26 25 24 22 20 18 17 18 18 19 21 20 23 24 30 36 37 36 34 33 33 38 32 33 29 27 27 28 29 30 31 31
31 29 29 27 25 26 27 28 36 36 34 33 31 29 28 28 27 24 23 24 24 24 25 24 25 26 30 37 40 41 40 45 43 41 39 34 35 30 27 28 31 32 33 35 36
34 33 30 30 29 29 29 36 35 37 35 35 35 34 33 32 30 29 29 30 33 33 34 36 34 31 39 40 45 43 43 52 67 48 37 34 34 30 28 29 32 35 37 39 42
41 40 34 33 34 34 36 39 40 37 38 39 37 38 37 35 33 32 35 36 38 40 41 42 40 41 41 45 46 46 50 47 50 53 50 34 31 32 32 34 36 39 42 45 47
44 45 45 42 43 42 43 43 42 42 41 42 42 42 41 40 38 38 39 40 41 43 44 47 48 45 45 47 45 49 48 55 56 72 64 37 34 33 38 39 41 42 46 49 53
47 50 48 48 43 46 51 47 44 43 43 44 46 45 44 43 43 43 45 43 45 46 47 49 53 50 50 48 50 52 53 51 53 57 66 63 41 37 40 42 43 45 48 53 56
46 49 48 50 50 49 50 47 46 47 48 48 47 47 48 49 49 47 47 48 50 52 55 55 57 59 53 51 48 50 54 53 62 62 65 73 48 40 42 46 47 48 52 56 60
46 48 50 50 58 57 52 52 51 50 51 51 52 53 53 53 54 52 54 55 57 58 64 63 65 64 52 53 56 56 56 59 65 73 72 87 51 45 47 49 52 54 56 62 64
42 49 48 52 56 56 56 58 58 58 57 57 58 58 58 60 59 60 59 60 62 61 64 67 67 72 66 62 67 69 64 65 76 85 73 71 54 44 48 52 57 62 63 69 71
41 44 45 52 55 57 57 59 61 64 64 63 64 64 64 67 62 63 61 61 62 64 67 70 71 70 66 66 72 72 66 62 71 69 84 53 57 53 55 57 62 65 68 72 74
44 44 44 49 51 53 55 58 59 61 62 64 67 68 69 69 67 68 65 67 66 66 72 74 76 76 74 69 72 71 60 55 65 65 64 64 58 59 63 69 72 72 75 76 80
43 43 45 50 50 53 55 57 57 60 63 66 69 71 76 73 72 70 69 67 68 69 73 77 79 82 76 68 76 79 61 55 57 62 63 69 66 64 66 72 76 76 84 86 87

GFSSW_prec_cthk_003.txt.gz
RH
14 14 15 13 12 11 11 11 12 14 16 17 16 15 16 16 17 19 18 16 15 15 14 16 16 15 13 11 10 14 18 19 15 20 15 12 16 15 14 18 18 19 26 43 28
17 15 13 13 12 11 12 12 12 15 16 16 14 14 15 16 20 18 16 17 16 15 19 19 19 19 18 16 15 22 22 19 15 14 18 14 13 13 13 18 19 18 17 21 25
15 13 13 12 11 11 11 11 13 15 15 14 13 13 13 16 20 17 14 15 15 14 15 17 20 19 20 20 22 23 21 17 20 18 17 18 18 18 21 27 29 30 28 21 23
14 14 13 12 12 12 12 13 14 14 15 13 13 14 16 18 20 17 15 13 12 13 15 19 21 22 21 21 20 22 18 18 19 16 17 18 19 18 18 23 26 30 33 35 37
14 14 13 13 12 13 14 13 13 12 12 12 13 15 17 18 18 16 15 14 14 14 15 16 17 19 18 17 18 18 18 19 16 17 17 17 18 17 17 18 18 22 24 25 27
15 14 13 14 15 14 14 13 13 12 12 12 13 16 19 16 17 16 16 17 17 18 17 16 17 17 18 18 20 17 20 21 18 19 17 15 15 16 17 13 14 16 18 20 20
15 14 15 15 15 15 15 15 14 14 14 13 14 16 16 16 16 17 17 17 17 17 17 14 16 19 18 20 16 17 22 21 18 15 16 12 19 20 16 14 12 14 16 18 20
15 16 16 17 17 16 15 15 15 15 14 14 14 18 15 15 18 17 19 18 17 16 16 13 15 17 22 19 21 22 27 21 19 16 19 16 16 19 19 17 16 16 18 18 18
15 15 16 17 16 16 15 15 15 14 14 13 16 19 16 15 17 17 16 17 17 17 15 14 15 19 24 26 29 25 24 23 20 19 18 18 17 18 18 19 19 17 18 20 22
15 15 15 16 16 15 14 14 13 12 12 13 14 17 15 16 15 15 16 16 16 18 20 18 20 23 21 21 23 23 26 26 26 22 21 21 21 22 23 22 21 21 22 21 23
15 15 15 16 16 15 14 15 17 15 14 16 15 14 14 15 16 15 15 15 17 20 19 16 22 19 18 19 22 26 28 29 27 24 25 23 23 22 22 21 22 23 24 23 22
16 16 16 16 16 16 15 23 16 15 14 14 13 12 12 12 15 13 12 17 17 17 15 23 24 19 19 20 19 25 30 30 27 26 26 25 24 23 20 20 21 22 23 24 25
17 17 17 16 15 15 16 11 10 13 16 13 12 13 12 13 14 14 12 13 14 15 15 17 23 19 21 20 20 24 28 27 28 27 27 25 29 26 20 21 19 22 24 25 26
16 17 18 17 17 15 15 13 14 15 21 16 15 16 15 15 17 15 13 13 17 17 15 19 20 20 21 23 23 27 29 30 29 28 27 25 24 23 20 21 22 23 25 27 28
22 17 19 20 24 22 18 17 18 20 41 20 19 17 19 19 18 20 15 17 18 18 18 26 20 21 24 22 24 28 30 31 31 30 29 26 25 31 25 24 26 27 29 31 31
28 24 21 21 24 24 23 23 24 38 38 27 24 25 25 22 21 20 19 17 17 18 18 20 21 23 23 24 28 31 32 31 33 34 40 34 30 26 33 25 26 29 31 33 35
30 29 27 24 28 26 27 28 39 42 30 29 29 28 28 28 27 24 25 26 26 29 30 27 29 27 27 31 34 37 36 41 42 43 42 35 33 27 29 29 30 32 34 37 39
33 31 29 28 26 26 28 35 44 35 31 30 29 29 32 32 31 28 28 31 32 33 35 34 39 32 33 36 41 40 40 51 61 46 40 34 34 33 32 34 36 38 41 43 46
37 37 33 31 29 30 39 44 41 33 33 33 33 34 38 36 34 33 35 35 37 38 41 42 40 39 37 39 41 46 51 46 50 52 56 41 36 36 38 42 45 46 49 51 51
43 45 42 37 39 38 45 42 38 36 37 37 40 39 41 41 38 39 39 38 40 41 41 48 45 43 42 44 44 49 48 55 61 78 66 48 46 41 44 51 54 54 56 54 58
45 50 44 42 42 48 54 48 43 42 43 43 43 43 44 44 44 45 45 44 43 44 45 49 53 50 50 50 49 52 54 53 54 58 69 64 52 40 45 51 55 59 58 63 62
47 53 45 46 54 49 50 47 46 47 46 46 46 47 49 51 51 49 49 48 47 47 51 54 55 58 51 49 46 47 50 56 63 65 64 70 56 45 49 54 57 62 65 65 67
47 50 48 48 62 56 51 51 51 49 49 49 52 52 51 53 55 52 53 54 54 54 59 59 62 62 50 55 56 55 52 52 59 65 67 88 56 44 48 54 56 61 61 66 67
44 49 49 52 56 57 55 55 56 53 52 53 55 55 57 58 57 58 58 59 60 61 62 62 62 67 67 62 63 64 56 53 62 76 64 65 51 47 54 58 59 62 64 66 68
39 41 40 50 52 57 56 57 60 60 58 58 61 60 62 65 61 59 60 61 63 65 67 71 70 70 63 64 67 65 55 52 58 58 67 48 58 50 55 58 62 65 65 68 72
42 40 39 44 44 48 50 54 56 57 56 60 61 64 64 66 67 68 66 68 68 68 72 75 78 76 73 67 67 66 56 53 55 54 56 56 52 59 59 64 66 69 71 77 75
38 38 44 41 43 44 46 49 52 53 57 56 60 62 65 64 64 63 65 65 64 68 73 77 83 86 80 68 75 78 65 60 61 62 62 65 63 60 63 69 76 75 79 77 80

GFSSW_prec_cthk_006.txt.gz
RH
16 15 13 13 12 11 11 10 11 13 16 15 15 15 18 18 17 17 14 13 13 15 18 18 15 14 13 11 15 19 19 18 17 22 18 15 16 19 13 16 15 14 23 43 43
16 16 15 12 11 10 10 11 12 15 16 14 14 15 16 17 17 16 14 13 12 14 18 19 20 18 17 15 18 26 23 20 16 16 19 18 15 15 12 22 25 26 22 25 27
17 14 13 12 11 11 10 11 13 15 15 13 13 15 15 18 21 15 12 11 11 12 16 18 21 21 21 20 22 22 18 17 18 16 15 17 18 19 19 24 28 26 29 31 27
15 14 13 12 11 11 12 13 14 15 13 12 13 14 17 20 20 13 12 10 10 13 14 17 19 20 18 18 18 18 13 14 14 12 13 16 15 15 17 17 17 20 21 24 26
15 14 12 12 12 12 13 13 14 13 13 12 14 16 19 18 16 15 14 16 16 17 17 16 18 20 17 16 18 15 15 16 14 14 13 11 13 16 13 14 11 11 16 19 21
14 13 13 13 14 14 14 13 12 12 12 13 16 18 18 16 16 15 16 18 18 19 15 15 15 15 18 16 17 14 16 18 16 17 14 14 16 16 15 16 13 13 15 17 20
14 14 15 15 15 15 15 13 13 12 12 12 16 18 18 15 17 19 17 16 17 16 14 13 15 19 20 21 15 20 21 24 25 19 14 15 16 18 19 18 16 15 14 16 19
17 16 16 16 17 16 15 14 14 14 13 13 17 19 17 15 18 17 20 17 15 15 14 12 16 18 24 23 27 24 27 27 22 19 18 16 16 21 19 19 19 20 19 19 19
16 16 17 18 17 15 15 15 15 15 14 14 19 22 17 14 16 16 16 15 15 15 15 16 19 20 23 27 31 31 24 25 26 25 20 19 18 18 20 21 21 21 22 22 22
16 16 16 16 16 16 15 14 13 14 14 14 15 20 15 16 13 14 14 15 16 17 20 17 20 27 21 16 21 21 26 28 32 27 23 22 22 21 21 21 21 22 22 22 23
16 16 16 16 16 16 15 19 22 18 18 20 17 18 13 13 14 13 11 14 17 18 18 15 25 21 18 18 17 20 26 26 27 24 23 22 22 22 21 19 18 18 19 21 22
15 16 16 16 16 15 20 30 26 20 16 14 13 11 10 11 15 13 9 14 13 16 14 18 28 22 17 20 19 19 24 27 24 24 23 23 22 23 21 18 17 18 20 21 22
16 16 16 16 16 16 18 14 16 15 23 12 11 11 11 12 12 13 11 12 14 14 14 14 22 17 18 21 21 19 28 27 27 25 24 25 25 26 23 19 18 20 21 23 24
15 17 16 16 15 17 18 10 11 15 26 19 15 15 13 12 17 15 12 13 17 15 13 17 18 16 19 22 21 21 25 26 29 30 30 25 27 29 26 23 22 24 26 28 30
17 16 18 17 25 20 18 14 15 17 46 23 18 15 15 16 18 21 17 16 18 17 17 27 22 17 20 23 21 24 26 29 28 31 30 29 25 30 30 30 30 27 29 31 33
23 20 18 21 22 22 19 18 19 41 44 25 22 24 24 23 22 22 23 22 18 18 19 19 21 20 22 21 26 28 29 28 32 33 42 37 36 26 34 37 33 32 33 35 36
27 27 24 23 28 25 24 26 43 45 32 30 31 26 26 28 28 26 26 28 29 31 33 30 29 27 29 27 30 33 34 42 45 50 50 43 38 33 31 38 36 37 40 41 42
30 30 29 26 24 26 26 35 48 38 32 31 28 27 31 30 34 30 33 37 34 32 33 36 40 32 33 32 35 38 41 54 60 50 46 34 37 33 38 42 43 45 48 50 52
33 36 32 30 28 27 38 45 44 36 34 31 30 32 39 36 31 35 38 37 37 36 40 40 39 37 36 36 38 41 48 47 52 53 63 49 46 40 45 48 51 56 57 60 59
42 45 37 33 30 35 46 48 39 34 33 33 38 38 43 42 40 41 42 41 41 42 40 45 45 40 41 42 46 46 48 55 64 79 69 50 52 45 50 51 51 56 62 59 62
43 52 41 38 40 49 58 48 44 42 43 45 45 43 43 43 46 46 47 46 46 43 43 49 52 49 46 50 50 50 51 58 60 68 77 76 57 48 48 48 54 57 62 64 68
49 58 41 43 55 52 51 47 44 47 46 46 47 46 48 49 51 51 50 49 47 45 51 56 55 60 51 48 50 50 55 59 79 76 74 73 60 49 55 59 62 64 65 65 67
49 50 44 48 67 53 49 50 51 50 50 50 51 49 49 52 55 55 55 55 54 52 58 56 59 60 50 54 56 57 52 53 59 70 75 91 64 52 53 56 59 61 62 62 67
45 51 48 51 54 55 54 55 55 53 53 52 52 52 56 57 59 59 60 60 59 59 60 59 59 64 70 63 64 65 56 53 56 65 63 67 56 54 56 60 64 66 65 65 68
38 42 41 52 49 53 55 55 59 61 57 54 58 58 57 64 60 59 61 62 62 64 66 67 69 66 64 61 66 66 59 56 54 55 63 52 60 53 60 61 63 63 64 69 70
45 41 38 40 41 46 44 47 49 53 51 58 55 56 56 58 60 62 60 60 58 58 62 66 70 70 71 59 64 65 55 52 54 57 58 57 56 56 55 58 62 66 69 73 76
38 36 41 40 39 42 45 45 47 46 49 47 50 53 53 53 54 53 51 51 50 53 55 62 76 81 77 69 73 75 62 60 65 64 65 65 56 57 60 67 73 75 78 76 82

GFSSW_prec_cthk_009.txt.gz
RH
14 15 15 14 13 12 10 10 11 13 13 13 13 14 15 15 14 12 11 11 14 16 15 14 13 11 13 17 21 24 24 21 17 14 14 13 14 17 14 14 13 20 22 24 31
18 16 15 14 12 11 10 10 12 13 13 12 13 15 15 15 13 10 10 11 14 16 17 15 14 16 18 20 22 20 20 19 17 16 16 15 15 14 14 15 19 23 29 30 29
18 16 14 13 12 11 10 11 13 13 12 12 14 15 16 18 15 12 10 10 15 16 17 17 17 18 18 18 19 19 21 18 15 12 11 12 13 13 13 15 22 22 23 25 26
17 15 14 12 11 11 11 12 13 13 11 12 14 17 18 16 15 11 11 12 14 14 13 14 15 17 13 13 13 12 9 10 9 8 8 10 10 12 11 13 13 16 19 20 18
16 14 13 12 11 12 13 12 12 12 12 12 16 17 17 16 14 12 14 16 16 15 14 14 15 15 15 15 16 13 12 12 13 14 12 12 13 14 14 13 11 11 12 15 17
15 14 13 12 13 13 12 12 13 13 15 16 17 17 17 14 15 15 14 16 17 15 13 15 15 15 15 15 19 16 18 18 19 17 16 13 17 17 16 16 15 14 12 12 17
15 15 14 13 13 12 12 12 13 14 16 17 17 18 17 15 16 16 16 15 14 14 13 13 19 18 23 24 22 22 23 23 23 19 18 16 15 17 18 18 18 18 19 18 16
16 16 15 15 14 13 13 14 14 13 13 16 18 18 12 14 15 16 17 15 13 12 14 17 19 20 24 24 26 25 24 26 23 23 21 17 18 16 17 18 18 19 20 21 22
17 16 17 16 15 15 15 14 14 13 14 17 19 20 15 14 13 14 15 13 14 15 19 21 20 20 19 22 26 25 24 24 26 23 22 21 21 20 18 19 20 19 19 20 20
17 17 17 17 17 16 15 14 13 14 16 17 17 20 16 15 12 13 13 12 15 17 18 20 21 23 22 18 21 19 23 26 28 26 25 22 21 20 20 20 20 19 20 20 21
16 16 16 17 17 16 17 20 21 17 17 17 16 16 14 11 13 12 9 13 15 17 18 17 24 23 17 19 18 18 21 24 26 23 23 21 21 20 22 19 19 19 20 21 21
15 16 15 15 15 19 23 28 27 20 15 15 12 11 9 11 13 12 8 12 12 15 14 19 23 22 18 18 18 17 22 26 24 23 24 24 23 22 22 21 19 16 18 20 22
15 15 15 15 15 16 15 19 20 17 23 12 11 11 11 10 11 11 10 12 13 15 14 18 21 19 16 20 21 18 24 25 26 25 25 25 24 22 22 22 26 26 25 24 26
15 15 15 15 15 17 17 13 12 17 30 20 16 16 13 14 16 16 13 16 19 17 12 18 19 18 18 24 23 22 21 24 28 32 34 31 36 27 28 29 28 27 28 30 30
14 16 16 15 20 16 17 12 13 16 50 22 19 15 16 16 17 20 19 18 17 16 17 23 18 17 20 22 21 25 26 27 30 33 35 36 36 31 33 31 35 36 34 36 41
20 17 19 18 19 19 17 14 15 42 44 25 20 21 24 25 23 23 26 24 22 23 23 23 22 25 25 24 26 27 29 27 33 35 50 40 39 37 32 36 41 44 46 47 46
27 25 22 20 23 22 20 22 46 54 32 31 29 26 26 29 27 26 30 32 34 34 35 30 27 26 29 29 29 30 35 47 46 55 55 42 44 38 42 44 47 48 47 47 48
29 28 28 25 24 24 25 39 49 42 33 32 30 27 31 30 30 30 35 37 39 35 39 42 45 34 33 34 34 38 40 61 61 63 55 39 43 37 42 46 51 54 56 55 54
32 33 30 28 27 27 37 51 47 37 34 33 31 33 38 35 33 38 40 42 42 40 43 46 43 38 36 37 40 45 54 48 55 57 69 56 43 38 45 51 56 60 63 67 62
36 38 32 31 29 39 47 41 39 37 34 34 39 39 45 42 44 43 46 47 48 47 43 47 49 43 44 43 46 49 48 60 70 81 78 60 53 50 51 49 49 58 58 61 62
46 49 38 38 39 47 57 47 44 41 43 46 47 47 47 47 48 50 50 52 51 45 46 50 54 52 47 52 57 55 56 64 68 77 89 92 72 52 54 57 60 62 67 66 67
48 53 39 45 49 52 51 47 46 46 46 47 48 49 49 51 52 53 54 52 52 49 55 55 54 62 53 52 55 56 60 63 81 86 81 87 67 51 56 60 57 65 67 67 68
44 44 41 48 59 53 47 47 50 53 52 53 52 50 49 53 57 57 55 56 55 55 57 56 61 67 57 58 63 65 58 58 66 70 70 88 68 58 61 61 67 67 63 63 67
43 48 44 48 51 50 50 52 52 51 52 54 54 55 57 59 59 58 56 59 57 56 57 56 58 61 66 59 64 66 56 52 62 72 68 69 63 57 63 68 68 62 63 69 68
36 40 43 50 52 50 50 49 52 55 53 51 56 56 56 61 59 58 57 53 51 50 51 53 55 57 55 60 64 64 58 54 63 63 71 58 67 60 69 71 67 68 70 69 72
40 39 34 39 41 43 41 45 47 48 45 49 47 50 49 53 54 55 52 51 48 43 49 56 63 62 63 56 65 69 56 56 65 68 63 63 65 71 70 73 71 72 72 75 78
36 35 35 36 38 42 44 44 44 43 44 42 43 43 47 47 45 48 47 46 46 50 52 58 66 73 70 69 76 74 52 59 65 63 64 71 72 74 79 80 81 85 87 85 83

GFSSW_prec_cthk_012.txt.gz
RH
28 27 23 12 12 13 12 11 13 15 13 13 14 14 14 12 11 10 11 12 13 14 14 14 14 18 18 18 15 15 16 18 18 16 15 13 14 14 12 12 14 18 20 24 28
26 16 14 14 13 11 10 12 15 14 13 13 14 15 13 12 10 9 11 14 14 14 14 14 13 15 16 17 16 17 17 18 17 14 11 10 11 9 11 12 18 19 20 22 24
17 17 15 14 12 10 11 13 15 13 13 15 15 15 15 14 10 9 13 14 15 15 14 15 15 13 15 17 18 15 18 17 14 11 9 9 10 11 11 14 18 19 19 19 18
18 16 14 12 11 11 13 15 15 13 12 14 15 16 15 14 12 12 14 14 14 13 12 13 13 11 12 14 11 9 9 8 7 6 6 8 8 10 12 11 13 14 15 18 18
15 14 12 12 12 14 15 15 13 11 12 15 14 14 14 12 12 13 13 13 13 12 11 12 12 12 13 13 12 11 14 16 17 16 14 12 14 14 16 15 14 14 18 17 16
15 14 13 14 15 15 14 14 12 12 12 15 16 14 13 13 14 13 13 13 13 13 13 13 15 16 18 19 20 19 18 18 18 18 18 17 16 19 18 18 18 19 21 22 21
15 15 15 15 15 14 13 12 12 14 16 17 16 15 15 14 15 16 15 14 12 11 15 16 20 22 23 25 24 22 23 21 21 21 19 19 18 18 18 19 20 20 21 22 22
17 16 16 15 14 13 12 12 14 15 16 17 17 14 14 14 14 15 14 12 12 14 16 18 19 21 23 23 25 24 22 22 23 21 21 19 20 19 18 17 17 19 19 22 22
18 17 17 16 14 13 13 12 12 14 18 18 18 19 14 13 11 12 11 10 13 16 18 19 20 18 18 18 22 20 20 21 22 22 23 21 21 19 18 18 18 18 18 19 19
18 18 17 15 15 14 13 13 14 15 17 17 17 17 15 13 11 10 9 10 14 16 17 18 20 21 21 19 21 19 19 20 23 23 22 20 20 19 19 19 17 17 17 18 19
17 17 15 15 15 14 17 17 17 17 16 17 15 16 12 11 11 11 9 13 14 15 16 16 22 23 19 19 19 18 19 23 24 23 22 23 23 21 20 21 20 18 16 19 21
16 15 15 15 14 19 21 23 23 17 16 15 12 11 9 10 12 11 8 11 14 15 14 19 20 22 22 21 20 21 21 24 22 23 25 24 23 21 20 22 23 24 24 27 29
14 14 14 15 15 18 17 20 20 18 20 13 11 12 11 10 12 12 9 13 15 15 16 19 19 20 17 19 22 23 22 24 26 26 28 27 24 22 23 25 27 28 29 30 32
14 14 14 15 14 15 18 17 16 19 26 19 17 16 13 14 16 15 15 17 18 16 14 17 20 19 18 23 23 24 23 25 28 31 37 31 39 29 28 28 30 31 31 34 37
13 13 13 12 16 13 14 11 13 17 38 21 18 16 18 18 18 20 21 20 19 18 18 23 21 23 25 26 27 26 25 27 28 35 36 37 39 38 36 36 38 40 42 41 39
13 15 14 13 18 15 14 13 14 39 38 23 22 22 23 23 24 25 27 26 26 28 26 26 25 26 29 31 29 28 28 30 34 39 49 40 39 43 41 41 42 44 44 46 48
21 17 18 18 17 17 15 16 41 43 28 30 29 25 27 29 28 27 30 31 34 32 36 33 29 29 32 32 30 32 36 48 46 55 54 45 43 41 42 45 49 53 55 57 57
27 27 24 23 23 22 22 37 42 37 34 32 30 28 32 30 29 32 32 38 38 36 41 46 46 37 35 35 38 41 43 56 58 63 56 43 46 43 43 46 52 55 60 61 61
29 28 28 27 26 25 32 45 44 39 35 33 32 33 34 34 34 38 43 45 45 42 44 49 46 40 38 38 41 45 49 47 53 59 67 54 46 40 45 49 56 58 63 59 59
32 31 31 28 28 36 42 38 38 37 36 36 39 40 45 48 45 43 45 49 49 46 45 48 52 44 43 43 47 48 47 59 68 74 78 66 59 54 50 54 53 57 58 55 58
40 34 31 35 37 38 44 44 44 41 40 44 47 50 50 49 48 48 52 50 49 46 48 50 54 49 46 51 54 53 57 61 66 76 86 88 69 52 52 60 65 62 61 60 63
46 40 37 43 46 48 46 44 42 43 43 45 48 49 51 49 51 52 53 54 53 53 55 53 55 62 54 55 56 55 57 62 80 77 79 84 64 51 60 64 66 66 68 71 70
41 41 42 47 48 50 45 47 47 48 49 50 49 48 48 51 55 55 56 56 55 54 53 52 56 58 50 54 54 54 48 57 66 73 76 83 66 53 62 64 67 68 70 74 75
42 45 43 46 47 44 45 47 48 47 48 50 50 52 54 57 56 55 55 55 52 48 46 46 47 48 55 52 59 55 47 52 63 76 73 64 64 57 63 65 67 71 72 75 76
38 39 44 52 48 49 50 50 49 49 44 45 46 47 46 47 47 48 49 50 45 41 44 48 54 54 55 56 58 54 57 59 64 60 75 59 62 59 66 69 72 73 74 73 74
31 33 37 41 43 44 46 44 43 42 44 43 45 44 42 43 44 47 46 48 47 44 46 51 59 61 54 59 66 61 60 60 63 62 61 62 62 67 72 77 79 79 77 74 80
32 32 30 34 36 38 39 37 40 40 41 43 46 47 48 46 49 50 48 45 42 43 48 57 63 73 64 72 74 66 57 55 56 53 58 64 64 71 73 78 83 80 79 78 83

GFSSW_prec_cthk_015.txt.gz
RH
30 31 34 35 25 19 12 13 13 13 12 14 15 14 12 10 10 11 12 14 15 16 14 12 13 15 15 16 16 15 17 16 15 15 15 13 12 11 11 12 12 15 16 18 24
30 31 31 26 16 13 14 13 15 13 13 14 14 14 12 10 9 12 14 16 15 15 14 14 14 15 16 17 16 13 15 15 13 12 10 10 10 10 11 15 16 15 16 19 23
29 28 23 14 14 14 13 14 14 13 14 15 15 16 14 11 12 15 15 14 14 14 14 14 15 15 15 16 15 14 15 15 13 10 10 11 11 10 10 13 14 13 15 17 19
26 19 16 15 14 12 13 15 13 14 15 16 17 16 13 11 12 15 15 14 13 14 13 12 12 12 14 13 10 10 11 11 12 12 9 11 10 10 12 10 9 14 15 17 19
19 18 15 12 12 13 15 14 12 14 15 17 16 13 12 12 13 13 14 14 13 12 13 11 11 11 11 10 11 12 13 16 18 18 17 16 16 15 16 15 15 18 20 21 21
17 14 13 13 14 15 15 14 13 14 16 16 15 13 12 13 14 14 13 13 13 11 10 12 11 13 14 14 14 16 16 19 21 21 19 18 17 18 16 17 17 19 20 21 22
15 14 14 15 15 15 14 13 13 14 16 15 15 14 14 14 14 14 13 12 12 14 15 16 18 19 20 21 21 21 20 21 22 21 20 18 18 18 19 18 16 17 20 22 22
17 17 16 15 14 14 14 13 14 15 15 15 15 14 14 14 13 13 13 11 13 15 15 17 19 20 21 20 22 21 21 21 20 21 21 19 20 19 19 18 17 16 19 21 21
18 17 16 15 14 14 14 15 15 15 17 17 17 15 14 12 12 11 10 10 13 15 17 18 17 18 17 18 19 19 20 21 22 22 23 21 19 17 18 18 18 17 18 19 22
18 17 16 15 15 14 13 13 14 17 18 17 16 14 14 11 11 10 9 12 15 16 17 17 19 20 19 19 22 20 18 19 23 23 23 21 20 20 20 19 19 19 19 20 24
18 17 16 15 15 16 15 14 16 16 16 16 16 15 11 10 11 10 8 12 13 14 16 16 20 21 20 20 19 19 21 22 23 21 23 24 24 21 20 21 23 22 22 23 27
17 16 16 15 16 16 15 16 18 18 17 13 12 10 10 10 10 9 7 12 13 14 14 18 19 19 22 19 19 22 23 22 21 24 26 26 25 22 22 23 24 24 26 27 28
16 16 15 14 16 15 16 18 16 16 16 13 13 12 11 11 12 12 11 13 16 16 17 19 18 19 19 20 22 23 23 24 27 28 29 28 27 26 25 26 27 29 30 32 35
14 14 14 13 16 15 18 18 18 18 22 19 16 14 14 14 15 16 16 18 18 18 16 18 19 21 21 23 25 26 24 26 28 32 35 30 38 31 28 31 32 33 34 36 37
13 13 13 13 13 13 17 15 16 21 34 21 17 18 18 16 17 20 22 21 22 20 21 24 21 24 26 28 27 28 26 29 30 36 36 36 39 37 35 35 37 39 42 41 41
13 13 13 13 15 13 13 12 14 35 35 23 22 21 21 22 22 25 27 26 25 29 31 31 27 28 30 32 30 29 30 33 36 39 46 39 40 41 40 40 42 46 48 48 48
14 15 14 13 15 13 13 14 34 37 27 26 23 23 27 27 27 29 30 31 33 29 37 34 34 34 35 36 34 34 36 46 44 55 51 42 42 43 42 48 50 53 56 58 59
20 16 16 16 17 15 14 33 32 31 29 28 28 28 30 31 31 32 33 38 37 38 44 45 43 39 39 38 38 39 40 53 49 61 55 43 46 45 46 52 56 60 60 56 56
24 25 23 22 23 21 27 42 38 37 33 32 30 32 35 35 34 36 41 44 45 44 45 51 44 40 42 40 41 42 47 46 55 60 67 54 48 45 47 53 56 54 53 54 57
27 27 26 27 27 32 36 36 33 33 33 35 36 38 43 47 45 44 45 46 46 45 44 49 53 44 40 42 45 44 47 57 64 71 70 62 54 49 47 52 48 47 50 53 56
30 27 30 33 36 37 41 37 35 38 41 42 44 46 48 49 47 47 48 48 48 48 48 48 54 49 44 48 49 52 56 58 60 70 78 81 61 49 50 53 53 56 60 61 63
36 31 36 39 38 39 39 39 41 42 42 43 45 46 48 48 50 49 51 51 51 50 50 49 50 54 46 46 46 50 56 58 72 72 74 76 59 50 56 57 61 64 64 63 63
41 38 39 41 46 48 44 44 44 45 46 46 48 48 50 51 53 52 53 51 51 50 47 45 49 52 45 50 46 49 51 53 61 67 73 78 63 52 57 61 62 64 65 67 69
40 44 42 43 43 43 43 44 46 45 45 46 48 49 50 51 49 47 46 45 44 42 41 41 46 46 54 46 49 50 52 55 64 75 74 67 62 57 57 58 61 65 67 70 72
38 42 46 48 44 43 44 42 43 44 42 43 44 42 40 42 41 45 45 48 46 46 45 47 49 48 51 55 56 54 57 56 64 62 72 60 59 53 57 65 68 70 72 71 70
32 38 40 44 44 43 44 43 44 42 40 40 40 39 39 42 43 48 51 51 48 49 51 52 54 55 56 55 58 58 57 62 60 59 62 59 57 56 61 67 72 72 75 73 71
31 30 32 40 40 41 42 37 38 38 37 36 38 44 42 40 41 44 49 52 54 57 59 61 65 73 64 67 69 61 58 58 58 56 59 65 61 63 67 66 65 65 68 68 73

GFSSW_prec_cthk_018.txt.gz
RH
34 33 30 25 25 27 26 22 21 19 15 16 16 14 12 11 12 14 15 15 14 13 11 13 13 15 15 15 16 18 19 18 16 15 13 12 11 10 11 14 12 16 16 17 20
25 31 33 34 33 29 22 18 17 15 15 17 15 13 11 11 15 16 16 15 16 15 13 13 14 15 15 16 17 16 16 14 12 10 10 9 9 9 11 12 13 13 13 15 17
29 32 33 34 32 22 15 16 16 15 17 17 14 13 12 13 14 16 16 15 15 17 14 14 16 15 15 15 15 12 14 12 9 9 10 11 11 10 12 12 12 12 13 17 19
32 30 31 30 21 15 15 16 15 17 17 16 16 14 12 12 16 16 14 13 14 14 15 14 15 14 15 14 11 12 13 13 13 11 11 13 13 13 14 11 11 14 15 17 19
28 31 22 17 15 14 16 16 16 17 16 17 16 13 13 14 16 15 13 12 12 12 12 11 11 12 12 10 10 13 15 17 19 17 17 16 16 16 17 16 15 18 20 20 21
23 17 17 16 14 16 17 16 16 15 18 17 15 13 13 14 15 15 14 14 13 14 13 11 11 11 11 11 13 14 15 19 21 21 20 17 17 17 17 19 18 18 20 21 22
18 17 15 15 16 17 15 15 15 17 17 17 14 14 14 15 14 14 14 13 13 14 13 13 15 15 15 17 19 19 18 17 19 21 21 19 19 19 18 20 18 16 19 21 21
18 17 16 16 17 16 14 14 15 16 17 16 15 14 14 13 12 12 12 11 13 14 15 17 18 18 19 19 20 19 19 20 20 22 22 20 21 19 17 18 19 18 19 21 22
19 17 16 16 16 15 15 15 15 16 16 15 14 13 13 11 11 10 8 10 14 15 17 18 18 18 17 18 19 18 18 18 21 23 23 23 22 18 20 20 20 19 19 22 26
19 18 17 16 16 15 15 15 16 17 16 14 15 13 12 11 11 9 8 12 14 15 16 17 17 18 19 20 20 19 19 19 20 21 22 22 23 22 19 22 22 22 21 23 28
20 18 17 16 17 16 15 15 16 15 15 15 16 12 10 11 10 7 8 11 13 15 17 17 20 21 20 20 19 19 22 22 20 20 22 25 26 22 21 23 24 24 25 26 26
20 18 17 17 16 15 14 15 17 17 13 13 12 9 9 10 10 9 8 12 13 15 15 17 20 19 21 19 19 21 22 22 22 23 25 27 27 23 23 25 25 27 27 28 29
18 16 15 16 16 14 15 16 16 15 12 13 12 12 12 13 13 13 11 12 14 16 17 19 19 19 19 20 24 24 23 24 26 25 28 29 28 26 25 26 28 29 30 30 30
17 16 15 16 16 15 18 15 14 16 19 17 15 15 14 14 15 17 16 16 18 18 19 20 19 21 22 24 25 27 24 25 27 29 34 31 35 32 31 31 33 33 33 34 35
15 15 15 15 17 15 19 17 16 21 28 21 18 18 17 16 17 19 21 20 22 22 22 25 22 25 27 28 27 28 27 28 29 32 35 36 36 35 34 34 36 37 38 39 40
14 14 14 14 13 15 15 14 15 28 29 23 21 22 21 21 22 25 24 25 26 29 29 30 29 31 32 30 30 29 30 31 36 39 44 41 41 40 38 40 42 43 44 47 48
14 14 14 14 16 16 13 14 28 34 26 25 23 23 24 26 29 30 30 32 33 28 35 34 33 34 35 36 35 34 35 40 43 51 50 42 41 42 41 45 48 48 49 51 54
16 15 14 14 14 13 12 28 27 29 26 25 25 27 29 30 32 34 35 38 36 36 43 45 40 38 39 37 39 41 42 51 43 59 56 44 44 45 46 51 52 51 52 54 56
21 18 16 18 16 14 19 36 33 31 28 29 30 32 32 33 33 36 39 41 43 42 43 50 43 41 42 41 42 45 50 47 56 58 63 52 44 47 48 52 51 50 53 56 56
25 23 22 22 21 24 32 35 31 31 32 32 33 35 39 44 43 44 44 45 44 45 43 48 52 44 41 44 45 47 48 54 59 64 62 54 49 46 50 53 53 55 56 57 59
29 27 30 29 31 33 37 34 31 33 34 38 41 43 45 47 46 46 46 45 44 45 44 45 51 44 40 45 49 51 53 56 57 65 73 75 58 49 50 50 53 55 57 58 59
30 30 34 36 37 39 36 33 35 38 41 42 43 44 45 47 49 49 49 47 47 47 46 46 47 50 37 41 46 49 53 56 63 61 70 74 59 47 54 55 55 54 56 59 61
34 35 36 37 39 41 38 39 41 41 43 43 45 46 48 51 52 51 51 48 44 42 41 38 44 46 32 43 48 51 54 57 60 66 68 76 61 50 55 55 55 57 61 64 64
37 40 37 37 39 41 43 43 44 45 45 45 47 47 48 48 45 44 42 42 43 44 43 44 48 45 48 40 42 49 52 56 61 73 70 64 59 52 54 56 58 59 64 63 61
36 41 42 44 43 42 41 40 43 43 42 43 45 43 40 42 41 44 43 46 48 48 49 51 54 52 50 48 49 51 52 56 67 65 76 59 63 58 59 63 64 60 60 59 60
36 40 42 43 42 41 44 42 43 42 40 40 40 39 37 38 40 41 42 44 43 44 48 55 59 59 60 60 61 60 57 61 62 64 67 66 64 55 60 65 63 62 63 63 68
31 34 37 45 44 43 42 40 39 37 38 36 36 36 37 39 38 38 40 43 45 50 55 61 65 69 64 65 64 55 53 62 60 59 57 60 54 61 65 66 64 67 68 69 68

GFSSW_prec_cthk_021.txt.gz
RH
28 24 25 27 27 20 22 24 26 27 20 16 16 14 11 13 16 15 15 15 13 11 14 15 14 15 15 15 18 20 18 16 16 16 13 12 10 10 12 15 13 15 15 15 19
32 31 30 29 25 25 26 26 26 22 16 17 16 13 14 18 18 17 17 17 14 14 13 14 15 16 17 19 19 18 17 16 13 10 10 11 10 10 12 13 14 13 13 13 15
27 30 33 28 29 28 28 29 20 16 19 18 16 14 16 18 17 18 17 17 15 14 14 16 16 16 16 16 16 15 15 11 9 9 10 11 11 11 11 11 12 12 13 16 17
30 29 32 34 35 30 29 20 16 18 18 17 16 13 14 14 18 16 16 15 15 15 14 17 17 17 16 14 13 11 11 12 11 10 11 13 12 13 13 11 13 15 16 19 21
32 32 33 35 31 26 18 16 18 19 18 18 15 13 14 15 16 15 14 13 14 14 12 14 14 13 13 10 12 13 16 16 16 15 15 15 15 16 16 17 16 18 20 22 22
29 32 29 23 19 18 17 17 19 19 20 18 15 14 15 16 17 15 14 14 14 13 12 10 10 10 10 11 12 13 15 17 19 19 18 16 16 17 17 19 19 18 21 22 22
27 19 18 18 18 17 17 19 19 20 19 17 16 15 16 17 16 16 14 15 15 16 14 14 13 11 12 15 18 17 17 17 19 20 21 19 19 19 18 18 21 19 21 22 23
20 20 19 18 18 18 18 17 20 19 18 16 15 15 15 14 14 14 13 13 14 14 14 15 16 17 18 19 18 18 18 18 20 22 22 21 21 20 20 19 18 20 20 22 23
21 19 19 19 18 17 17 18 18 18 17 16 15 14 13 13 12 10 11 13 14 14 16 17 16 16 18 19 16 17 16 17 19 22 22 22 21 21 19 20 21 20 20 20 25
21 20 20 19 17 16 16 18 18 18 17 16 15 12 12 12 10 8 10 13 15 15 16 16 16 17 18 16 17 19 19 20 20 19 21 22 23 21 20 21 22 21 20 22 23
22 21 20 19 17 16 17 18 18 17 16 16 12 11 11 11 9 8 10 11 13 14 16 16 18 20 20 19 18 19 21 22 20 21 22 24 24 22 23 24 24 25 23 24 25
21 20 19 19 17 17 17 17 17 15 15 14 11 11 12 11 10 9 10 10 13 14 15 16 18 19 19 18 19 21 22 21 23 23 24 27 24 24 24 27 28 29 29 28 28
20 19 19 17 17 16 16 18 17 13 14 14 13 12 12 13 12 12 11 12 13 16 16 18 17 18 18 21 23 24 22 23 24 25 26 27 27 27 27 28 30 31 31 32 33
20 18 18 17 16 16 17 16 16 15 18 16 15 15 14 13 14 16 13 15 16 18 20 20 19 22 23 24 25 26 24 26 27 28 28 30 29 30 31 31 33 34 34 35 37
18 17 16 17 16 16 17 14 15 22 27 19 18 17 16 14 16 18 18 18 20 21 22 24 24 27 29 27 28 28 29 29 29 30 31 34 30 34 34 36 37 37 39 41 44
16 16 15 16 16 18 17 17 17 24 25 21 20 20 19 20 21 22 22 23 25 28 28 28 28 30 31 31 32 32 32 32 34 36 37 37 36 39 38 40 42 42 45 47 48
14 14 14 14 14 15 15 15 25 28 25 22 21 21 22 24 26 28 29 30 31 28 35 32 31 32 34 34 34 35 34 36 38 42 41 40 38 43 44 44 46 49 51 52 53
14 14 14 14 15 16 13 26 25 28 25 22 22 24 26 28 32 33 33 36 35 35 39 40 36 37 39 37 39 41 40 45 41 46 45 44 45 45 47 48 51 52 53 55 56
17 16 15 15 14 13 18 31 28 26 23 23 26 29 31 32 33 36 39 39 39 40 40 45 40 41 40 41 41 44 48 46 52 56 54 44 47 48 50 49 51 53 54 56 58
22 19 19 18 16 15 26 29 26 28 29 29 31 32 35 42 43 45 45 44 43 43 41 44 47 43 41 43 44 44 46 49 52 57 54 43 45 43 48 52 54 56 56 55 55
26 25 25 23 22 24 32 32 31 32 32 33 36 41 44 45 46 47 47 45 44 43 40 40 44 40 37 42 46 47 50 54 54 61 66 67 43 44 48 51 53 56 56 55 56
29 31 31 31 32 35 33 32 33 34 36 40 42 43 44 45 47 48 49 47 47 43 39 36 37 39 33 38 42 46 50 51 54 56 61 63 48 41 48 52 54 56 55 56 58
32 35 35 35 38 39 37 36 35 38 42 42 44 45 46 48 50 50 48 43 39 39 41 41 43 41 32 44 47 50 51 50 53 59 59 67 48 45 52 54 58 57 57 57 56
34 39 36 35 35 36 37 38 41 42 43 44 45 44 44 46 44 43 40 40 42 43 42 40 44 40 42 39 43 47 48 54 59 68 63 58 54 49 52 55 57 59 60 60 61
37 40 38 40 37 38 39 40 43 44 43 43 44 42 42 43 40 41 41 38 40 41 40 42 48 51 51 49 52 52 55 58 64 64 73 57 59 54 56 59 60 62 63 64 65
39 42 41 43 41 40 41 40 41 42 41 41 41 40 36 34 33 39 37 35 36 40 44 48 53 56 58 56 57 56 53 57 64 65 69 67 65 59 58 63 64 64 64 66 70
35 38 42 45 42 42 42 41 42 40 41 38 36 36 35 33 33 34 34 36 38 41 46 51 57 61 57 60 61 56 54 61 63 64 64 65 57 60 64 65 64 66 68 69 75

GFSSW_prec_cthk_024.txt.gz
RH
26 25 21 19 20 24 20 18 21 26 26 24 21 15 14 16 17 16 15 12 12 12 11 13 14 15 17 19 19 18 17 17 16 16 12 11 11 10 12 16 14 16 20 21 23
30 27 23 24 25 26 19 23 26 27 25 20 17 14 17 18 16 17 14 11 12 14 15 16 17 17 18 19 18 17 18 17 13 12 10 10 11 10 13 13 15 17 15 16 19
29 32 28 27 28 24 25 27 27 24 20 18 15 18 18 17 17 17 15 13 13 12 16 17 18 19 20 19 19 16 16 12 9 9 10 9 9 9 12 13 14 15 16 19 21
30 27 27 29 28 29 29 29 26 21 20 18 15 17 16 15 19 17 16 14 15 14 16 18 19 20 19 17 16 14 11 7 7 9 11 11 11 11 11 12 12 15 18 22 23
29 30 32 31 32 31 30 27 20 20 19 16 14 15 15 17 16 15 15 16 16 16 17 17 16 15 13 11 13 12 12 14 14 14 15 15 15 16 16 16 16 18 21 25 25
31 34 35 34 36 29 30 18 19 20 19 17 15 15 16 18 17 15 15 14 14 14 13 12 11 10 10 11 13 13 16 18 19 19 18 17 16 17 18 18 19 19 21 24 25
32 31 34 29 26 23 18 19 21 21 20 18 17 16 18 18 17 15 14 14 14 14 13 11 10 12 11 13 16 16 16 18 19 19 21 19 17 17 18 17 17 20 22 26 25
31 24 19 21 20 18 20 22 23 22 20 18 17 17 19 17 16 14 14 15 15 15 17 17 16 13 16 18 18 18 18 18 19 20 21 20 23 20 20 20 19 19 20 24 25
21 21 21 21 19 20 21 23 22 20 18 17 17 18 16 14 13 11 12 14 15 16 18 17 17 20 20 18 16 15 15 15 17 19 20 20 21 21 20 20 21 21 21 22 25
23 22 21 20 20 21 22 22 20 19 18 18 16 15 13 12 9 10 12 15 16 17 18 18 17 17 15 14 15 16 17 17 17 17 19 21 21 20 21 21 22 23 22 22 25
23 22 21 20 20 20 21 20 19 20 18 18 16 14 13 11 10 11 12 14 15 16 18 17 19 19 17 16 16 15 17 19 19 19 21 22 21 22 24 25 25 24 24 26 29
23 24 22 20 19 19 20 20 18 17 16 13 13 13 13 11 11 11 11 13 14 15 15 15 17 17 17 16 17 19 20 21 21 22 23 24 23 23 25 26 27 28 30 31 32
23 23 21 20 20 19 19 19 16 15 17 15 14 13 13 13 12 11 12 12 13 15 15 16 16 17 17 19 21 22 22 24 24 23 23 24 26 25 26 28 30 31 32 33 35
22 22 20 19 19 18 19 18 13 14 16 16 16 15 13 13 15 14 13 13 15 17 18 18 19 21 21 22 24 23 23 26 25 25 24 25 32 28 29 31 33 36 37 38 38
20 20 19 17 17 18 18 18 14 20 22 18 17 16 15 15 16 18 16 16 17 19 20 22 24 25 28 27 28 30 29 28 27 28 26 27 28 35 32 36 38 39 40 41 43
19 18 18 18 17 17 16 16 16 23 23 20 19 19 19 20 20 20 21 20 22 24 23 24 26 27 28 29 30 31 30 30 32 33 35 34 33 35 35 39 41 41 43 44 47
18 17 16 17 17 18 17 16 20 23 22 21 21 20 20 22 22 24 26 27 27 27 28 27 28 29 31 30 31 32 33 35 41 43 39 37 36 39 40 42 43 43 46 50 53
16 16 15 15 14 16 16 22 21 24 23 21 21 21 22 24 27 29 28 29 30 29 29 30 36 34 36 35 36 38 37 42 43 39 40 38 37 40 43 43 44 45 50 53 57
15 14 14 14 13 15 18 27 25 22 21 19 21 23 25 28 29 31 34 33 34 35 35 36 35 38 38 38 39 43 44 43 47 48 47 36 40 44 44 46 48 51 55 58 59
16 15 15 14 14 14 25 24 22 21 21 22 25 27 29 33 36 38 40 40 40 38 35 36 39 40 37 38 39 39 40 47 46 59 44 33 40 40 43 47 50 54 58 60 59
19 20 18 16 15 19 26 25 24 26 28 27 29 31 37 39 39 40 42 42 40 39 36 32 33 32 30 33 37 39 43 44 44 49 55 49 34 42 43 47 51 54 57 59 61
25 28 24 23 23 23 26 27 31 32 31 33 37 39 40 42 42 42 43 43 42 34 32 34 35 34 32 37 41 44 47 46 51 53 53 52 40 38 44 51 52 56 59 61 61
32 33 30 28 34 32 32 34 35 33 35 38 41 40 42 43 46 46 44 39 34 36 37 35 35 32 35 42 44 46 46 46 46 50 52 66 46 46 52 53 55 57 58 59 62
34 40 37 34 33 32 34 37 36 36 39 40 41 41 41 43 41 42 39 36 36 36 36 34 34 32 34 32 36 40 43 49 53 63 57 50 51 46 53 56 58 60 61 63 65
32 37 37 40 35 34 35 36 37 40 41 40 41 40 38 43 39 37 35 35 34 34 34 34 34 36 36 37 40 47 49 52 54 57 66 57 54 57 56 57 59 62 65 64 66
36 38 35 37 36 35 37 39 40 41 40 39 39 38 35 34 29 31 31 31 30 33 36 37 39 41 43 41 43 47 49 54 59 61 64 66 65 64 62 63 64 65 66 68 71
37 37 39 42 40 40 40 40 39 38 39 38 37 36 36 31 28 28 29 30 31 34 39 42 45 50 55 49 50 61 51 53 59 62 69 70 66 66 67 71 70 69 71 74 76

GFSSW_prec_cthk_027.txt.gz
RH
20 18 21 22 20 18 20 20 21 21 23 26 26 22 19 17 15 16 17 13 12 11 11 13 14 15 17 19 18 16 22 25 23 21 16 12 12 11 14 15 18 21 33 30 29
21 24 26 22 19 18 24 21 19 24 25 26 24 19 17 16 18 22 12 13 12 13 14 16 16 18 21 21 17 23 21 22 16 16 12 11 11 11 16 14 17 17 17 29 26
28 28 28 23 20 23 24 20 25 26 25 25 19 18 17 17 25 21 14 13 14 17 18 19 18 19 22 20 18 22 23 14 11 12 10 10 10 10 15 17 17 20 18 28 24
27 27 30 28 24 28 24 25 28 26 27 25 18 18 18 22 32 20 14 15 16 18 21 21 22 24 22 20 18 17 13 10 8 9 11 13 12 11 16 17 15 18 21 24 22
28 28 27 26 28 28 28 30 27 24 24 18 18 19 18 27 24 18 16 15 15 18 23 23 23 21 20 15 16 13 10 8 9 10 14 12 13 14 15 14 14 19 23 28 31
30 30 30 30 30 30 32 26 25 24 21 17 18 18 21 30 16 16 16 16 18 21 18 17 16 14 14 16 20 15 15 16 16 16 14 16 15 16 18 16 17 19 25 31 32
29 33 33 31 32 32 27 26 23 23 19 16 14 15 22 23 14 14 13 13 13 14 13 11 12 14 14 15 15 14 16 17 18 19 20 17 19 17 18 17 19 20 23 35 35
32 33 35 35 29 28 23 23 24 21 18 17 15 16 26 16 16 13 13 13 13 14 13 12 12 19 22 19 17 20 25 28 20 19 20 22 37 21 19 18 19 22 24 27 36
33 32 39 26 28 23 23 24 23 21 19 18 17 23 20 14 15 14 14 18 17 17 19 18 18 19 18 21 23 21 29 23 21 17 20 19 34 25 21 18 18 21 23 24 31
28 25 23 25 20 22 25 24 22 20 19 18 20 21 14 17 13 13 14 16 20 20 19 19 20 22 24 26 26 23 20 17 19 20 17 21 23 20 19 20 20 22 24 27 28
24 23 21 20 22 25 24 22 22 22 20 24 18 20 13 12 11 13 15 17 18 21 29 19 28 32 25 20 21 16 16 19 20 20 18 21 23 21 22 23 24 24 25 26 31
24 22 22 23 23 23 22 35 29 21 19 18 16 15 12 13 14 13 14 18 18 23 17 16 26 19 16 16 15 18 21 23 21 20 18 27 25 24 25 26 28 28 29 31 31
26 24 22 22 21 22 27 26 19 18 18 17 16 16 14 15 15 13 13 13 15 15 14 23 20 15 16 19 20 22 22 24 23 22 21 24 29 26 26 26 29 30 32 35 37
27 24 22 21 21 21 24 19 17 20 22 15 15 14 14 14 14 12 11 14 13 16 17 19 16 18 19 21 20 27 24 23 24 25 35 29 36 39 33 29 32 36 39 40 40
25 23 22 22 26 23 21 17 15 22 28 16 16 15 14 17 17 15 13 14 17 17 19 24 22 25 27 27 25 30 26 27 26 27 27 30 23 45 38 36 37 39 43 43 44
23 22 20 20 20 20 19 16 15 31 29 18 17 19 19 18 17 18 18 17 19 20 22 23 23 26 27 26 26 26 29 30 30 32 35 33 33 47 46 42 40 43 47 47 46
21 20 20 20 23 19 17 18 22 35 21 20 21 20 23 21 21 21 23 25 29 31 31 27 29 28 28 31 32 32 34 42 47 47 49 44 32 45 45 44 43 45 48 46 48
20 19 18 18 17 18 16 24 33 28 21 21 22 22 23 24 24 26 28 29 26 27 30 33 41 33 31 32 33 36 35 46 45 46 44 40 33 49 42 42 44 45 46 47 50
19 18 18 17 16 18 22 29 26 21 21 20 22 23 23 23 27 28 30 29 28 28 36 35 36 33 32 33 33 40 46 36 41 48 43 32 44 46 42 43 43 43 46 50 52
21 21 21 17 15 17 26 33 27 21 20 21 25 25 30 28 30 33 36 35 35 32 32 30 39 32 28 27 35 30 31 43 48 57 43 35 41 43 55 49 43 46 47 52 53
21 24 18 15 15 20 29 29 21 21 21 25 28 27 31 33 36 37 37 36 33 32 30 26 29 33 27 33 31 38 46 44 42 47 54 47 37 46 50 48 52 54 54 56 59
25 31 16 15 21 23 32 24 24 23 26 29 30 32 37 36 36 36 37 39 36 29 30 29 30 31 29 31 32 36 41 41 50 50 55 56 44 43 44 50 51 52 59 63 64
35 35 19 19 32 26 27 28 29 30 32 31 34 37 38 39 40 40 42 38 29 31 36 29 31 31 32 39 41 40 42 45 46 50 47 60 52 55 57 61 64 67 65 67 68
37 38 29 26 35 28 29 30 34 35 34 35 38 38 39 39 38 41 37 33 30 32 29 28 29 27 31 30 30 36 38 41 46 56 58 56 57 55 61 67 66 64 69 67 69
39 42 36 34 33 33 32 34 35 34 35 38 38 39 40 41 39 39 36 31 30 30 31 31 36 30 29 28 29 35 40 43 49 52 63 57 59 64 67 66 67 68 71 69 69
38 38 36 39 37 37 37 35 35 35 37 38 40 40 38 39 33 34 30 29 31 31 33 32 39 37 35 35 31 34 39 45 47 55 59 62 64 68 69 68 67 69 70 68 69
34 34 38 37 36 38 36 37 37 38 40 40 40 37 38 37 33 30 29 30 31 33 36 35 37 40 51 41 40 53 49 46 51 60 62 68 69 67 68 69 70 66 68 75 81

GFSSW_prec_cthk_030.txt.gz
RH
24 22 19 17 19 21 20 18 19 21 25 24 25 26 22 21 20 22 24 15 15 17 9 10 12 14 17 21 21 25 34 35 32 36 30 16 17 16 18 19 21 29 28 28 27
24 22 19 17 20 20 19 19 20 22 23 24 26 23 22 20 23 25 17 13 12 13 14 17 17 19 21 21 23 23 23 24 23 22 18 13 13 10 17 13 16 21 30 27 23
25 27 26 25 24 19 18 21 22 22 24 26 24 23 20 23 29 23 13 13 14 15 17 20 22 22 24 22 24 25 24 22 19 18 13 12 11 13 16 17 17 19 25 25 25
28 29 27 27 25 20 19 26 22 26 27 25 23 20 21 30 39 17 15 17 20 21 21 20 23 26 29 27 26 25 23 20 13 12 12 11 9 11 17 18 16 18 18 28 25
30 30 26 28 25 20 25 25 27 27 26 26 22 19 26 35 30 15 15 20 21 24 26 30 29 30 28 26 21 18 14 10 8 9 12 12 11 13 15 14 13 21 24 30 29
29 28 26 26 28 27 27 29 28 28 27 24 19 18 26 37 23 16 15 18 27 27 26 28 33 30 23 22 24 12 13 11 10 11 9 10 14 13 16 16 15 20 26 32 38
26 28 27 25 25 29 29 29 26 27 24 18 19 19 31 32 21 16 15 15 21 23 23 18 20 22 23 21 19 16 15 14 14 15 17 14 18 16 20 17 17 20 22 35 40
29 31 34 30 30 30 33 28 26 24 20 18 17 16 31 21 15 14 15 15 15 18 17 13 15 23 27 18 14 15 21 27 24 19 18 19 34 27 23 20 18 21 24 31 40
34 34 32 32 31 31 27 28 25 22 19 17 15 23 32 12 13 13 12 17 15 13 12 10 15 16 16 17 21 21 34 34 31 20 22 23 37 35 28 22 19 21 27 29 35
32 34 35 37 29 29 28 26 23 20 19 17 22 29 18 18 15 14 14 15 17 18 16 17 19 20 21 32 39 33 24 25 22 21 15 19 27 28 25 22 22 24 30 32 33
33 39 37 28 29 27 26 24 22 22 23 29 21 25 16 13 12 14 15 15 19 21 25 19 30 40 37 26 26 25 20 22 25 20 17 18 24 24 24 26 25 24 26 30 35
30 34 26 27 27 26 26 38 39 27 24 23 19 18 14 15 14 14 14 18 18 26 29 20 32 35 33 20 18 22 21 27 26 21 17 30 30 26 26 29 27 28 29 31 33
27 25 25 25 27 25 38 41 29 20 21 18 18 15 13 16 18 15 14 19 23 31 21 33 31 17 13 18 18 24 22 30 26 24 20 20 31 29 29 29 30 30 31 32 34
28 25 26 25 25 28 35 23 20 22 21 14 15 13 13 15 14 14 13 17 18 23 21 24 21 15 18 21 18 26 26 24 20 23 28 34 33 40 36 39 40 40 35 36 39
30 28 26 25 33 27 29 19 21 28 36 17 16 16 15 20 18 14 11 13 19 19 20 26 20 23 26 27 22 27 27 23 24 24 26 30 36 39 42 44 47 47 47 43 46
30 27 26 29 29 31 24 18 20 47 44 17 17 20 18 17 18 17 15 17 18 17 22 23 22 23 25 22 23 22 25 27 30 31 39 31 36 49 51 52 52 51 50 47 49
28 27 26 29 32 24 19 17 26 48 24 20 20 20 22 20 21 21 23 25 32 30 30 27 27 26 24 29 32 31 33 46 59 61 58 52 45 51 49 57 58 55 53 50 51
26 25 23 23 26 22 18 26 40 33 24 20 21 22 24 23 21 23 27 27 24 30 38 37 46 32 29 29 32 34 33 51 51 58 55 44 40 51 44 53 60 51 48 45 48
24 22 23 21 19 20 26 33 36 25 24 21 21 25 25 23 26 28 34 30 27 28 36 33 38 28 28 27 26 34 46 32 32 42 49 29 42 55 58 60 57 54 52 51 49
23 21 25 20 18 20 31 35 38 27 21 21 23 27 31 27 29 36 35 32 30 29 31 29 39 28 25 30 38 32 32 41 56 63 55 36 45 64 64 61 61 61 61 58 55
24 25 26 18 17 24 29 36 31 24 20 24 28 26 35 34 37 40 39 34 33 27 27 25 32 32 29 32 29 34 40 39 41 46 57 58 46 49 52 63 63 67 66 62 60
22 32 30 16 21 23 29 36 28 19 21 26 27 31 37 35 41 39 39 39 31 30 28 25 28 32 26 26 27 28 34 37 51 46 54 62 51 43 48 55 59 62 66 67 69
26 50 27 16 30 27 36 33 26 22 22 26 31 34 38 40 43 41 41 37 34 28 36 25 29 35 38 39 36 31 33 33 40 48 52 66 51 53 61 69 73 72 72 74 79
50 45 26 21 44 32 33 28 28 28 31 32 33 36 39 42 39 40 41 37 28 27 24 27 27 26 31 27 27 29 29 32 39 56 56 56 58 58 60 70 72 71 73 72 72
51 41 24 25 37 34 28 29 32 32 33 33 35 39 42 42 40 40 40 33 27 25 27 29 32 28 26 23 27 30 29 32 38 45 56 56 59 62 66 70 68 71 68 66 66
51 53 35 41 27 33 36 34 35 36 36 34 38 41 44 43 39 42 37 30 30 30 30 29 36 33 28 26 30 29 29 37 42 48 50 58 58 60 67 66 66 67 65 66 69
44 40 40 37 37 39 40 37 39 39 38 38 42 45 46 42 39 38 34 28 28 32 34 35 37 37 43 38 36 51 44 39 43 52 58 64 63 64 66 66 70 65 66 69 68

GFSSW_prec_cthk_033.txt.gz
RH
23 25 23 22 18 16 19 20 20 20 19 26 28 26 26 23 22 22 22 18 14 12 13 12 12 12 29 34 33 33 35 39 42 45 44 38 22 22 21 24 26 26 26 26 26
22 25 23 23 18 16 16 19 19 19 19 25 25 26 24 25 26 25 21 15 13 18 15 12 15 24 32 31 30 29 31 34 34 38 33 25 13 9 18 14 21 25 28 31 24
24 25 24 24 22 18 19 18 20 21 23 24 26 24 25 30 29 23 14 15 15 17 16 17 21 27 29 28 26 25 25 26 29 25 19 13 12 15 16 17 18 21 25 26 23
25 25 25 27 24 25 21 17 21 22 23 26 25 23 31 33 35 20 15 16 18 18 21 22 23 24 27 27 27 24 24 23 23 22 13 10 11 14 15 18 17 19 21 20 21
27 27 28 28 25 25 20 19 24 23 28 27 23 26 35 36 30 19 17 21 23 26 30 29 27 25 25 27 26 21 20 23 22 18 9 10 11 14 16 17 18 19 22 26 25
29 29 27 26 25 23 19 25 25 29 30 26 24 32 41 41 25 18 21 25 28 30 32 31 35 33 29 27 18 13 11 8 7 8 9 11 12 12 13 14 17 19 22 27 30
29 28 27 25 25 25 25 25 30 29 28 25 24 31 34 33 21 19 21 24 25 26 24 26 32 30 27 21 16 12 13 13 12 12 13 14 16 16 17 15 15 18 23 29 33
33 28 25 24 25 26 28 31 31 29 25 20 20 27 33 27 21 14 17 19 24 21 20 24 25 21 23 19 16 18 23 26 27 25 18 23 26 23 21 24 22 19 21 28 35
29 28 30 27 25 29 32 34 30 25 21 18 20 26 32 17 14 14 13 15 18 16 12 13 17 18 21 25 30 35 38 35 31 23 19 25 23 25 24 24 26 19 23 27 38
28 31 32 26 30 35 35 31 26 22 21 19 24 32 22 18 13 11 12 14 14 14 12 14 25 29 36 36 41 34 35 37 31 23 17 22 30 30 29 28 27 25 25 31 35
35 33 32 34 39 30 30 27 23 23 21 23 30 23 18 14 12 13 13 15 17 20 23 30 31 34 30 29 35 29 29 29 23 20 19 18 29 29 25 25 28 28 29 33 37
35 37 38 39 31 29 27 30 34 31 28 24 26 23 16 18 17 17 15 19 23 26 28 33 31 33 34 29 27 30 28 30 25 22 20 20 26 27 27 28 29 28 31 34 38
38 44 35 31 30 30 40 43 37 29 26 22 21 16 17 18 19 15 18 19 24 27 26 27 29 27 25 26 23 24 29 29 25 23 19 27 31 32 32 32 38 39 41 38 38
34 32 29 31 29 36 41 37 28 26 24 18 16 12 15 16 15 12 14 17 21 23 23 24 26 26 15 18 20 26 26 26 24 22 25 28 36 37 35 38 39 38 40 42 44
33 29 29 29 32 37 37 28 25 28 41 18 17 15 14 18 18 12 12 15 21 22 22 24 22 21 24 25 24 24 25 24 23 25 27 31 37 39 44 49 44 49 51 52 52
31 30 30 33 34 34 32 25 28 46 38 19 16 16 13 16 18 16 12 17 19 21 22 26 27 24 26 24 24 25 26 28 32 38 43 41 42 47 49 47 56 56 56 64 59
32 31 29 32 32 29 26 27 44 60 24 18 19 21 20 20 18 18 17 23 29 28 29 27 29 25 23 29 31 31 32 46 49 64 59 55 60 70 60 60 55 54 58 61 59
33 29 29 27 30 25 22 29 53 37 25 20 21 27 26 23 24 25 27 28 31 39 37 41 44 33 27 28 30 32 34 53 49 62 54 43 59 60 58 60 66 70 71 68 60
31 29 26 25 27 24 22 50 45 33 27 24 23 28 28 25 24 33 37 35 28 36 38 43 40 31 25 21 26 28 43 35 36 49 54 46 51 57 61 68 72 74 74 73 68
28 26 24 24 23 23 30 47 40 30 27 24 25 28 32 26 28 33 35 33 27 28 29 35 40 28 27 33 30 32 30 39 49 54 51 45 56 65 59 59 63 68 71 73 79
27 25 26 23 22 24 34 44 36 30 26 25 30 31 41 35 36 41 41 35 32 28 26 33 37 30 29 29 27 31 36 35 37 47 59 65 50 50 61 65 66 68 71 68 68
27 30 29 21 22 26 26 35 32 29 26 25 31 29 37 35 42 42 44 40 32 30 31 26 30 35 28 28 28 26 32 33 48 44 56 66 57 51 59 58 66 74 73 76 79
25 35 36 20 27 27 29 35 30 25 22 25 28 30 35 38 43 44 43 38 32 33 31 26 28 41 35 36 31 26 29 29 36 49 51 64 57 51 61 63 68 72 72 73 72
40 46 38 23 29 29 34 35 33 26 28 26 27 30 37 41 41 45 43 37 33 23 24 29 25 29 38 30 27 25 27 26 30 54 53 56 54 54 64 67 66 69 71 71 73
54 42 31 24 37 35 35 32 29 29 28 30 33 33 38 42 43 44 43 38 31 21 24 29 32 31 30 24 21 25 27 27 29 34 45 48 54 61 65 68 70 71 72 73 72
54 58 28 29 33 34 35 33 34 32 31 32 34 37 44 45 43 45 41 35 32 25 28 28 37 32 25 27 31 27 30 33 35 38 43 49 58 62 64 64 66 68 69 70 71
55 61 42 37 24 36 39 36 36 37 35 36 38 45 48 46 42 41 38 34 32 29 30 34 38 38 40 37 35 44 35 31 34 40 44 51 55 58 60 64 67 70 73 72 67

GFSSW_prec_cthk_036.txt.gz
RH
23 21 20 22 22 21 18 14 19 20 20 19 20 30 30 29 25 24 22 19 16 25 21 20 36 14 29 35 37 39 41 43 42 56 56 45 46 43 42 35 30 30 26 23 24
21 19 16 22 23 22 19 15 14 20 19 17 22 29 29 24 26 24 20 16 13 14 13 18 31 34 34 35 34 35 35 39 42 46 45 43 37 32 26 24 28 26 28 24 22
21 16 20 24 22 23 21 15 14 20 20 19 25 26 25 28 28 21 15 14 13 14 16 19 34 39 36 34 31 29 30 32 38 37 37 32 23 20 15 18 18 20 24 26 23
18 20 23 24 24 25 22 21 17 20 21 25 25 26 29 31 32 18 17 17 18 25 21 31 36 35 32 31 28 26 25 24 27 30 27 21 10 9 11 16 17 18 21 22 22
21 24 25 24 25 26 24 23 17 20 25 26 28 30 32 33 24 20 21 22 24 26 36 36 37 33 32 29 26 27 25 25 25 24 22 10 10 10 13 16 21 24 24 24 21
25 27 28 27 26 25 25 20 19 25 27 29 28 33 37 35 24 21 26 27 30 30 34 35 35 32 30 30 25 22 23 22 23 23 11 10 12 13 16 18 22 23 21 24 27
28 28 28 27 26 25 22 20 27 29 29 29 28 39 37 31 23 20 25 28 29 29 29 28 28 30 27 25 20 16 8 9 11 10 9 12 14 14 19 21 25 24 22 25 28
29 33 30 26 25 24 22 25 29 32 31 27 35 36 35 31 22 19 22 24 26 28 25 25 28 28 21 18 14 17 19 27 25 21 16 22 24 21 21 25 25 25 24 27 37
32 31 27 24 22 25 27 31 34 31 28 26 30 30 28 25 19 19 20 22 22 26 24 25 24 23 21 26 31 28 28 28 29 24 25 23 27 22 23 24 26 27 28 29 32
30 26 27 28 26 29 32 36 34 29 23 21 27 30 27 21 16 15 18 19 19 20 13 23 25 29 29 32 38 38 31 29 32 28 24 27 26 25 26 25 29 30 31 32 33
24 28 32 26 28 33 38 37 30 24 21 20 27 29 23 19 17 12 12 13 16 12 20 30 38 36 36 39 36 34 31 29 32 27 26 26 29 28 30 33 34 35 33 33 35
23 33 34 33 35 41 37 32 31 29 26 27 29 24 17 17 15 13 12 16 16 27 38 38 36 34 34 36 37 36 36 33 27 26 24 25 26 29 30 30 31 34 37 40 46
29 36 36 38 42 36 38 35 35 33 34 26 23 20 20 21 19 16 18 21 27 29 33 32 32 33 34 35 38 39 35 33 32 29 27 27 31 32 36 38 36 39 44 47 52
34 42 42 43 37 35 34 37 34 31 31 25 23 18 22 21 18 16 20 26 26 27 26 26 29 30 28 22 25 29 27 34 31 28 24 22 36 37 37 40 40 40 45 52 55
37 44 44 39 34 33 39 36 31 32 34 18 19 15 19 20 15 12 18 24 23 23 25 24 27 26 27 24 21 23 23 23 24 26 26 30 35 38 41 42 43 43 52 58 60
36 38 38 35 34 39 36 32 32 45 32 22 20 16 17 22 18 11 16 21 24 24 24 26 29 25 26 25 23 23 23 26 29 34 41 40 41 41 48 48 51 52 60 62 63
38 36 34 35 37 35 32 31 39 54 24 21 18 17 18 18 18 14 18 22 27 26 25 26 30 24 23 26 27 26 32 46 50 59 62 52 60 63 59 57 57 58 61 62 65
36 33 33 32 37 32 34 37 51 39 26 19 21 23 24 21 23 23 22 27 27 31 33 37 41 29 24 30 30 30 34 48 45 56 47 44 54 55 57 59 61 69 72 71 76
32 32 30 30 32 32 35 52 51 34 26 22 25 27 26 24 24 26 28 29 33 38 36 39 40 31 23 24 30 30 40 31 39 46 50 49 51 52 58 62 71 78 79 76 76
32 31 28 27 28 30 41 56 46 31 28 24 26 27 28 26 25 30 34 37 32 37 37 36 40 29 27 28 29 28 28 36 40 45 47 50 54 59 56 61 64 64 65 68 68
33 30 28 26 26 27 46 48 39 32 29 26 28 30 32 34 27 35 38 37 30 32 31 35 38 30 30 32 27 29 32 32 36 45 53 59 52 50 55 59 64 67 69 69 72
33 32 29 26 26 30 35 40 35 34 28 28 28 33 34 35 40 43 45 39 32 32 29 34 36 36 30 28 26 25 29 32 42 36 50 57 49 47 51 55 62 69 74 76 84
31 39 32 25 26 29 24 36 32 31 29 25 29 30 36 40 46 45 45 43 33 33 31 30 33 41 34 34 31 25 29 29 34 41 43 52 47 46 55 57 60 66 71 76 80
33 44 36 26 28 25 27 35 34 27 26 24 27 30 33 40 40 46 44 40 32 30 30 30 31 30 36 28 24 21 24 26 31 46 43 46 40 43 52 58 62 67 71 73 72
38 38 33 26 24 29 33 33 34 29 27 24 25 30 34 40 44 47 44 39 33 28 26 31 33 32 30 28 25 23 24 26 26 28 37 38 44 49 53 59 63 67 70 70 70
44 41 33 30 25 29 35 34 30 28 28 28 29 33 36 39 41 46 40 37 34 29 25 30 37 32 28 31 28 25 26 30 30 30 37 45 52 54 58 61 66 70 72 74 73
53 51 29 33 33 35 32 29 31 35 31 32 34 40 40 40 44 46 44 40 38 33 30 31 36 35 30 35 32 35 30 29 30 34 36 42 48 54 59 65 71 74 75 73 69

GFSSW_prec_cthk_039.txt.gz
RH
25 28 27 21 18 18 23 21 19 15 18 19 19 20 25 30 31 29 24 26 21 17 19 19 19 26 34 33 30 34 38 45 63 65 59 62 59 57 52 46 43 35 25 22 24
28 28 26 20 15 17 23 22 20 16 15 19 19 20 27 30 28 25 27 21 18 17 26 28 23 25 29 37 35 37 43 41 55 60 66 50 50 43 45 41 32 25 22 22 22
28 28 22 17 18 22 23 22 20 16 14 20 18 22 28 27 30 26 22 19 17 17 29 28 31 29 32 36 36 37 40 43 46 51 48 46 41 31 30 28 16 17 20 21 21
29 26 20 18 22 24 24 24 20 15 16 21 22 26 26 30 30 23 23 21 19 18 19 33 37 37 35 37 32 30 36 38 39 41 37 34 26 16 15 16 16 16 16 18 18
28 23 19 23 24 25 25 24 23 18 19 23 26 26 30 32 27 25 26 25 24 25 29 38 43 39 38 33 31 29 27 27 26 29 28 27 15 11 14 17 20 21 22 22 21
28 19 22 26 28 27 25 24 22 17 21 26 28 30 33 33 29 27 28 26 28 33 34 34 39 37 35 29 27 26 26 25 25 24 23 17 11 12 16 21 25 24 25 26 26
25 20 26 28 28 27 25 25 18 19 27 30 30 36 36 32 27 27 28 29 30 35 38 38 36 35 32 28 25 21 23 23 20 21 14 10 12 14 17 25 26 27 26 29 31
20 25 29 30 30 27 25 22 21 28 30 31 36 41 37 29 25 26 27 29 31 36 36 36 37 31 28 27 24 16 18 23 17 14 12 14 16 17 22 27 27 29 31 33 35
23 28 32 30 27 25 23 23 28 31 33 32 39 36 31 31 24 22 25 27 31 33 35 35 37 33 30 26 17 19 29 28 25 24 23 22 26 22 26 29 28 31 33 35 36
26 28 29 29 24 23 26 28 32 34 34 33 38 32 28 29 21 21 23 25 27 31 28 30 28 29 26 20 25 23 26 28 30 27 25 23 23 22 21 26 30 32 36 37 36
28 26 25 29 27 27 32 35 39 36 29 29 29 31 28 23 20 20 21 24 26 28 24 24 27 24 26 33 33 28 25 30 29 28 26 27 26 27 27 28 32 35 36 37 41
28 23 28 29 29 33 37 42 41 33 24 26 29 27 23 20 18 19 21 22 24 23 23 28 29 29 36 38 33 33 30 28 30 31 27 30 29 30 31 34 37 39 43 45 50
25 27 31 32 35 39 49 44 35 29 31 29 29 23 22 20 17 15 14 16 18 27 29 32 33 37 41 41 41 41 34 32 32 33 31 30 31 33 36 39 43 45 45 54 58
25 32 36 38 41 49 47 37 33 34 33 28 25 20 20 20 18 16 17 18 25 28 30 30 28 29 32 33 36 38 37 36 35 36 35 35 40 35 37 42 47 50 49 54 59
28 36 38 41 46 44 38 37 35 31 40 24 22 20 24 23 20 20 22 28 27 29 29 30 32 34 33 29 25 26 28 28 30 34 34 33 33 34 40 44 47 53 55 57 62
34 39 42 47 46 37 37 32 33 42 31 23 23 22 23 22 19 18 26 28 28 29 29 31 29 29 25 26 26 27 28 32 34 35 40 37 43 41 43 47 59 62 66 67 68
36 40 49 58 40 37 34 33 40 54 25 23 20 17 20 23 18 17 25 28 29 30 32 32 30 27 25 27 27 28 32 42 46 52 54 47 51 51 48 51 54 58 59 60 62
38 43 49 40 39 36 34 38 48 43 24 20 19 18 21 22 20 19 24 29 28 29 33 35 35 27 28 29 30 30 33 45 44 54 46 44 52 48 45 48 51 56 59 65 68
37 42 44 37 37 35 36 46 52 39 25 20 23 26 25 25 24 23 25 27 28 30 33 38 37 30 25 28 28 30 37 31 42 45 46 46 43 46 48 52 57 59 63 71 66
40 38 36 33 37 36 44 51 46 35 25 24 26 27 27 26 27 29 30 29 30 33 38 39 43 33 27 27 29 27 29 35 38 41 41 43 45 48 47 50 53 56 58 59 62
41 37 34 31 33 40 52 51 46 34 29 27 29 28 30 32 29 33 35 37 33 35 37 39 39 34 30 30 29 30 30 31 35 41 48 53 42 37 41 48 52 54 56 58 62
37 37 35 32 32 43 49 48 46 35 31 28 29 29 30 35 37 34 37 37 34 31 36 39 39 40 31 31 27 26 27 30 36 33 48 50 40 38 42 45 47 52 58 61 65
38 40 36 31 33 42 42 46 42 34 31 30 29 30 30 39 44 45 45 44 38 31 32 34 38 45 35 32 29 29 25 30 33 36 38 44 38 39 44 48 51 54 58 62 67
38 45 39 33 27 35 35 41 39 33 32 30 29 31 35 41 44 48 48 46 37 33 30 33 37 34 35 29 26 24 22 24 29 43 39 39 33 43 44 49 52 57 61 66 69
41 42 32 32 31 30 29 34 35 32 28 27 30 30 30 39 44 48 46 42 34 32 32 31 33 33 31 30 25 22 22 24 25 27 32 28 34 36 43 49 55 58 61 65 69
42 44 32 26 23 29 30 33 32 29 28 26 23 30 31 35 37 47 45 40 33 34 34 34 37 34 33 34 33 27 22 25 27 27 28 36 41 41 47 53 57 61 64 68 70
43 44 34 33 25 30 32 32 30 27 29 29 29 31 33 37 39 44 42 38 35 34 35 33 34 34 31 39 31 26 23 26 26 28 30 42 37 44 50 54 59 63 65 67 69

GFSSW_prec_cthk_042.txt.gz
RH
22 21 21 25 27 25 19 15 19 21 18 16 19 20 20 22 28 27 32 31 28 25 21 19 21 28 33 37 38 44 43 46 60 67 69 67 71 65 62 59 53 49 38 30 34
20 20 22 26 26 22 16 15 19 22 19 16 17 21 20 23 29 30 31 28 25 22 20 21 21 25 32 34 35 36 40 45 54 59 66 64 58 63 65 52 43 29 26 26 27
19 19 24 28 25 18 17 21 22 21 18 15 17 20 20 25 29 34 28 24 21 17 22 29 27 27 31 36 37 39 39 42 57 57 55 53 52 53 42 35 21 17 21 24 24
19 21 26 28 22 18 21 23 22 23 19 15 18 20 24 27 34 27 25 25 21 19 32 31 32 32 37 38 39 42 44 48 49 53 47 40 37 29 24 16 17 17 15 19 21
20 23 28 26 18 23 24 24 24 24 20 17 22 24 27 30 30 27 28 26 22 28 35 36 38 39 42 37 37 40 36 40 45 47 42 32 30 23 19 19 20 22 23 21 21
22 27 29 21 20 26 26 25 24 23 19 18 24 27 30 35 30 30 29 25 24 32 35 38 40 41 38 39 35 30 30 28 31 32 31 28 18 18 20 24 24 25 27 28 29
23 29 27 20 25 28 28 26 24 22 18 22 27 30 32 34 30 31 30 26 28 30 39 42 41 39 37 33 28 28 28 29 28 25 25 21 13 15 21 26 26 28 33 36 34
25 28 21 24 29 30 29 26 24 20 21 28 31 34 36 34 30 32 31 29 37 41 41 41 41 39 34 28 29 25 25 24 20 19 17 13 15 16 25 26 30 32 33 36 35
26 24 22 28 30 29 29 24 22 22 29 32 34 41 40 35 29 31 32 32 38 40 38 41 37 32 31 30 30 22 25 23 20 16 16 17 24 26 30 32 33 34 37 38 38
27 22 25 28 29 28 25 24 26 28 33 34 42 40 34 38 29 30 32 33 34 39 37 41 39 35 33 30 24 29 30 28 27 25 27 24 26 29 31 33 33 35 37 39 42
25 23 25 27 27 28 24 28 31 34 36 32 39 35 33 31 28 27 32 32 33 37 37 37 38 38 33 28 26 26 28 28 27 26 27 29 31 32 31 35 37 39 42 47 47
24 24 26 25 26 29 28 34 36 42 34 31 37 32 30 26 23 24 29 33 34 36 35 35 32 32 29 30 29 28 29 34 31 29 29 33 34 32 31 35 36 40 43 45 50
23 25 25 25 28 33 36 43 44 40 32 31 31 31 27 23 20 22 26 28 31 31 32 31 30 29 33 40 39 39 35 34 33 33 33 34 36 38 35 35 35 40 45 49 54
23 25 26 27 32 41 46 47 42 36 32 29 31 27 24 23 21 23 23 26 28 29 29 32 32 32 39 41 39 40 37 34 36 34 37 36 39 38 39 41 43 46 49 53 55
24 27 28 34 41 48 48 44 36 36 38 27 30 23 23 24 21 18 19 20 21 25 27 29 32 34 39 35 32 33 30 32 34 36 36 39 38 32 38 41 44 47 52 55 57
26 29 34 42 49 51 44 35 37 41 45 27 25 21 24 25 19 18 21 22 25 31 32 34 33 33 32 33 28 26 28 32 36 37 42 37 40 36 40 41 49 55 58 60 61
27 31 38 45 51 47 36 37 40 46 28 25 23 24 27 27 21 23 28 32 32 34 35 33 32 30 30 27 27 28 31 41 43 47 48 41 45 42 41 46 48 51 53 55 58
31 34 41 50 56 42 36 35 38 44 30 24 21 23 25 25 22 24 30 33 31 30 36 38 38 30 27 27 30 32 33 46 46 56 47 45 48 41 39 37 41 46 49 53 58
35 40 47 60 52 36 34 38 44 48 29 24 22 22 25 26 22 23 29 30 30 29 32 37 35 30 28 30 31 33 37 33 45 46 45 42 38 38 39 39 42 46 52 55 59
37 47 53 58 45 37 35 40 47 41 29 23 23 24 26 27 25 24 26 27 28 29 30 36 39 34 30 28 30 32 36 39 39 38 33 39 38 41 40 41 43 46 49 51 52
44 53 53 50 41 37 39 48 47 40 30 24 27 28 26 27 29 29 30 30 28 31 35 38 39 39 34 29 33 34 33 34 36 39 44 48 36 31 37 39 43 48 51 53 55
50 51 48 42 38 41 46 47 46 39 32 30 29 30 31 33 37 32 33 34 38 34 36 40 41 45 37 31 31 28 30 30 35 33 46 47 37 32 34 39 43 47 51 53 54
46 50 45 37 38 41 49 47 46 40 36 32 32 30 32 38 43 42 39 39 40 33 34 37 41 48 39 35 33 31 28 30 30 34 38 42 30 30 34 38 43 47 50 53 57
47 54 47 39 32 40 48 46 46 44 36 32 32 32 35 38 43 49 49 47 44 38 32 32 38 37 40 31 29 26 25 28 25 39 35 34 26 31 35 39 44 48 52 56 59
51 49 38 41 38 41 46 47 50 42 36 32 32 32 35 39 44 48 50 47 43 40 36 32 36 36 36 35 28 23 23 24 23 24 28 23 28 26 32 39 44 48 53 57 59
52 46 37 33 33 42 47 44 48 42 36 31 30 35 34 36 38 48 45 43 38 38 37 35 38 34 35 37 34 29 26 27 25 23 26 27 27 28 33 38 44 48 53 57 60
53 42 34 35 35 39 42 40 40 39 36 30 28 27 30 33 36 38 41 41 36 35 37 36 39 39 38 38 32 31 25 27 25 22 25 31 26 32 36 40 43 48 53 57 60

GFSSW_prec_cthk_045.txt.gz
RH
20 21 21 17 17 20 24 23 18 14 16 20 17 15 20 19 20 23 26 24 28 28 27 25 21 20 22 28 38 45 47 51 62 62 64 68 65 63 65 66 64 55 48 38 35
21 21 18 17 17 21 24 22 16 17 18 20 18 15 19 20 20 23 25 30 31 28 26 23 21 21 28 37 39 41 47 48 52 58 74 70 68 62 65 64 55 38 33 31 35
22 19 17 17 19 23 24 18 18 22 22 20 17 15 20 20 22 31 32 31 26 25 22 20 20 23 33 38 37 35 39 41 59 61 59 64 61 59 57 41 27 27 27 29 31
21 19 18 18 21 24 19 19 22 23 22 21 17 16 20 22 28 29 28 27 24 21 19 28 26 25 34 35 37 40 44 43 56 59 53 44 42 50 34 24 22 20 19 23 25
21 19 19 20 24 24 18 23 24 23 23 21 18 17 23 25 28 29 29 27 24 21 29 32 32 35 40 40 41 45 46 54 55 60 49 34 32 30 28 25 21 20 20 20 22
21 20 20 22 24 20 21 25 26 24 23 20 19 22 28 30 27 31 30 28 23 36 38 39 40 43 44 42 38 40 41 37 40 54 44 30 25 28 28 29 28 28 30 31 28
21 21 21 24 21 20 25 27 27 24 22 18 21 25 29 31 29 33 32 29 27 40 43 46 46 46 43 41 40 35 31 35 38 42 34 27 22 28 33 33 32 37 36 35 35
22 22 24 23 19 25 28 28 28 24 22 20 24 30 31 32 29 33 34 30 33 42 45 44 43 42 42 34 32 30 34 29 28 28 29 20 20 22 37 33 33 36 39 40 39
23 24 24 21 21 27 28 26 27 24 22 24 30 34 36 35 30 33 33 32 39 44 45 43 43 43 36 31 31 26 30 26 24 22 21 19 23 27 38 40 38 38 38 39 43
24 24 24 20 23 27 28 25 25 24 25 30 35 41 39 37 31 32 34 36 43 42 42 42 38 35 36 32 28 27 28 28 23 23 23 24 35 33 40 41 40 40 41 43 44
26 25 24 22 24 27 27 25 27 29 31 30 37 40 38 38 32 29 35 35 42 41 40 42 37 34 34 29 25 28 30 32 32 30 33 36 34 33 36 39 40 42 46 46 49
26 26 23 22 25 25 26 28 30 37 34 31 37 39 36 33 36 27 36 35 35 42 39 41 41 38 37 31 29 31 32 32 32 30 30 34 35 35 32 38 39 42 44 48 51
27 26 23 23 25 24 28 38 39 43 40 31 37 37 33 29 30 25 34 38 36 40 39 38 32 32 34 37 36 34 35 39 36 36 33 33 32 35 36 35 37 39 43 46 50
28 27 23 23 26 28 38 44 43 45 37 30 36 35 32 30 25 25 31 38 38 41 40 40 36 36 38 41 39 40 35 31 31 31 32 33 30 33 37 39 40 41 45 48 53
29 27 25 25 28 34 45 44 47 46 41 28 33 32 29 28 24 24 28 33 37 39 37 36 37 35 38 38 36 40 41 38 36 33 32 34 30 30 38 41 42 45 50 54 59
29 27 26 28 37 43 46 47 47 42 45 28 28 29 28 26 25 25 28 29 32 35 33 30 33 33 32 36 39 36 34 34 33 33 37 35 36 31 35 37 45 50 54 56 54
30 27 29 34 49 47 47 44 42 42 32 29 28 26 26 27 24 23 27 29 26 30 33 34 35 34 33 34 34 31 29 34 35 40 35 37 41 35 38 40 45 47 49 49 50
30 28 33 45 58 51 45 43 39 32 39 27 26 25 29 29 24 26 27 29 27 27 35 37 37 34 32 31 31 31 30 38 39 43 42 43 42 35 35 35 37 42 44 46 50
32 30 36 52 65 56 42 40 34 37 39 29 28 30 32 30 26 28 31 31 31 32 34 38 35 32 31 31 30 35 36 33 42 47 43 33 32 29 32 34 35 39 43 46 50
32 33 40 55 66 61 42 37 30 44 34 28 26 28 27 30 26 25 28 30 30 29 29 33 36 33 31 30 32 31 34 38 38 40 31 29 31 26 30 32 34 37 42 46 49
37 39 48 59 71 58 40 35 34 46 35 28 27 25 24 28 28 26 28 27 27 27 29 30 36 36 34 32 30 32 34 37 34 33 30 31 22 26 27 31 32 36 42 46 48
44 47 57 63 65 54 38 32 42 44 36 28 26 27 25 28 30 29 28 26 28 27 30 34 41 44 41 35 32 32 33 32 33 32 41 37 25 26 27 30 35 40 44 47 50
46 54 64 61 61 47 37 36 47 45 35 30 32 32 33 35 37 38 35 33 33 34 34 36 42 46 40 36 34 32 30 29 28 32 35 40 21 25 28 28 33 39 45 49 51
52 58 69 64 54 39 37 45 48 46 39 35 35 35 36 38 40 47 42 38 37 39 35 35 39 39 38 33 35 33 33 33 28 33 28 25 20 23 28 30 34 39 43 46 51
53 53 56 63 52 37 40 51 50 48 42 39 37 34 34 39 40 47 48 46 46 47 42 35 35 36 38 38 34 28 26 29 26 24 27 20 21 20 23 26 32 38 42 45 51
53 49 51 54 42 37 46 53 52 49 45 39 38 36 34 37 33 43 45 46 42 46 44 38 39 36 38 38 35 32 28 26 26 25 25 24 21 19 24 29 35 40 43 46 50
55 45 45 55 42 40 46 51 49 55 45 40 36 35 34 36 35 37 39 39 40 41 43 39 40 38 38 37 33 33 26 26 26 25 23 25 18 24 29 30 33 38 41 46 50

GFSSW_prec_cthk_048.txt.gz
RH
16 18 20 21 18 16 16 19 22 22 16 14 14 17 15 18 19 20 20 23 25 21 27 29 28 24 22 22 26 34 39 56 62 59 66 64 70 65 69 68 66 62 65 55 58
17 18 21 20 17 16 17 21 22 18 16 19 18 18 15 18 20 19 22 23 26 32 31 26 25 24 24 24 28 37 43 47 55 62 67 66 73 65 68 64 57 54 51 44 46
18 18 20 20 18 16 19 21 19 18 19 20 19 17 14 18 22 24 27 28 30 28 27 26 22 23 24 30 39 42 44 45 52 66 61 59 68 67 62 49 42 41 39 36 48
19 19 20 20 18 18 20 21 18 21 21 21 19 17 16 20 27 27 26 28 27 25 23 22 22 23 22 37 41 37 38 43 52 63 56 56 55 58 53 39 25 30 33 36 46
20 20 20 20 19 19 21 18 20 23 22 21 20 17 19 23 27 26 30 29 27 23 24 27 28 29 30 35 36 41 47 54 55 51 48 46 42 46 36 25 22 26 35 38 37
21 21 20 21 20 21 20 17 23 24 23 21 19 18 20 29 28 28 31 29 26 27 33 34 34 35 41 42 44 46 52 52 51 54 47 41 37 39 34 30 29 32 34 33 31
22 22 22 21 21 21 17 21 25 25 25 21 19 19 24 31 29 31 31 31 30 41 42 42 43 45 46 41 42 45 44 42 46 50 45 32 34 33 36 41 40 37 36 34 34
22 23 23 21 23 20 18 24 25 24 25 21 20 23 28 28 29 32 34 32 38 43 45 47 46 47 47 42 39 39 35 39 38 42 34 25 29 29 37 39 44 43 42 40 40
23 24 23 23 22 19 20 25 25 24 24 23 23 28 33 31 32 34 35 31 39 45 49 48 45 47 46 37 35 35 37 34 34 34 28 21 22 26 37 39 43 45 45 45 46
24 24 24 24 22 19 23 25 25 25 24 24 28 35 33 34 32 33 34 34 42 45 48 48 45 45 41 34 33 31 28 26 25 23 23 22 30 30 38 41 43 45 45 46 49
25 25 25 23 22 20 24 25 28 26 25 28 32 37 39 36 31 33 32 39 46 48 44 43 44 41 37 34 26 33 32 31 27 26 26 28 34 33 39 46 47 44 44 46 48
25 27 26 23 22 21 24 27 27 32 33 28 34 39 37 34 33 29 35 40 43 41 42 41 41 36 36 33 27 37 39 33 30 29 32 36 37 37 36 40 42 41 44 47 49
26 28 27 24 21 22 23 25 32 40 41 32 35 36 36 33 34 30 34 37 38 46 41 43 42 42 40 36 33 37 41 33 37 34 32 33 32 35 35 36 36 39 41 46 49
27 29 27 25 21 22 24 33 40 46 43 31 35 37 36 34 30 32 31 41 39 43 44 43 35 34 34 35 38 36 31 26 36 36 37 30 33 30 34 35 34 39 42 43 45
29 30 27 25 21 24 35 39 45 50 43 32 33 36 36 33 27 28 28 39 37 40 40 40 40 39 41 37 36 39 39 40 37 35 30 31 28 38 33 34 37 37 41 45 50
32 31 29 25 22 32 41 46 54 53 43 29 29 34 31 29 27 25 27 34 40 41 42 42 40 36 36 39 39 41 41 36 38 35 33 30 28 28 31 29 36 43 45 49 53
33 32 30 25 29 38 45 52 53 50 34 28 27 29 29 27 28 26 28 32 37 42 44 39 37 35 37 36 36 39 37 35 33 31 27 32 28 25 30 33 38 44 45 49 48
36 34 30 25 38 47 50 52 52 37 32 28 25 27 28 27 28 27 30 31 32 33 40 34 34 33 35 37 36 33 30 29 26 30 30 33 32 32 30 29 34 40 46 45 46
40 37 31 27 47 53 54 55 44 33 32 26 27 29 29 28 28 26 29 32 31 28 30 29 33 33 33 32 30 32 29 31 34 37 37 28 27 27 26 28 30 36 39 42 45
42 38 33 33 52 58 61 50 40 41 30 27 24 24 27 29 26 24 27 29 30 29 31 31 35 32 31 29 30 30 31 32 32 38 29 21 22 22 25 28 29 33 35 42 47
50 45 37 41 55 62 62 44 34 41 38 26 23 26 28 31 28 25 27 29 29 29 28 28 29 32 30 31 32 34 31 32 33 31 22 19 18 21 22 24 27 30 35 40 44
55 48 38 46 65 60 60 42 35 38 41 28 25 24 23 25 27 25 24 25 26 26 27 26 29 34 34 34 33 30 30 30 31 30 31 29 20 18 20 22 26 29 33 39 41
56 57 48 52 65 61 59 39 37 42 39 31 27 25 25 25 29 28 25 24 25 25 26 26 31 40 38 36 37 32 30 31 30 29 29 38 19 18 20 21 24 30 33 38 42
62 57 55 65 61 62 56 37 37 48 43 34 29 33 31 31 32 37 35 31 30 31 31 32 33 35 37 35 34 33 32 29 25 29 23 21 15 18 20 21 24 28 32 38 42
65 55 46 65 61 61 54 35 41 51 45 35 30 32 33 35 35 39 42 38 35 35 38 37 36 34 35 35 34 31 30 29 28 24 25 17 17 16 20 20 23 28 32 36 41
65 57 52 62 60 60 50 39 46 54 46 36 33 33 32 31 29 34 39 43 43 46 45 42 40 36 36 35 34 33 29 26 26 23 22 21 20 20 21 20 25 29 33 36 40
63 51 47 61 61 57 43 39 48 55 51 41 37 36 36 36 34 34 40 42 42 42 44 44 42 39 35 34 32 38 27 25 24 24 23 24 21 23 23 23 27 30 33 36 40

GFSSW_prec_cthk_051.txt.gz
RH
16 16 16 18 19 19 17 15 14 18 18 16 15 16 15 14 15 20 21 21 23 25 25 32 30 30 26 24 23 29 35 34 61 55 59 74 60 65 73 64 73 71 76 68 54
16 16 17 18 19 18 17 15 15 18 17 16 17 17 17 14 15 21 20 21 22 26 24 27 30 31 28 26 24 28 36 45 51 63 73 73 61 59 67 68 74 69 63 52 53
17 17 16 18 19 18 17 16 17 17 17 18 18 18 15 14 20 27 24 24 23 31 32 34 30 26 30 28 27 28 36 45 46 65 67 64 65 60 61 59 58 60 54 43 50
17 17 18 19 19 18 18 16 18 16 18 20 19 18 16 17 37 32 24 24 28 28 26 29 26 26 30 28 31 38 42 37 46 55 60 52 53 51 67 67 48 56 39 45 56
18 18 19 20 19 19 18 18 17 15 20 21 20 18 18 23 25 28 26 26 28 26 23 25 28 31 29 30 35 40 43 53 66 50 56 46 60 79 65 40 37 39 41 54 56
20 20 20 20 19 20 19 19 15 18 21 23 21 19 21 21 27 28 28 30 31 26 28 29 35 33 36 38 39 46 50 57 55 52 61 58 46 61 33 38 38 35 49 50 49
22 21 21 20 20 20 20 19 15 21 23 24 22 20 20 23 31 32 30 32 32 35 35 39 39 40 47 47 41 45 55 50 43 49 44 53 44 46 39 38 38 43 46 45 44
24 23 22 21 21 20 20 18 17 22 23 22 22 23 24 27 30 31 33 34 36 42 43 42 46 48 49 42 45 50 49 47 42 43 46 51 44 33 38 42 43 42 41 39 38
25 23 22 22 22 21 20 18 18 22 23 22 24 26 28 31 29 33 36 36 42 43 46 46 48 50 49 47 43 39 43 43 38 40 29 47 41 28 41 48 48 45 44 43 41
25 23 23 23 24 22 20 18 19 23 23 23 26 30 29 35 35 37 34 36 39 44 49 53 52 50 50 42 40 34 36 37 38 34 28 33 38 27 37 52 55 54 49 52 48
24 23 23 24 25 22 21 18 24 30 25 26 31 30 37 34 32 33 34 40 40 44 54 54 51 49 44 38 38 32 27 28 29 24 29 31 32 31 37 41 49 50 49 51 53
24 24 24 26 25 22 21 24 32 41 36 24 28 30 37 35 33 33 32 38 49 45 52 49 50 47 42 34 34 37 38 33 31 24 30 31 37 34 34 38 44 46 45 49 51
23 24 25 28 26 22 20 22 30 35 40 36 29 32 36 34 35 35 31 38 48 46 46 50 50 36 37 38 35 36 39 44 34 33 27 39 39 28 32 37 38 42 44 50 52
23 24 26 30 25 25 23 21 31 40 46 37 30 33 34 33 34 36 30 38 44 44 45 50 49 40 39 39 39 39 31 30 34 30 36 28 37 45 33 32 37 40 45 48 51
24 25 28 31 33 25 30 29 36 44 58 35 30 36 36 33 39 30 29 37 44 42 44 49 43 37 39 44 32 55 33 36 37 34 49 38 27 44 47 40 34 35 40 48 46
24 26 29 30 26 28 29 37 44 49 56 33 32 32 36 35 31 33 29 31 38 41 41 58 42 38 49 37 38 34 39 42 37 38 40 31 40 37 48 43 38 36 40 45 46
24 28 31 34 32 25 35 45 48 52 41 33 30 32 35 33 30 26 29 30 33 35 44 46 45 36 37 35 37 36 42 48 50 40 39 39 33 29 39 36 33 38 42 46 47
25 29 34 33 31 31 43 54 52 38 43 32 30 31 37 34 27 25 31 30 33 40 42 43 46 36 33 41 49 39 44 45 42 35 33 41 25 34 31 25 27 36 42 47 44
29 32 36 31 29 39 51 53 45 43 39 33 32 33 35 31 28 27 28 36 37 30 47 46 47 41 31 33 36 45 36 35 37 33 33 22 38 31 23 23 26 33 38 42 40
33 38 37 35 30 49 55 45 45 41 38 32 31 32 34 30 26 27 30 35 42 32 35 44 46 40 31 32 30 31 39 34 30 39 33 27 29 34 28 23 24 30 35 35 37
41 48 40 37 34 54 51 43 47 44 40 29 33 36 34 31 27 26 31 34 30 28 28 34 35 47 33 29 32 38 28 27 33 37 38 26 24 28 21 22 23 27 31 33 36
47 52 50 37 40 51 50 46 48 45 38 32 33 36 34 32 30 33 30 37 29 29 30 35 37 36 35 33 26 30 32 32 35 35 33 34 25 24 20 21 22 25 30 32 36
53 57 62 41 41 51 49 53 54 45 35 36 32 33 31 31 32 30 29 35 28 27 30 33 27 32 41 31 25 27 27 26 32 35 35 39 25 25 22 18 21 22 28 31 36
56 66 65 54 44 52 54 57 55 44 37 43 36 35 30 25 29 34 30 28 24 25 26 26 24 33 40 46 47 41 32 32 32 36 29 24 25 25 24 22 22 24 27 31 33
59 52 54 49 43 61 61 58 57 41 33 43 43 37 29 30 31 34 36 34 31 29 30 32 32 32 32 36 40 37 34 33 32 28 31 25 25 21 24 25 25 25 28 31 33
60 52 55 44 44 63 69 63 55 39 36 45 43 34 35 37 34 37 34 38 38 34 34 35 40 39 39 36 33 33 30 29 28 28 27 25 24 21 24 24 23 26 28 30 33
63 64 55 52 51 58 59 63 52 41 47 52 41 40 42 47 40 36 38 40 44 46 47 49 46 46 41 35 32 37 26 24 26 25 26 27 25 29 28 24 22 25 27 31 34

GFSSW_prec_cthk_057.txt.gz
RH
17 17 17 17 16 15 15 15 15 14 13 13 13 11 12 12 14 13 12 16 21 19 20 20 27 31 32 30 27 25 29 32 35 47 66 68 69 70 77 75 73 77 81 75 71
18 19 19 18 17 15 15 16 15 15 14 13 13 11 13 12 11 15 20 19 19 20 23 23 23 30 35 32 28 24 28 34 45 50 62 62 58 57 59 56 73 80 83 86 69
22 20 21 19 18 16 16 16 16 15 14 14 12 12 14 13 20 25 26 24 22 21 23 26 30 25 31 32 29 26 29 39 45 51 54 55 59 57 57 63 61 61 68 71 60
25 22 22 21 19 17 17 17 16 16 14 14 12 14 15 14 31 28 21 20 21 21 24 31 34 34 26 31 31 29 36 46 56 58 49 49 45 53 60 61 73 76 75 68 49
29 25 24 23 20 19 18 17 17 16 15 14 13 15 16 16 22 25 22 23 26 24 23 29 31 31 31 34 35 34 44 46 54 52 50 50 49 52 63 66 77 74 69 69 73
33 28 24 24 22 21 19 18 18 16 15 14 13 15 16 19 22 23 22 27 31 30 28 27 28 32 37 37 42 38 45 47 48 55 58 56 46 52 65 59 73 54 61 80 84
35 31 25 25 23 22 20 20 19 16 15 14 14 15 15 13 21 25 27 29 34 36 35 36 34 37 41 46 44 47 46 44 50 54 58 53 47 48 53 48 64 68 59 81 63
39 34 28 26 25 23 21 21 19 17 15 14 14 16 14 17 18 26 28 33 39 41 39 41 41 37 41 47 43 42 44 47 53 57 61 59 50 49 41 43 48 45 46 53 51
40 35 31 27 26 24 23 22 18 16 15 14 14 22 19 22 20 23 28 33 42 44 40 39 42 42 44 45 45 47 49 48 53 55 54 52 47 43 38 41 45 43 43 45 45
39 38 33 28 26 25 24 22 18 18 17 15 15 21 22 23 26 23 29 35 43 47 44 47 49 52 52 52 51 52 50 45 42 49 48 47 39 46 42 41 43 39 38 37 34
40 40 37 30 26 26 25 21 28 32 30 22 19 20 24 27 29 28 31 37 40 46 50 49 51 54 56 54 51 53 55 48 41 40 43 42 39 39 39 38 45 39 39 38 32
35 38 38 31 27 27 26 23 30 32 25 22 21 22 25 27 29 27 30 36 42 48 50 50 51 52 52 51 51 49 49 48 40 32 25 31 34 37 44 37 37 42 43 39 32
35 41 39 32 27 27 25 22 25 29 25 15 16 18 23 26 27 26 29 34 41 50 61 55 54 53 52 50 55 49 49 43 40 36 22 33 41 48 41 36 34 37 43 41 32
34 39 41 34 27 29 28 24 21 25 35 19 19 27 21 25 27 25 29 33 37 46 52 53 52 50 55 55 52 49 45 40 41 36 30 38 54 43 44 46 46 42 47 47 43
35 40 41 34 28 34 36 30 30 33 52 29 28 25 19 25 28 26 33 37 35 44 53 48 45 46 48 47 52 46 39 43 44 45 50 47 48 41 48 48 46 50 50 48 41
32 44 44 35 25 35 40 38 36 49 53 31 27 25 23 25 29 30 36 33 33 42 50 45 41 42 46 45 49 37 37 36 48 54 58 44 49 50 43 49 50 50 47 49 51
30 43 45 40 27 42 39 42 49 60 23 30 27 26 25 27 28 30 36 31 33 40 46 42 39 41 46 46 40 34 34 51 56 61 51 47 54 50 42 40 33 39 47 51 50
34 50 45 44 41 41 38 52 61 30 29 27 29 28 28 30 29 31 37 31 30 33 39 41 50 51 46 44 44 42 40 54 61 72 59 57 64 52 47 44 40 44 39 38 39
39 52 45 40 48 48 52 58 44 32 26 32 31 32 31 30 32 38 37 30 29 27 30 44 49 51 53 43 41 41 61 52 51 50 52 44 37 36 35 44 45 33 30 33 34
47 58 41 43 39 59 59 47 41 27 37 42 41 32 33 32 33 44 39 29 31 27 31 47 56 56 56 48 38 38 41 60 52 39 37 30 33 53 44 49 43 40 31 31 34
52 56 40 58 42 60 56 50 38 29 40 44 42 38 33 34 33 39 42 32 30 43 44 47 49 50 52 50 38 38 36 35 37 41 50 53 45 45 50 48 41 37 33 29 31
57 63 38 58 53 52 55 42 38 31 44 48 41 40 38 31 37 39 43 39 36 46 53 48 49 56 63 42 44 34 32 41 51 37 42 50 41 33 39 40 35 36 35 32 32
63 63 59 45 58 53 47 40 36 33 46 45 41 40 38 35 43 47 46 43 37 43 40 40 38 40 50 52 44 42 40 32 39 46 42 54 43 29 33 35 35 34 36 37 38
52 74 66 57 39 50 49 38 33 30 48 48 47 43 40 38 38 49 54 44 40 38 38 32 32 34 38 33 31 44 41 43 40 50 42 43 36 33 34 37 39 36 35 38 39
55 59 58 66 55 46 43 37 36 35 48 48 50 47 39 36 38 48 59 47 45 37 33 32 31 32 29 27 32 40 43 46 52 47 52 43 40 33 37 39 38 38 36 37 42
61 48 56 58 60 51 44 38 36 31 49 49 51 45 40 34 36 44 51 48 43 38 30 26 29 24 29 28 33 34 38 35 44 41 38 35 35 37 37 38 41 42 42 42 47
55 47 56 57 64 65 52 45 32 31 42 46 47 47 48 36 33 42 44 42 43 43 31 30 31 36 39 34 35 40 30 32 27 28 36 31 30 32 35 35 35 35 36 40 43

GFSSW_prec_cthk_060.txt.gz
RH
17 17 18 19 18 17 16 15 14 14 14 14 12 11 10 10 10 10 14 16 17 19 18 19 23 31 36 31 31 29 28 36 40 43 54 55 59 61 59 60 56 64 75 71 75
22 21 22 21 20 18 17 16 15 15 15 14 13 11 11 11 10 17 21 22 20 20 20 24 24 31 36 37 33 28 28 32 41 50 51 54 53 54 59 61 62 69 75 74 79
26 26 25 23 22 20 19 17 16 15 16 15 13 11 12 12 16 22 22 20 20 20 20 26 30 27 33 36 33 29 30 35 42 46 51 51 48 50 58 60 65 66 77 80 78
35 32 28 24 23 22 20 18 17 17 17 15 13 11 13 12 23 23 20 20 20 19 21 30 34 34 30 37 35 32 34 37 46 52 51 48 47 55 59 60 68 72 75 83 83
42 36 31 26 24 23 22 19 19 18 18 16 14 12 13 12 12 21 20 22 24 25 21 30 33 36 33 40 39 40 43 46 44 42 45 47 50 53 59 66 66 71 84 87 79
43 39 33 28 25 24 22 21 20 19 19 16 14 13 13 16 17 19 23 26 28 27 24 30 32 37 37 41 46 43 45 49 47 45 43 49 51 56 60 54 63 81 81 86 82
42 42 37 32 27 24 23 22 21 21 19 16 14 13 13 10 17 20 24 28 31 34 35 35 33 36 38 40 48 52 50 48 47 47 51 56 49 54 59 61 67 82 86 77 64
36 41 41 35 29 25 24 23 22 22 20 16 14 13 12 12 16 21 24 30 32 33 37 41 41 36 36 41 44 44 49 51 51 47 60 48 53 46 62 66 64 69 66 55 46
33 39 39 35 31 25 25 24 23 22 19 15 14 16 13 17 17 22 27 30 33 37 40 43 44 37 39 44 46 47 48 51 49 51 50 45 43 45 55 59 65 53 47 46 38
28 37 37 37 33 26 25 25 24 24 24 19 15 16 15 21 22 21 28 30 32 42 42 48 49 49 44 47 53 56 54 54 53 47 44 40 43 50 46 52 55 55 49 40 34
28 27 36 37 35 27 26 26 27 34 29 24 16 12 18 23 24 24 27 30 34 43 48 49 50 52 51 54 58 58 50 49 42 41 44 44 41 46 46 47 55 57 52 43 38
27 27 35 39 37 29 27 28 33 33 25 18 16 19 20 25 27 26 25 29 33 38 45 49 53 52 56 55 53 54 56 48 40 38 44 47 44 44 45 49 45 47 46 40 39
26 28 34 36 37 30 27 30 32 31 30 16 13 14 19 22 25 25 26 29 37 41 49 53 54 53 53 54 55 51 52 48 42 39 41 46 43 43 44 46 52 47 43 45 41
26 30 35 43 39 30 33 37 30 28 34 20 19 14 18 22 22 22 24 28 33 39 47 51 50 51 48 51 49 51 45 46 44 39 35 38 45 46 43 51 55 52 47 44 45
23 33 35 44 38 37 45 40 35 32 35 27 21 22 18 17 23 20 24 28 33 37 44 47 50 49 48 44 46 47 50 46 45 46 41 36 40 40 43 45 46 49 47 45 41
23 29 44 43 39 39 51 44 40 45 46 30 26 25 20 19 24 23 27 30 32 35 39 43 45 43 43 45 45 42 47 49 47 49 48 47 46 43 49 42 39 44 44 41 41
32 34 36 42 42 38 50 52 52 56 29 30 25 24 22 22 26 27 28 30 32 36 40 41 45 41 42 45 43 41 45 53 54 61 53 45 51 43 42 37 34 37 40 41 43
33 40 48 37 51 43 49 60 60 36 30 30 28 26 26 24 27 28 28 30 32 36 46 47 44 41 38 45 45 47 48 52 53 58 50 55 46 46 39 40 36 38 40 37 42
38 43 54 33 53 50 54 66 51 35 24 28 28 29 28 26 28 29 29 29 28 33 43 49 44 42 48 46 44 49 50 48 54 53 53 51 41 38 35 34 33 40 31 34 38
36 47 46 37 57 51 60 54 49 29 37 36 33 30 31 29 30 33 32 27 27 29 36 40 47 48 50 50 53 43 43 48 54 51 47 40 38 44 36 41 45 39 37 35 36
35 53 48 52 63 57 59 57 49 26 47 46 40 38 32 31 29 33 35 30 27 32 38 41 44 50 48 46 44 47 37 40 42 48 47 49 38 35 38 47 44 42 36 36 36
39 52 48 54 74 58 55 53 48 29 45 50 48 47 37 33 32 33 33 31 27 32 43 50 52 53 48 50 50 50 37 42 54 48 53 50 39 30 34 35 43 43 40 41 38
41 53 58 48 69 59 50 50 41 38 45 46 50 48 41 37 35 34 33 36 33 35 39 50 60 65 56 51 46 43 41 45 50 51 46 55 43 30 33 35 35 37 36 37 37
50 59 67 60 51 57 53 44 45 35 40 44 51 52 45 40 38 37 38 42 38 34 44 51 53 52 53 38 42 41 42 46 50 54 45 47 38 36 33 33 36 38 38 38 39
56 57 44 56 51 56 53 48 48 34 37 41 52 54 51 43 40 42 40 48 49 38 40 49 47 42 37 32 33 36 37 37 37 46 50 43 41 37 35 33 32 38 40 38 41
62 57 51 47 48 52 54 48 45 32 29 33 46 52 49 45 40 46 44 46 49 44 37 41 44 42 38 36 33 32 31 34 34 41 42 44 43 40 34 33 34 37 38 38 40
57 52 56 42 50 60 51 41 37 41 28 30 49 54 48 42 41 44 44 41 50 48 41 42 48 45 39 33 30 37 26 27 31 33 36 37 40 40 37 31 31 33 36 40 42

GFSSW_prec_cthk_063.txt.gz
RH
17 17 17 18 19 20 20 18 17 16 15 13 14 13 12 11 10 11 14 16 17 19 21 22 22 27 30 32 33 33 33 35 40 46 49 53 55 57 55 58 59 63 65 68 75
21 21 21 21 21 23 22 20 18 17 16 14 15 14 12 12 12 15 19 19 18 19 21 24 25 28 34 36 37 34 31 31 42 53 53 53 53 54 56 58 60 64 67 71 78
31 27 25 24 24 26 24 22 19 18 17 15 15 15 12 12 13 19 17 16 17 19 20 24 30 29 36 39 39 35 32 31 41 47 55 55 53 51 52 58 58 66 71 75 81
39 37 32 29 29 27 26 23 21 19 18 17 16 15 13 13 19 19 17 18 20 18 22 26 35 37 35 39 39 37 34 37 41 54 54 52 49 51 53 58 61 66 69 77 83
39 41 41 38 34 29 26 24 21 20 19 18 17 16 13 13 11 16 17 21 24 25 23 31 35 36 32 43 43 40 44 44 43 50 50 46 46 46 57 61 65 69 78 84 90
40 43 43 41 36 32 27 25 22 21 21 20 18 16 14 15 13 16 18 23 25 26 24 29 35 36 37 40 45 47 48 47 45 49 48 47 49 51 59 63 75 84 89 93 90
32 37 40 41 39 35 29 26 24 22 22 21 19 16 14 11 15 16 20 25 28 28 32 34 34 34 37 44 47 53 52 48 49 47 48 52 52 57 58 62 86 88 66 72 74
33 36 36 39 40 38 34 28 25 23 23 22 20 15 13 10 12 16 22 26 28 31 36 39 39 35 37 45 51 54 53 52 49 48 50 51 51 52 59 63 58 61 62 61 57
30 30 36 39 40 38 35 29 25 23 24 22 21 16 12 14 14 17 24 27 29 32 38 41 40 37 38 45 50 49 46 47 53 55 52 48 45 43 52 62 56 55 59 49 43
23 32 44 43 42 38 35 28 25 24 25 27 24 19 12 18 18 19 24 27 30 35 37 40 43 42 43 49 56 53 51 46 49 54 53 53 48 52 47 53 55 52 50 46 42
23 25 34 36 40 42 38 27 27 31 34 28 23 15 16 19 19 21 23 25 31 34 39 45 49 50 51 47 50 56 55 53 51 50 51 51 51 60 55 55 57 58 53 48 39
24 25 34 35 40 44 40 32 31 36 32 26 23 19 19 23 24 23 24 25 31 35 44 48 49 52 53 51 52 53 51 47 44 41 42 46 50 52 59 54 54 51 56 50 41
39 32 34 33 39 40 43 33 37 34 34 25 21 17 15 20 24 23 24 25 28 35 44 49 50 54 50 51 50 50 53 49 45 37 38 36 42 47 53 55 53 53 46 43 39
24 26 34 33 38 39 41 45 35 31 37 27 24 16 14 20 21 24 24 25 29 38 43 46 46 49 50 48 49 52 50 49 43 41 41 34 41 41 44 48 51 53 48 42 43
30 23 32 36 37 39 51 48 36 37 36 25 25 23 15 18 19 19 23 24 27 32 40 41 47 48 47 43 47 50 48 44 43 51 44 38 36 30 40 50 52 50 53 49 45
33 30 36 38 38 44 58 55 47 53 46 32 28 27 20 19 21 21 23 25 27 29 38 42 45 47 45 41 42 47 47 49 51 54 53 45 42 37 40 43 48 48 51 45 44
34 30 36 38 34 57 58 60 64 67 29 34 31 29 25 19 23 22 23 27 29 30 34 39 42 43 45 46 43 43 47 53 56 60 53 48 48 42 38 42 40 41 43 46 45
32 31 34 39 37 55 65 72 69 47 36 36 31 31 26 21 23 24 26 29 30 31 33 40 43 43 42 44 47 46 46 54 46 53 48 45 45 37 38 39 39 33 35 39 42
40 35 35 43 43 53 65 75 56 42 34 31 33 35 30 24 25 26 28 30 31 31 32 39 44 47 48 48 47 49 47 43 49 50 53 46 39 38 31 36 39 36 35 30 33
39 40 35 32 53 63 63 61 56 36 41 40 37 33 31 27 28 29 30 28 28 30 28 31 46 47 46 52 53 50 51 52 53 50 46 42 40 38 33 34 41 37 33 32 31
43 43 32 28 56 73 64 54 54 40 40 47 50 43 32 32 28 30 29 28 29 29 29 31 37 42 45 44 50 53 53 48 44 51 57 54 43 33 30 32 34 32 35 38 35
46 43 36 29 59 67 60 54 49 37 41 50 55 50 38 31 32 31 30 30 32 33 33 33 37 38 33 43 46 50 51 54 51 45 50 52 43 30 28 34 37 37 39 43 43
51 45 43 32 50 59 59 57 52 37 41 45 54 56 48 37 34 33 30 31 33 35 37 38 41 45 40 44 49 57 53 54 51 46 47 57 43 29 28 28 28 33 38 38 39
56 55 62 52 32 47 57 59 54 39 45 49 54 58 57 48 37 37 34 35 36 36 37 37 42 43 50 47 51 51 54 50 50 59 50 48 34 33 35 34 35 29 30 36 37
63 52 53 53 44 49 52 53 55 48 45 46 50 58 59 59 45 41 39 37 39 40 43 40 44 48 48 48 46 40 45 49 45 44 44 41 42 38 38 36 33 31 28 33 37
69 59 51 43 42 50 51 53 49 48 40 42 46 53 53 55 49 48 44 42 39 45 50 52 47 45 48 42 40 41 36 38 43 40 40 35 35 36 34 36 36 33 31 35 38
67 56 49 51 49 49 43 47 45 49 40 29 36 47 50 54 53 49 50 45 42 45 55 56 60 52 45 41 40 45 35 35 33 33 33 36 30 32 33 35 38 35 32 35 39

GFSSW_prec_cthk_066.txt.gz
RH
18 16 16 17 17 18 20 21 21 20 18 17 16 14 13 12 13 14 14 16 14 14 16 19 22 27 33 31 36 35 36 33 36 45 49 60 61 57 57 55 62 65 68 69 73
27 24 22 21 21 21 22 22 23 23 20 18 17 15 14 13 15 17 17 14 16 17 18 20 26 29 35 37 39 37 36 33 33 42 51 59 61 58 56 57 62 65 68 70 73
40 36 33 29 26 25 23 23 25 24 22 19 18 16 16 14 14 18 16 15 16 18 18 22 30 34 35 38 39 38 36 35 35 45 55 58 59 57 55 54 56 61 68 75 80
42 40 40 37 34 30 28 26 27 26 23 20 19 18 16 15 18 19 16 17 18 17 19 24 34 37 38 37 39 39 37 36 38 43 52 55 54 55 55 59 60 63 70 73 76
42 41 43 45 43 35 32 32 28 27 24 22 20 20 17 16 14 16 16 19 20 20 22 27 34 37 38 40 37 39 45 44 43 46 47 49 51 50 53 56 59 67 71 77 78
43 40 38 42 43 42 41 35 29 27 25 23 22 21 19 18 12 15 17 21 22 22 24 28 33 34 37 43 40 43 49 49 48 49 48 49 48 50 59 61 76 79 87 87 88
35 36 37 35 44 44 44 37 32 28 27 24 23 22 19 15 13 15 18 23 24 24 28 31 34 34 37 42 47 52 52 53 52 53 52 51 54 62 63 60 55 73 84 82 85
30 32 34 34 40 41 41 40 35 29 29 27 23 22 19 15 11 15 20 24 26 28 32 39 38 36 38 42 49 53 51 55 55 54 51 54 55 55 62 56 48 59 66 62 73
27 28 31 33 38 37 39 40 37 29 29 26 23 23 19 15 12 15 20 24 26 29 33 37 41 39 40 46 47 47 47 48 51 51 48 54 54 53 57 55 51 50 55 55 60
26 27 29 31 41 38 40 42 37 30 28 29 27 27 21 18 17 16 21 24 26 31 35 38 44 38 39 44 51 54 55 53 51 48 52 47 51 63 58 59 58 51 49 49 47
28 27 26 26 41 37 44 59 40 36 36 29 27 25 21 20 18 18 21 23 26 32 38 43 47 45 43 46 50 51 58 57 48 47 47 46 49 60 64 61 65 57 51 46 43
38 35 28 31 41 36 40 50 38 41 37 28 26 26 26 26 24 21 22 22 26 32 40 44 47 46 48 49 53 52 57 58 53 49 47 50 44 50 56 61 58 59 54 47 44
32 40 31 32 35 40 47 57 42 44 45 29 23 24 23 22 22 22 23 23 25 33 38 46 45 48 48 47 52 53 55 53 52 47 46 47 45 41 46 52 55 54 52 51 46
33 30 39 44 40 32 44 56 47 42 43 29 28 25 23 20 21 22 24 24 25 32 42 44 45 46 48 47 49 52 49 48 45 39 41 38 43 39 40 46 50 53 54 54 54
35 30 28 41 59 51 46 60 49 43 39 25 29 28 24 19 18 22 25 25 25 32 39 41 45 46 48 46 47 47 46 47 46 46 41 43 42 32 33 40 46 48 49 48 53
35 33 27 31 38 40 56 56 60 59 55 28 35 31 26 20 20 21 25 25 25 31 33 37 42 46 46 43 44 48 49 49 50 48 49 47 45 39 41 41 42 43 47 50 51
30 35 30 27 30 36 58 66 70 69 35 33 38 32 25 22 22 23 23 25 27 33 33 36 41 42 43 44 45 49 49 55 55 59 51 46 49 39 38 38 40 39 39 43 44
31 37 34 28 30 42 62 73 73 50 43 41 37 36 33 24 22 25 25 27 24 29 34 36 41 41 42 43 46 50 48 56 52 54 49 46 47 36 37 38 39 38 33 32 34
31 34 39 32 30 47 65 76 62 54 44 39 41 41 38 29 23 27 26 26 25 27 32 36 37 41 44 45 44 50 50 49 58 56 57 44 36 29 31 34 38 43 38 34 28
34 34 35 34 35 51 64 58 56 49 47 47 50 44 40 32 27 27 28 25 26 30 30 33 35 41 43 46 49 49 50 53 55 53 49 42 43 36 31 31 34 42 40 32 27
42 41 31 37 43 57 59 54 53 46 52 54 52 52 38 37 30 31 28 26 28 32 32 32 32 34 41 44 48 51 52 53 55 57 54 53 47 38 36 32 34 32 31 29 31
48 44 34 31 53 48 55 53 50 44 50 56 51 52 46 37 37 31 29 28 29 31 32 32 35 35 36 40 38 41 47 49 59 52 57 55 47 33 36 30 32 34 33 32 36
52 50 42 28 56 43 45 53 54 42 47 52 47 47 51 43 39 37 31 29 30 32 34 37 39 40 35 35 35 39 42 50 54 55 59 64 43 32 34 31 29 33 35 38 36
61 63 66 50 26 40 50 52 56 48 47 44 49 51 50 47 44 38 34 32 30 35 35 39 45 40 39 34 38 45 46 52 56 68 53 48 40 38 35 32 36 36 32 29 32
69 66 55 54 39 36 41 47 52 49 52 48 46 52 56 54 50 45 39 38 36 39 38 40 43 42 39 38 44 46 45 45 46 48 50 45 41 34 28 27 34 37 38 33 33
75 70 55 44 38 39 50 47 48 41 49 56 46 43 59 58 55 50 45 44 40 41 41 43 45 45 47 44 47 52 45 42 36 39 39 36 34 33 30 27 29 33 36 38 37
77 63 58 47 47 48 37 45 47 39 47 52 37 35 57 59 57 58 56 51 49 47 44 46 50 54 55 56 50 52 40 38 32 29 28 29 24 26 27 28 30 31 34 36 40

GFSSW_prec_cthk_069.txt.gz
RH
26 23 21 19 18 18 18 18 19 20 20 20 21 19 17 14 12 15 18 18 15 13 14 17 20 25 28 29 33 36 35 35 34 43 44 51 57 62 60 59 62 63 62 65 73
39 33 30 27 25 23 22 21 21 22 22 21 22 20 17 14 12 17 19 16 15 16 16 18 21 27 30 34 39 40 37 34 32 34 44 51 55 57 57 58 61 62 63 68 69
44 46 43 40 37 34 30 26 24 23 23 23 24 21 19 15 14 19 19 16 15 16 16 18 22 30 32 35 36 41 39 36 35 36 43 49 53 55 54 54 57 58 61 66 70
39 39 41 43 44 41 38 34 29 25 23 26 25 22 20 16 16 21 20 17 17 16 17 20 25 31 34 36 36 41 42 40 38 41 47 50 52 51 51 52 55 59 65 70 71
38 40 38 39 40 45 41 41 40 33 28 28 26 23 21 17 15 19 20 18 19 17 20 27 30 32 35 38 39 37 43 47 44 50 51 52 50 51 53 51 55 61 68 71 78
31 36 38 39 41 39 40 42 41 37 34 28 27 25 23 20 15 16 20 19 21 19 22 27 30 32 36 40 41 39 50 53 54 55 55 51 52 54 53 56 71 78 80 84 87
33 33 35 38 39 35 39 41 41 42 37 29 28 27 26 18 16 16 20 21 22 20 24 30 32 31 36 41 50 48 50 52 55 54 54 53 53 58 60 60 63 74 92 94 92
32 32 34 33 35 35 35 36 37 42 38 32 29 28 27 18 16 17 20 23 24 25 29 34 36 34 36 41 50 47 47 52 50 53 52 53 50 58 56 55 57 59 67 81 91
31 34 33 34 31 32 33 34 34 38 37 32 30 29 26 19 16 17 21 23 25 27 31 35 35 37 35 41 44 41 45 50 52 49 48 50 52 55 55 52 51 54 55 71 70
28 30 34 34 33 31 33 33 36 36 35 34 33 32 25 20 19 19 21 23 25 29 33 35 38 37 35 41 44 45 45 51 53 48 49 50 49 54 57 57 52 52 47 65 59
25 26 27 30 32 35 30 32 35 39 43 42 38 34 26 22 22 20 21 24 25 30 37 39 40 41 40 44 45 48 52 50 46 49 54 49 51 54 56 60 55 53 50 41 49
29 29 28 27 36 35 38 40 45 45 45 44 42 32 27 26 28 24 23 23 24 28 36 40 41 43 45 48 51 51 51 55 50 49 50 47 46 50 56 54 55 52 49 47 45
28 30 31 28 33 39 34 42 49 59 51 41 30 29 25 26 27 25 24 23 24 28 35 40 42 44 48 51 50 51 50 53 54 52 48 45 40 45 48 51 52 56 53 46 41
27 27 30 28 31 43 37 48 43 53 56 44 37 31 27 24 26 23 25 24 25 26 34 39 42 45 47 48 49 51 47 49 50 48 43 38 37 38 43 47 52 55 54 51 47
23 28 29 31 33 46 54 53 50 50 46 36 38 37 31 26 23 23 25 26 26 26 32 40 45 48 48 47 49 50 51 53 50 45 41 40 34 32 38 42 40 48 55 55 50
29 25 32 30 29 29 52 77 67 60 60 35 41 38 35 30 25 25 26 26 26 29 34 37 42 47 47 46 46 47 50 52 52 52 52 46 42 33 34 39 41 45 49 53 51
28 29 32 35 27 32 47 73 83 76 40 39 44 39 33 29 27 26 26 26 28 32 34 33 38 43 45 44 45 47 48 50 53 55 50 49 47 39 35 36 38 40 42 44 50
34 30 30 31 35 32 44 68 79 56 42 43 43 46 37 29 27 25 26 27 26 26 31 33 35 38 43 45 45 49 48 50 46 48 45 48 43 36 37 35 34 35 40 36 42
40 35 31 29 35 39 52 65 55 57 47 39 42 50 44 30 28 27 28 25 24 24 28 34 31 37 44 46 46 50 52 50 55 55 54 43 35 30 31 32 35 35 42 40 38
42 41 34 30 34 48 54 52 48 44 42 53 47 46 52 41 31 31 31 25 25 25 27 31 33 36 44 47 49 49 52 54 54 53 50 41 39 32 33 34 38 35 39 39 34
56 50 35 32 41 52 51 50 44 44 43 50 59 53 49 49 40 32 29 26 25 26 28 33 33 35 42 45 44 50 51 50 51 52 52 51 40 31 34 33 36 35 32 30 32
63 54 46 36 48 45 44 39 40 40 45 52 55 59 54 49 49 43 29 26 25 26 30 33 37 40 36 41 44 45 45 48 57 50 54 50 42 37 33 34 35 34 33 31 30
68 60 57 45 50 41 37 44 42 42 40 48 53 54 59 56 49 45 32 27 29 30 30 35 37 38 35 36 39 45 42 44 46 49 51 56 43 39 34 29 31 28 31 33 33
77 74 75 66 30 33 45 41 49 44 39 48 46 55 63 59 53 44 38 32 32 33 34 35 38 36 36 32 36 40 36 37 42 54 52 51 46 40 34 33 31 25 29 31 29
86 74 64 63 47 32 36 39 43 48 41 46 49 48 59 60 59 51 44 42 39 38 40 40 41 40 37 36 38 37 36 44 47 46 49 42 40 35 32 29 24 23 24 28 30
84 75 60 59 41 42 44 43 42 47 38 43 47 40 45 56 58 58 54 54 52 46 42 44 45 44 43 42 43 44 39 44 48 45 40 38 30 28 30 28 26 26 24 24 27
71 64 61 46 55 50 35 38 43 44 39 39 41 45 39 42 65 67 62 57 58 52 50 48 49 48 48 48 50 52 44 40 39 39 37 35 25 27 26 25 26 27 27 27 24

GFSSW_prec_cthk_072.txt.gz
RH
38 33 29 25 23 22 21 19 20 19 19 20 19 19 19 20 17 15 17 17 16 14 15 15 17 20 24 26 29 33 35 35 35 40 43 50 54 55 58 58 58 59 61 65 68
43 43 43 37 33 29 28 26 25 23 21 21 21 20 20 21 18 17 18 16 16 16 15 16 18 23 30 29 33 36 37 35 34 33 37 44 52 56 56 57 55 56 58 61 64
34 37 39 40 40 39 38 35 32 30 26 23 22 21 23 22 19 19 19 18 17 17 16 16 19 25 31 32 32 37 39 36 36 36 36 44 52 54 52 53 53 58 62 62 67
32 32 36 37 37 38 38 37 36 37 31 27 27 25 25 24 21 22 19 19 18 17 16 16 20 26 31 33 33 36 39 41 39 44 47 49 51 51 49 50 49 54 63 69 71
32 34 37 37 37 36 35 34 34 38 39 34 33 29 27 27 23 18 20 20 20 17 17 20 25 29 33 34 34 31 40 46 45 50 50 50 48 51 48 47 48 59 64 67 72
29 31 34 37 35 36 36 33 34 39 40 39 38 31 30 28 23 19 19 21 22 20 20 23 26 29 31 32 35 37 41 51 51 50 50 49 52 52 53 51 53 73 78 78 76
28 28 29 33 36 33 35 34 33 36 38 40 40 35 32 28 24 20 20 22 24 22 21 23 27 29 32 33 40 45 49 47 47 49 51 50 56 54 53 54 55 70 86 87 88
28 27 28 29 30 34 34 32 32 35 33 36 39 37 33 27 24 20 19 23 26 22 22 27 30 31 32 35 44 47 46 54 49 46 47 48 56 53 52 52 55 59 78 94 97
25 27 26 27 28 29 30 31 31 32 34 34 35 35 33 28 25 21 19 25 27 24 25 29 33 37 34 38 47 43 48 47 45 43 42 45 51 53 50 45 51 58 69 79 94
27 25 25 25 26 27 28 28 30 30 34 35 37 38 32 31 28 23 20 26 28 27 27 30 35 38 37 38 49 48 46 43 45 46 44 46 47 50 54 50 48 52 62 67 67
23 26 27 26 25 25 27 28 41 37 39 37 40 40 36 35 30 25 23 27 28 28 29 31 38 43 41 37 42 44 48 49 49 44 46 48 46 49 56 59 49 47 43 58 58
22 23 25 27 23 21 27 32 41 44 42 38 36 41 42 42 40 30 24 28 29 27 29 32 38 42 38 39 44 49 52 51 48 42 46 47 46 47 52 53 54 49 46 43 48
27 22 23 26 19 19 24 34 40 49 47 42 39 40 37 41 40 31 25 27 28 28 28 31 40 41 42 44 45 48 51 49 46 45 43 43 41 43 46 51 49 52 47 44 42
29 27 22 24 20 24 26 26 39 51 46 39 43 46 39 30 32 28 27 26 28 27 28 30 37 43 44 44 46 51 48 45 44 44 48 40 42 35 38 43 46 51 49 45 44
26 29 26 23 27 27 30 29 40 57 39 36 43 48 45 37 30 29 29 27 28 26 28 29 36 42 43 44 46 49 48 47 47 41 38 36 34 39 34 37 39 47 52 52 48
23 27 28 27 24 26 33 36 44 58 45 37 45 49 48 42 33 31 29 29 29 30 27 32 37 44 44 43 46 48 50 51 49 47 47 43 37 37 37 37 39 42 46 51 53
29 25 30 30 28 31 40 42 49 55 45 42 44 53 43 38 35 31 30 31 30 32 28 30 34 42 44 46 46 48 51 56 55 50 50 44 41 40 34 35 36 39 43 50 51
37 34 38 33 30 35 49 51 51 28 44 49 48 55 49 34 34 32 31 31 29 26 29 32 35 34 38 42 44 46 50 55 52 51 48 42 37 36 32 32 31 33 39 42 44
47 44 41 39 32 39 54 58 26 27 39 48 49 57 57 39 34 33 30 29 27 27 28 30 31 32 36 39 44 48 50 49 50 50 47 40 37 28 28 27 31 31 36 42 43
58 56 45 39 41 46 52 37 29 31 36 47 53 52 55 48 39 34 33 27 28 26 27 27 30 30 37 42 44 46 50 51 50 53 50 40 35 34 30 32 33 31 30 40 41
68 65 50 41 52 58 50 31 31 39 37 45 58 52 52 51 41 38 32 28 25 27 28 29 29 36 36 41 44 46 47 48 49 49 50 47 40 34 30 32 32 32 31 31 33
71 68 55 49 57 60 42 29 33 33 43 44 48 60 55 55 50 42 33 26 26 26 28 29 32 35 35 39 40 46 47 51 49 53 50 48 40 37 34 34 32 32 33 31 31
73 72 70 66 54 55 39 39 35 38 34 43 44 44 56 58 51 51 45 36 31 30 28 30 32 39 37 36 37 40 41 46 47 47 47 50 39 39 37 39 35 27 27 30 32
81 80 82 78 50 32 50 45 42 40 40 40 44 41 55 61 59 57 53 50 37 31 32 31 33 34 36 34 35 37 35 38 42 49 40 40 36 41 46 44 33 32 25 23 27
85 71 51 65 60 46 42 43 45 45 38 40 45 43 48 59 64 61 61 59 48 39 37 38 38 36 33 33 37 34 34 34 36 34 36 34 40 37 38 39 36 31 27 21 22
86 71 60 52 44 44 49 52 44 42 39 32 37 40 42 55 64 66 68 61 58 49 44 42 43 39 37 36 37 36 33 34 37 38 39 41 37 33 27 26 28 30 29 27 24
82 74 62 53 56 61 49 42 50 46 41 35 35 33 37 41 76 77 72 69 65 60 54 51 47 44 42 42 43 46 35 36 39 38 36 36 33 33 25 23 23 27 28 28 28

GFSSW_prec_cthk_075.txt.gz
RH
42 41 37 35 31 27 25 24 23 23 22 22 21 20 19 18 17 20 23 22 17 14 16 17 17 20 21 23 24 28 33 37 29 32 50 51 46 58 51 55 58 59 60 63 66
34 33 34 36 37 36 32 31 29 29 28 27 25 23 21 19 19 22 23 20 16 15 16 18 19 21 27 25 27 28 38 37 34 35 35 34 41 50 52 58 61 64 61 61 62
27 28 30 29 33 36 35 35 34 33 33 31 28 27 23 23 26 29 23 21 16 16 19 19 18 22 28 31 31 41 39 43 35 38 34 40 53 49 52 55 66 56 67 65 65
28 27 26 27 31 36 36 34 33 33 34 32 30 32 29 26 31 31 24 22 18 17 19 17 18 21 27 35 39 34 39 36 41 36 40 57 49 51 52 51 47 47 56 60 64
30 30 28 29 31 33 33 35 35 32 31 33 34 37 34 33 32 29 25 24 22 18 19 18 21 24 31 36 37 37 35 42 42 38 46 46 50 44 48 44 39 47 68 68 66
29 28 29 28 27 30 31 32 31 31 31 34 36 40 39 37 32 29 24 25 24 21 21 20 26 30 29 31 34 45 35 44 42 53 47 42 55 45 62 46 43 47 70 82 85
28 27 27 28 27 28 28 29 29 29 31 31 35 39 39 35 33 31 25 27 26 24 25 22 25 27 35 32 35 41 38 46 42 50 52 46 53 82 46 43 52 54 66 75 81
26 28 27 28 26 27 28 28 28 29 31 31 32 39 40 32 33 32 28 28 26 26 24 25 27 28 31 35 34 44 47 55 66 57 47 39 64 77 47 46 51 57 64 71 87
21 20 22 24 26 26 28 29 25 26 27 29 32 38 36 34 32 31 28 28 28 27 24 23 28 33 38 33 49 51 51 50 50 47 42 39 52 69 46 47 49 61 59 60 81
22 22 19 18 19 21 23 25 24 25 28 30 34 39 31 34 36 32 29 28 31 30 28 25 29 35 38 42 47 49 54 43 34 53 48 45 47 52 47 51 51 57 63 55 60
22 22 23 20 15 16 18 23 36 46 44 36 40 30 34 38 41 33 32 30 32 33 31 30 35 39 45 46 38 45 43 43 44 50 40 43 47 48 55 50 51 48 51 58 50
21 25 21 21 19 14 16 25 35 35 30 32 34 31 33 40 45 39 39 38 34 32 31 38 33 39 43 37 39 42 46 45 46 45 35 45 48 50 49 49 51 46 42 49 52
19 24 25 20 20 14 16 24 33 35 37 32 34 33 34 32 43 44 42 42 39 32 33 32 36 39 38 36 40 45 50 50 50 50 38 37 42 45 49 50 53 50 45 43 45
20 20 27 24 14 22 24 27 31 33 34 25 38 38 39 34 38 41 42 42 39 33 32 32 32 36 37 39 44 50 46 42 44 42 58 45 47 47 44 47 49 50 52 45 45
24 22 24 26 29 26 44 36 27 37 29 29 33 38 41 40 37 43 36 40 32 34 33 32 29 35 37 40 44 49 46 41 45 45 46 41 31 37 37 39 46 46 52 57 54
26 27 24 29 24 22 32 38 39 35 30 28 33 35 42 44 42 46 32 34 31 35 33 33 34 33 37 42 43 46 44 43 46 47 52 43 38 42 39 35 46 46 49 48 56
28 30 28 29 27 29 37 43 42 34 22 25 34 39 45 43 45 48 41 38 35 36 34 31 36 32 38 42 42 45 48 57 58 52 49 53 36 34 43 39 34 39 46 48 54
31 36 32 30 28 40 50 56 39 20 23 36 38 46 45 46 47 50 46 42 36 34 39 36 37 32 35 40 45 45 51 54 61 57 49 53 34 37 36 34 29 31 33 37 43
54 43 39 37 33 44 63 67 29 17 21 25 39 44 56 53 49 49 45 41 36 34 36 36 33 39 38 37 43 51 48 48 56 49 45 45 38 33 31 29 28 31 38 36 38
73 60 50 46 46 54 66 65 26 21 21 32 33 37 50 57 56 50 45 38 38 35 32 36 40 39 39 35 36 43 52 53 49 54 63 41 42 35 40 34 39 37 39 41 39
92 80 60 56 59 66 67 49 33 32 25 30 39 37 44 64 57 55 44 40 39 39 38 38 36 46 38 34 38 38 43 49 49 57 58 53 39 49 40 37 38 40 37 34 34
97 89 71 63 69 59 58 30 38 36 34 35 43 49 41 56 67 62 54 47 36 36 35 32 38 45 40 33 33 47 50 48 52 50 50 49 45 45 41 41 39 37 39 37 32
96 92 90 70 69 58 33 26 44 50 38 50 55 52 61 56 70 63 57 53 43 38 40 35 41 43 48 39 38 37 43 52 52 51 51 65 52 44 44 38 39 40 38 35 31
98 96 94 84 64 47 30 37 42 36 51 47 58 55 48 56 69 64 70 60 48 34 36 38 39 41 38 38 43 37 35 40 48 56 48 45 45 40 41 47 52 49 47 35 30
96 76 70 76 65 52 49 39 40 37 41 59 53 55 53 49 58 65 70 67 61 44 43 43 45 42 34 42 42 40 39 35 38 42 48 43 43 37 41 45 42 47 49 42 33
93 73 72 70 67 63 52 53 49 35 41 41 57 53 56 49 53 53 64 72 68 62 46 47 51 42 41 40 43 41 36 35 39 40 35 37 40 41 45 42 38 33 32 32 28
86 75 77 71 77 72 51 45 44 42 44 53 54 59 57 55 68 70 74 77 79 74 64 56 55 50 49 44 46 51 32 35 35 36 36 39 40 45 45 43 38 29 28 30 28

GFSSW_prec_cthk_078.txt.gz
RH
31 31 32 34 35 33 31 28 25 25 24 24 25 25 23 21 19 18 20 27 25 18 16 17 16 17 20 21 24 23 32 40 43 35 35 32 39 41 47 42 60 83 61 58 63
26 26 26 27 28 28 30 32 31 29 28 26 26 25 26 24 21 22 25 25 23 18 16 19 20 21 24 31 24 25 35 44 40 34 33 27 32 40 45 50 69 71 90 69 61
27 26 25 25 24 25 26 29 30 31 29 28 27 27 26 26 26 32 28 25 23 19 19 20 21 19 24 36 36 30 32 40 39 39 32 26 38 49 53 60 52 50 49 60 64
29 28 28 27 26 24 25 26 28 30 30 30 27 27 27 28 33 34 31 27 25 20 20 20 19 18 23 34 42 41 29 32 39 37 32 32 51 50 55 67 53 43 45 56 67
34 31 29 29 28 28 27 26 26 27 28 29 30 29 29 33 36 35 32 29 27 23 21 21 20 20 24 36 44 37 36 31 39 36 30 38 35 54 59 70 59 40 39 50 75
31 32 31 29 29 28 27 29 27 27 29 29 28 29 31 39 35 36 34 31 28 25 23 21 22 28 28 30 35 33 35 35 45 46 56 45 50 54 64 69 59 43 46 53 70
25 22 25 29 29 29 28 28 27 26 27 27 27 28 32 34 31 36 35 34 31 30 26 24 26 25 26 34 37 36 30 51 48 47 54 51 47 46 49 52 64 49 47 55 59
26 26 22 15 19 24 25 27 27 27 27 27 28 27 31 30 33 35 34 33 34 33 27 28 28 23 26 28 29 34 43 58 53 46 46 50 41 48 45 57 58 54 52 59 59
25 25 24 19 14 12 19 21 24 24 25 26 25 34 33 32 32 31 33 34 35 32 31 27 26 25 29 35 40 44 53 54 50 54 46 54 43 54 60 58 57 48 44 53 65
24 23 23 23 20 14 11 13 17 21 27 34 31 34 33 28 35 33 32 34 35 34 34 27 27 26 30 36 45 52 57 54 51 50 42 44 40 54 62 55 60 46 42 43 55
18 20 22 22 21 16 11 11 17 32 42 39 38 33 30 33 32 34 34 38 35 38 37 30 32 27 33 46 45 42 43 43 41 46 46 46 33 47 60 50 47 43 40 39 43
16 16 18 18 19 13 12 15 20 36 28 22 25 23 30 33 36 34 40 40 36 40 42 36 36 31 36 49 42 37 36 37 42 43 44 36 38 48 49 52 43 46 39 39 41
15 17 17 17 16 12 14 10 22 31 32 22 23 22 25 29 32 34 37 38 40 42 44 41 31 41 35 40 36 35 37 48 50 46 48 42 39 45 50 61 52 41 47 42 38
14 16 18 17 18 21 18 27 38 34 31 16 17 23 28 30 28 34 37 40 41 43 42 40 33 39 39 37 38 40 43 48 42 46 48 50 41 43 43 52 51 46 45 51 49
16 16 19 19 21 24 48 35 38 37 27 15 22 26 32 29 31 34 33 39 43 45 47 39 34 33 38 34 39 40 44 45 38 42 48 51 48 41 42 43 54 54 57 51 50
19 16 21 21 22 19 44 55 39 39 27 18 25 27 28 31 32 35 33 36 45 45 45 37 35 37 34 37 35 40 42 42 38 43 47 47 45 48 47 46 40 46 52 54 53
21 20 22 26 28 34 39 64 52 34 10 13 26 31 29 32 33 36 39 38 44 45 42 35 32 36 35 36 40 41 44 49 61 58 51 48 42 46 41 41 41 38 42 48 53
23 27 26 29 29 36 45 65 62 18 12 17 27 28 36 37 38 37 40 37 43 41 41 41 40 33 36 36 39 40 43 49 64 84 72 60 46 35 44 41 35 29 27 40 47
35 40 40 39 38 43 56 66 56 19 12 17 37 39 48 46 42 41 42 41 44 46 42 45 38 35 38 34 38 48 45 39 51 56 64 55 49 42 33 38 31 30 34 37 38
70 70 61 65 60 55 67 58 34 26 18 31 29 43 53 55 50 44 43 41 44 53 50 44 48 42 39 39 34 43 56 55 49 60 61 40 44 53 48 43 40 37 39 44 46
95 86 72 81 84 74 61 44 24 21 30 47 45 42 40 44 65 51 46 44 46 57 55 46 50 48 42 43 38 35 41 51 46 51 56 56 47 49 43 48 44 43 42 37 36
98 86 80 90 91 69 52 40 25 22 25 44 59 52 45 51 55 69 47 46 55 57 54 46 51 49 49 41 37 37 37 39 48 53 61 59 56 45 48 45 41 42 36 36 36
96 92 89 89 80 70 56 43 40 42 46 38 61 53 54 62 58 64 63 50 55 57 54 48 51 58 50 50 46 36 41 48 48 45 47 62 53 45 41 39 34 39 37 39 36
98 93 90 87 73 72 71 57 47 38 42 33 54 61 65 65 76 64 70 54 59 60 58 56 53 52 52 53 42 41 39 44 53 61 54 52 51 44 43 42 44 40 43 53 49
97 83 76 79 77 79 70 66 49 40 32 37 48 58 74 74 81 70 73 65 64 63 58 58 65 53 49 43 47 42 39 34 33 38 44 42 48 41 44 38 38 41 49 47 52
96 81 79 80 83 84 75 65 61 43 39 28 44 53 63 88 65 62 68 77 75 70 67 59 63 62 57 45 42 48 47 42 36 33 36 43 40 39 34 37 43 46 43 37 40
93 83 89 82 85 75 65 73 63 57 45 38 27 32 62 71 81 76 64 57 82 78 72 67 63 52 56 52 46 50 47 43 40 39 39 41 41 42 45 48 45 45 43 33 29

GFSSW_prec_cthk_081.txt.gz
RH
23 24 25 24 24 24 24 25 25 25 24 20 19 20 21 20 20 21 20 22 26 25 20 19 18 16 17 18 19 23 28 32 39 42 40 41 38 41 51 53 58 65 62 60 96
28 28 26 26 25 24 24 23 22 22 24 23 22 21 21 20 21 22 24 26 26 26 20 20 21 19 20 21 23 24 27 32 40 42 40 39 38 40 44 55 70 65 62 59 80
31 30 30 30 28 26 24 24 24 23 23 23 24 24 23 22 23 28 29 30 28 25 22 22 22 20 19 23 27 33 31 28 33 39 42 37 34 42 48 57 68 61 68 55 56
37 37 35 32 30 30 28 27 24 23 24 24 25 26 25 24 28 30 31 32 30 26 22 22 22 19 18 24 30 37 35 36 32 36 41 32 37 41 44 54 53 52 45 54 50
32 31 33 34 34 32 31 29 29 26 26 24 25 25 25 27 29 24 32 34 33 30 25 22 23 20 19 23 29 36 37 34 36 42 42 37 46 40 43 47 58 49 40 46 52
24 24 23 24 26 29 30 30 30 28 27 26 26 26 29 34 26 31 34 34 34 31 28 24 24 23 24 25 26 32 34 31 30 42 43 52 54 50 44 53 54 49 46 48 53
27 27 24 21 17 18 22 27 29 27 27 27 24 25 27 30 23 27 34 35 34 32 29 26 27 26 25 23 24 28 32 33 41 50 47 47 50 55 54 52 57 56 50 46 53
35 29 28 27 25 18 16 14 19 23 24 24 23 24 25 27 25 25 28 31 33 34 33 30 31 29 24 21 22 31 33 41 45 54 45 42 46 49 57 54 54 51 52 48 59
35 37 38 37 30 24 21 17 13 13 17 19 23 26 28 32 30 29 27 32 31 34 37 34 32 30 25 25 29 39 47 49 48 53 51 45 46 41 52 50 52 55 53 46 57
26 23 23 22 23 24 21 15 12 12 13 22 30 35 29 27 30 32 28 30 31 35 38 38 33 31 26 27 37 38 48 49 49 51 52 51 51 47 49 53 48 54 47 38 45
14 19 18 18 17 18 15 11 18 24 34 29 26 25 23 27 29 30 30 27 29 32 44 40 38 35 24 26 33 40 47 52 41 47 53 51 46 46 52 56 56 52 50 37 38
12 13 15 16 15 13 13 9 18 39 33 28 24 30 25 24 28 30 32 30 29 34 41 43 41 32 29 33 33 44 47 39 35 46 52 46 42 40 53 56 57 53 49 41 35
12 13 13 14 14 16 18 22 18 28 32 23 17 14 13 15 17 22 32 32 33 34 41 45 42 39 38 37 33 38 39 36 38 43 44 44 42 47 47 54 59 51 45 44 39
12 14 15 15 15 18 29 28 26 32 36 17 10 12 15 16 18 20 24 34 34 31 38 42 47 45 43 40 37 33 37 43 44 47 46 45 48 41 46 54 55 56 54 51 44
11 17 18 16 15 16 29 35 45 40 43 7 13 16 18 19 18 20 25 32 36 34 39 37 45 44 42 39 36 32 39 44 44 46 41 47 56 47 46 50 52 46 46 51 49
14 14 21 17 15 21 25 49 50 51 44 10 15 20 22 20 21 24 27 29 34 38 37 38 46 43 38 36 32 30 37 44 45 47 47 45 59 52 49 46 47 42 45 45 41
21 16 22 21 16 25 25 44 73 60 12 8 16 25 27 23 20 26 29 29 33 39 40 40 43 45 41 40 34 37 37 53 62 60 55 58 62 48 47 40 41 39 44 42 40
24 23 24 26 18 26 29 44 76 37 23 8 11 18 31 25 27 30 32 34 32 36 43 48 49 44 38 38 34 34 37 58 61 72 78 63 63 52 42 44 45 46 43 40 43
31 33 27 29 26 32 40 53 41 29 27 22 20 33 32 38 35 36 34 33 32 35 44 47 45 42 38 37 35 37 43 39 60 66 79 71 52 50 45 47 43 38 34 38 40
45 45 38 36 43 48 55 39 28 16 17 23 35 54 57 62 58 53 46 32 34 34 42 46 51 40 42 40 38 38 41 55 59 78 84 59 62 56 48 46 43 42 40 37 40
63 65 61 71 77 79 57 43 36 28 25 27 41 51 60 71 70 82 63 44 37 37 41 47 51 46 49 44 36 40 43 56 60 62 65 64 55 48 50 49 44 44 42 40 38
98 91 86 93 94 75 62 57 47 43 35 29 27 44 60 62 72 70 73 64 46 43 42 47 56 58 53 52 45 41 43 42 69 64 65 64 56 51 47 45 45 43 42 41 37
97 96 94 95 83 77 72 65 62 59 44 32 29 45 52 64 74 70 78 58 61 50 50 51 59 68 60 52 45 46 45 41 43 49 56 71 60 50 54 51 48 42 41 44 41
98 95 94 89 80 79 81 71 67 63 54 43 30 41 52 57 72 72 86 71 63 64 58 52 57 62 60 54 52 54 46 46 42 53 51 55 47 51 53 48 44 45 41 42 45
94 85 83 82 80 78 76 69 70 65 63 51 32 30 51 64 68 73 86 92 69 64 66 57 57 63 56 52 57 57 49 44 41 42 55 54 57 48 47 46 44 41 42 40 43
91 84 84 78 82 83 77 74 76 68 66 57 38 25 43 58 66 72 80 93 90 71 68 60 59 64 61 57 55 57 57 51 41 41 44 50 48 45 42 45 42 43 45 45 45
92 90 89 83 83 83 75 74 76 72 65 61 42 29 33 46 62 66 86 94 94 83 70 67 69 67 69 59 63 63 56 48 48 51 43 40 36 35 41 41 39 44 41 43 44

GFSSW_prec_cthk_084.txt.gz
RH
24 23 23 22 22 22 22 22 21 20 20 20 19 17 16 15 16 18 18 22 22 28 26 21 20 20 20 19 21 21 27 31 34 32 33 36 37 45 46 46 48 55 57 52 59
31 28 27 27 26 25 25 25 24 22 21 21 20 20 19 18 19 20 23 24 23 25 27 22 22 24 21 21 22 23 25 28 31 31 32 34 36 40 43 44 52 51 49 44 52
38 38 34 31 31 31 29 28 26 24 23 22 22 22 21 22 22 25 26 27 26 27 26 23 24 23 20 19 23 26 26 29 33 33 34 33 35 37 39 44 47 52 53 38 48
33 33 35 35 35 35 33 31 28 26 25 23 21 22 23 25 25 30 29 29 31 30 28 25 25 25 21 19 25 25 27 33 35 37 36 34 34 42 49 46 51 50 54 46 47
27 28 28 29 30 31 34 35 33 30 28 25 23 22 22 26 28 25 26 27 31 33 30 28 27 26 24 22 24 27 29 29 36 39 41 40 43 44 49 53 59 57 46 43 42
28 25 22 20 20 22 24 27 31 29 27 26 23 23 24 35 25 28 29 30 31 32 30 29 25 28 28 23 24 24 26 26 28 35 42 44 47 48 48 57 60 56 44 36 34
47 46 35 28 20 18 16 16 18 21 24 26 25 24 24 29 23 24 31 32 30 33 31 28 26 32 29 26 23 23 25 24 32 40 43 44 41 41 44 52 55 54 41 37 40
42 48 48 38 33 26 20 16 15 15 16 18 20 22 24 29 23 24 21 27 32 33 31 27 31 35 31 28 24 24 28 32 39 43 50 45 44 40 42 49 57 54 44 36 39
27 30 32 38 36 35 30 27 18 16 16 15 17 20 20 24 27 29 27 27 31 32 31 29 34 38 32 31 29 28 37 40 41 43 51 44 46 45 45 51 55 54 44 38 38
19 19 20 22 30 30 23 23 19 27 20 19 26 30 19 19 23 27 29 30 30 31 32 31 36 36 37 33 33 36 40 42 41 40 50 50 44 49 44 46 56 66 46 41 38
15 16 14 13 13 16 28 18 21 29 27 31 37 29 19 20 22 26 30 30 29 29 33 34 36 36 33 28 24 38 41 41 38 37 46 50 43 49 47 51 61 64 46 47 36
11 11 12 11 10 13 20 22 38 42 35 21 21 25 23 17 29 20 28 31 29 31 33 34 35 35 31 29 28 41 44 42 35 35 40 48 45 48 49 51 57 59 47 48 41
11 11 14 11 10 15 22 20 27 34 44 21 13 14 13 16 21 18 26 29 30 32 31 31 37 36 37 36 41 42 40 39 37 36 40 44 41 46 49 49 56 59 53 45 42
13 12 13 14 11 14 19 25 29 38 36 21 12 11 11 12 16 12 15 23 30 32 34 31 37 38 44 44 46 44 39 41 39 39 44 43 44 42 45 48 50 52 57 52 49
14 13 13 18 13 13 17 24 33 43 21 7 8 9 16 14 12 13 12 16 24 30 33 28 35 38 46 46 48 42 42 41 40 40 41 45 46 41 46 52 51 49 52 52 51
14 16 17 18 16 15 19 22 48 50 40 12 10 15 16 18 17 21 19 17 18 32 33 31 35 37 40 44 46 42 44 41 46 43 47 50 50 44 48 45 47 46 49 49 52
18 21 22 19 17 19 20 33 55 58 17 10 12 26 29 22 19 22 28 24 25 34 34 36 33 34 40 44 44 47 45 50 55 52 51 52 50 43 50 44 41 43 42 44 52
24 24 24 19 21 22 27 37 61 29 23 14 18 27 36 36 31 26 27 31 28 31 36 39 41 36 36 42 47 48 46 55 57 58 56 53 50 42 47 41 38 41 43 44 49
34 31 28 23 25 30 37 45 25 23 37 34 27 29 26 44 48 45 36 31 31 29 37 42 37 33 38 47 46 46 50 41 55 57 61 58 57 47 44 42 41 42 42 46 45
46 42 31 34 36 41 44 32 22 15 15 20 34 38 39 42 57 63 62 40 35 34 33 37 42 37 42 47 45 46 47 51 59 70 65 54 61 55 48 44 44 42 45 45 45
51 49 40 43 51 57 49 37 25 21 21 27 22 25 29 48 61 65 67 56 54 53 44 38 43 44 48 48 46 48 49 50 53 59 62 61 52 50 43 43 46 43 43 42 43
56 56 52 52 62 54 50 46 42 43 47 44 35 28 25 40 55 65 67 65 65 66 59 45 47 50 48 47 46 46 45 45 55 59 55 61 52 45 44 43 43 43 41 44 41
62 60 62 68 66 69 74 77 75 70 66 61 53 43 32 46 56 57 61 70 79 80 59 52 52 61 51 50 50 52 49 50 53 51 58 79 59 47 48 50 48 46 44 43 42
71 75 80 86 79 81 84 84 80 75 75 72 60 49 45 41 43 61 60 67 81 84 73 65 59 51 46 48 50 55 54 49 56 58 50 59 53 45 48 49 54 50 45 46 44
84 83 81 82 80 82 86 79 80 78 75 74 64 54 46 47 40 48 56 73 79 86 88 78 63 55 50 53 54 58 59 54 54 54 51 42 41 40 44 49 51 49 48 47 43
88 84 82 78 78 87 83 78 77 74 76 69 67 59 50 46 39 41 72 82 85 85 95 79 70 60 57 53 58 69 66 60 59 56 53 50 43 39 46 43 43 47 47 44 44
89 85 85 79 82 82 78 80 75 75 73 66 65 66 57 40 36 38 64 78 88 92 97 96 81 68 63 56 67 76 64 62 60 55 53 53 46 43 43 45 43 43 41 38 39

GFSSW_prec_cthk_090.txt.gz
RH
36 35 34 34 32 30 28 25 22 20 19 18 19 19 19 18 19 19 17 16 17 19 20 23 21 23 21 24 25 25 24 24 27 28 27 28 29 30 31 36 38 39 45 50 48
32 33 34 35 36 35 33 31 28 25 24 22 21 22 22 21 20 21 22 20 22 21 22 26 22 24 24 26 29 28 27 22 25 27 29 29 27 30 35 41 44 45 48 52 46
28 28 30 31 33 34 35 34 33 30 27 26 25 25 25 25 23 23 27 26 26 27 26 25 24 25 27 25 29 30 27 23 23 25 27 29 29 37 41 46 44 47 48 49 45
31 30 30 31 32 32 32 33 33 33 31 28 27 29 28 28 27 28 29 29 30 29 27 26 26 25 27 27 24 29 28 25 21 23 26 28 36 41 44 45 48 50 49 46 40
33 34 40 41 42 38 34 32 32 33 31 28 26 27 28 29 32 27 26 25 28 31 30 28 28 28 27 27 26 26 27 26 24 22 23 25 38 39 42 46 49 48 47 46 42
27 27 28 31 37 38 39 39 41 35 30 26 23 25 26 28 34 30 29 30 29 28 32 31 31 28 26 28 28 27 28 27 23 21 23 28 34 42 42 46 49 50 46 45 42
28 27 29 26 23 32 36 38 37 37 35 31 22 20 22 25 27 30 31 29 27 32 31 33 34 33 29 29 28 31 29 27 22 19 23 30 38 46 46 44 49 49 50 43 44
26 23 25 27 34 30 29 34 36 37 35 32 28 21 20 18 18 19 24 31 29 29 37 36 36 34 31 31 31 33 31 31 25 31 33 37 38 43 44 45 52 53 51 45 44
23 23 24 23 22 25 28 30 32 40 39 33 32 27 23 19 16 20 24 28 34 32 33 38 35 36 34 36 37 38 38 31 31 33 36 38 38 41 40 52 54 53 51 45 44
18 19 21 21 21 20 19 20 21 32 34 38 40 36 26 25 23 20 25 27 30 35 31 33 36 39 39 38 42 46 35 33 33 36 39 39 36 37 40 49 53 53 51 47 44
10 11 12 13 16 17 15 12 18 26 30 34 40 38 33 32 36 32 26 30 31 32 32 34 39 40 38 38 40 40 33 37 33 38 40 40 34 32 39 47 52 52 53 51 47
11 10 10 9 9 10 15 18 28 35 34 24 20 30 23 33 35 27 33 31 31 33 34 37 37 34 38 40 41 41 37 35 35 33 41 41 37 29 37 44 47 50 49 50 47
12 11 10 10 10 9 10 17 28 29 35 20 20 22 24 18 29 28 22 33 33 32 30 36 34 35 37 41 44 41 40 38 35 38 44 42 38 31 34 41 47 49 48 46 45
15 13 12 11 10 11 11 15 15 32 41 22 19 18 21 27 19 18 19 18 25 31 27 30 31 34 41 40 43 44 39 37 35 48 54 44 49 33 33 37 45 47 48 47 45
19 15 13 12 11 11 12 10 18 36 29 12 17 21 19 20 22 18 20 21 20 23 29 33 28 32 33 40 43 42 41 40 47 54 54 49 51 34 36 37 38 43 44 45 43
20 17 15 14 13 12 12 11 29 43 43 18 23 26 22 21 23 24 22 23 22 21 25 29 30 30 34 35 41 48 46 48 55 60 61 49 51 39 32 37 38 42 41 39 38
20 21 21 18 16 16 16 14 41 51 19 26 26 25 24 25 25 29 22 25 22 20 22 22 25 29 32 39 44 43 53 61 64 67 60 50 61 42 28 30 35 41 41 34 33
22 22 22 20 19 21 19 22 51 27 32 28 25 30 31 27 26 31 35 27 27 28 28 17 15 17 28 34 43 45 48 63 64 64 57 62 65 44 28 29 33 40 42 36 30
26 25 24 19 23 27 28 33 25 29 25 27 23 30 35 32 23 27 41 51 45 39 37 38 26 21 19 22 36 44 52 48 56 66 70 57 54 45 29 26 31 33 43 38 35
34 35 31 29 33 36 40 31 22 23 29 26 22 20 27 26 27 28 31 57 52 50 46 46 43 35 34 33 32 37 43 51 63 69 72 61 58 50 36 33 34 36 42 42 39
46 50 41 45 47 52 47 38 29 20 22 21 27 21 18 19 22 36 36 40 53 57 49 56 55 42 39 36 38 43 46 49 53 61 61 62 58 48 38 32 39 43 43 42 39
53 58 49 51 61 58 54 44 33 28 25 28 30 27 22 21 23 23 37 34 33 46 55 61 71 62 40 38 42 44 45 49 55 56 63 59 50 44 39 36 42 40 43 43 40
58 59 60 68 67 63 56 50 43 37 31 35 38 38 37 37 40 36 33 32 48 47 59 65 84 70 49 37 41 46 48 52 56 56 52 65 54 44 43 43 45 47 45 43 40
64 69 69 74 75 70 66 60 54 41 39 40 41 40 44 45 51 52 47 35 40 45 43 55 68 76 75 64 65 62 48 50 54 63 52 48 53 50 46 43 42 46 49 47 45
73 67 68 72 76 74 71 62 58 56 50 55 54 52 69 72 67 58 50 46 38 34 45 65 63 69 73 70 73 64 59 51 53 46 56 50 53 50 47 42 45 50 53 45 52
73 75 72 70 77 78 71 61 57 53 57 71 88 92 94 85 74 68 64 58 51 44 66 69 80 77 86 72 77 67 49 54 50 52 52 54 54 50 46 46 47 53 54 50 49
72 81 86 79 80 76 62 62 59 73 89 90 93 95 90 83 82 77 75 68 61 48 52 87 85 83 80 78 94 85 37 39 49 53 55 61 57 53 47 49 52 48 43 42 43

GFSSW_prec_cthk_093.txt.gz
RH
29 28 29 30 30 30 30 30 30 31 29 27 25 24 22 21 20 20 20 20 18 17 18 19 19 20 21 20 22 25 27 26 23 24 24 25 26 26 27 31 34 35 36 41 46
25 25 25 25 26 27 27 28 28 29 30 31 30 28 25 25 26 24 26 24 21 22 21 21 22 22 22 23 23 25 28 25 23 24 25 24 26 26 30 36 36 38 41 43 47
26 26 25 23 24 25 25 25 26 27 28 29 30 32 29 27 28 27 31 30 28 25 24 26 26 23 25 26 25 25 30 25 24 25 25 25 24 28 34 38 39 40 43 45 46
26 26 26 27 27 28 28 28 26 26 26 29 29 30 31 30 30 32 33 34 32 32 30 29 27 25 27 27 26 24 29 28 25 25 25 25 25 29 36 35 38 40 44 44 44
24 20 20 21 20 22 27 28 28 27 26 28 31 29 29 31 32 33 34 32 31 32 31 31 28 27 27 27 26 24 25 27 27 23 24 25 23 28 33 35 36 41 47 43 41
22 20 19 19 19 20 20 20 23 26 28 28 30 31 31 30 30 31 32 36 35 33 31 32 31 30 29 29 28 27 26 29 31 23 24 25 22 29 33 35 34 44 50 47 41
21 19 19 19 19 19 21 24 23 23 26 24 26 31 31 34 26 26 29 33 33 31 32 30 32 33 32 30 29 29 30 31 31 23 23 22 24 32 36 36 37 45 53 50 44
17 16 15 16 17 18 19 20 23 28 29 28 29 30 30 34 32 26 26 24 31 32 33 35 33 33 35 34 33 33 32 34 32 25 27 33 28 37 36 39 39 45 53 53 46
16 16 15 16 16 16 17 19 19 21 27 30 31 33 34 37 36 30 30 29 27 32 33 37 38 38 40 40 37 33 30 37 33 26 32 38 32 36 37 40 40 46 49 50 47
13 12 11 11 10 10 11 13 17 22 25 30 30 33 26 32 38 39 34 36 30 26 30 35 42 42 42 43 35 35 40 37 33 30 31 38 34 32 34 39 39 43 48 46 48
15 11 11 10 9 9 8 7 10 18 21 22 22 28 24 21 29 40 47 37 38 31 28 33 38 43 40 41 38 39 39 37 34 35 30 33 35 32 32 35 40 44 47 47 49
19 13 11 10 10 9 9 13 21 23 24 17 15 22 18 22 35 26 46 44 38 33 32 36 32 36 39 40 40 39 40 38 35 35 34 31 35 34 33 32 38 41 46 46 48
20 17 12 10 10 10 11 15 14 19 27 15 17 19 18 20 25 26 24 46 48 36 29 30 34 34 36 39 42 41 42 42 40 38 35 33 34 37 33 32 36 42 42 45 45
26 21 15 12 12 12 12 13 12 24 30 19 19 20 23 21 20 17 29 21 36 48 44 36 30 34 38 39 40 39 40 41 43 43 37 32 35 36 37 29 32 38 42 44 46
31 25 20 15 14 14 12 11 12 28 15 13 20 23 21 24 22 22 22 30 23 32 34 41 42 34 32 36 44 41 43 43 44 44 41 36 44 37 37 30 31 32 38 41 43
31 27 24 20 17 16 13 12 22 28 21 18 22 24 22 24 26 29 24 26 34 19 31 27 29 40 37 32 34 44 47 49 49 50 49 42 49 37 39 31 28 33 37 41 39
30 28 30 25 19 18 15 14 37 33 15 27 24 21 26 25 31 31 31 32 27 40 25 26 28 21 31 36 40 43 46 50 57 57 47 46 51 40 41 36 28 32 36 40 37
40 32 29 24 21 21 18 20 45 19 29 23 24 25 32 27 26 28 38 36 36 32 36 26 18 29 24 27 39 46 47 47 53 56 48 59 53 41 41 35 29 34 37 40 40
36 33 28 21 22 23 22 26 19 27 23 22 17 18 27 27 24 22 35 51 46 39 39 46 31 25 20 21 24 42 51 47 50 57 60 53 51 43 36 42 29 28 34 43 44
34 36 27 25 28 30 31 22 19 24 28 23 21 18 19 19 26 31 25 51 52 45 42 47 52 35 32 26 21 30 38 54 59 57 52 48 52 44 38 43 39 29 33 36 44
46 42 35 37 40 44 40 32 27 22 23 25 28 28 26 22 20 25 31 34 49 39 48 50 56 44 40 38 37 36 33 42 51 55 50 47 46 45 37 42 38 33 35 39 44
52 53 45 50 52 50 47 36 28 26 30 29 31 28 25 19 16 17 17 29 29 36 45 61 59 62 46 43 48 46 45 42 47 47 57 51 41 41 39 43 40 37 39 44 43
59 53 54 61 56 56 48 42 44 39 36 34 38 36 35 32 30 28 30 24 40 44 43 42 66 66 51 42 47 54 60 57 52 52 45 54 47 46 44 45 47 44 42 46 45
65 63 62 65 60 58 55 55 56 52 51 47 42 41 47 46 43 42 42 36 38 42 46 44 45 44 50 68 57 55 58 64 72 63 49 43 43 44 42 40 47 44 42 43 47
67 64 57 61 58 65 68 66 65 65 62 60 54 45 43 46 46 47 47 46 41 38 37 45 54 50 47 45 50 58 53 51 58 57 55 39 44 46 44 39 47 47 45 49 49
66 62 61 61 59 65 74 71 69 71 66 59 57 56 67 71 72 75 72 65 60 50 54 62 66 64 56 50 49 47 54 52 50 55 53 47 41 42 48 44 44 45 48 49 55
65 65 73 62 67 75 75 75 72 76 64 60 63 86 96 94 95 90 83 76 69 63 56 53 57 75 64 53 58 60 45 61 51 42 39 44 40 45 45 44 46 49 49 46 50

GFSSW_prec_cthk_096.txt.gz
RH
26 25 25 24 24 23 24 24 24 24 26 28 28 29 28 29 28 26 23 21 21 21 21 20 20 19 19 21 22 21 23 24 23 21 20 24 22 24 25 26 29 30 29 36 40
24 24 23 23 22 22 21 22 22 22 23 24 26 27 28 29 32 32 30 27 25 23 24 25 22 21 20 22 22 22 22 22 24 23 22 24 24 25 24 28 30 34 36 38 42
25 24 23 23 23 22 22 22 21 21 22 23 23 24 24 25 30 36 35 31 29 27 30 29 26 24 23 24 24 23 22 22 25 24 24 22 23 26 25 29 32 35 35 39 42
25 22 20 20 19 18 18 17 16 19 21 21 21 22 23 24 26 34 39 38 34 32 31 33 31 29 27 27 26 25 24 24 25 26 26 22 23 23 25 29 33 34 33 38 40
22 19 16 15 14 14 14 14 15 15 16 16 20 24 24 26 32 28 31 35 33 32 35 35 35 31 29 28 29 28 26 26 26 28 26 23 22 22 22 28 31 33 34 40 41
22 19 17 15 14 14 14 13 13 14 16 15 15 19 24 27 31 34 27 33 40 41 38 39 36 34 29 30 30 28 29 26 27 28 27 26 23 23 23 28 32 34 34 38 39
19 17 15 14 13 13 13 13 13 13 13 15 17 19 24 28 29 33 33 27 33 40 39 38 39 37 34 33 33 30 30 27 28 30 26 25 24 22 23 33 35 37 38 39 40
16 14 14 13 13 13 12 11 11 11 11 12 13 19 23 22 27 33 33 34 26 29 37 36 38 37 37 37 36 33 33 31 30 31 27 28 26 31 31 34 33 36 37 40 42
18 15 13 12 10 10 9 9 8 9 11 14 17 19 17 17 24 33 37 40 33 32 27 40 42 41 41 39 37 35 33 31 35 34 28 28 28 35 34 31 33 35 37 41 43
22 18 12 10 9 9 8 7 7 9 12 13 17 18 14 15 19 23 35 45 47 40 33 33 43 44 44 43 39 37 36 39 36 35 34 28 29 30 32 29 31 33 37 39 42
22 20 13 10 10 9 8 8 13 18 13 10 8 13 11 15 18 19 29 35 47 50 39 31 34 42 45 44 44 41 39 38 35 40 36 32 25 28 31 31 30 31 35 39 41
27 22 18 12 11 10 10 15 17 16 19 12 11 12 13 15 20 13 16 32 40 50 43 43 35 27 37 45 46 44 42 38 38 41 38 33 28 26 31 32 30 30 32 37 41
33 25 21 15 12 11 12 15 13 18 24 16 16 18 20 18 18 15 14 16 30 42 51 50 40 30 31 38 43 42 41 42 41 44 40 35 30 24 26 32 30 29 29 35 38
34 33 26 18 15 14 17 13 13 22 26 17 20 24 24 23 21 19 19 14 19 28 39 52 49 38 29 35 37 38 40 43 44 43 42 39 32 24 30 31 32 29 28 33 36
36 37 34 25 19 20 15 13 14 27 16 18 24 25 23 24 22 22 23 23 17 16 32 43 48 50 34 26 32 39 41 41 45 44 43 42 39 27 29 36 30 27 28 32 36
38 38 36 31 22 19 16 15 24 34 19 19 24 23 23 25 25 27 27 26 27 21 19 31 41 46 52 40 32 31 43 51 51 49 51 45 38 29 29 39 31 28 28 32 36
36 35 35 32 31 21 19 22 36 25 17 25 23 21 23 21 27 22 31 33 29 32 25 20 28 32 38 43 54 49 48 54 61 58 51 41 41 31 31 39 37 30 30 33 38
29 33 35 28 27 24 25 27 41 20 25 26 21 21 26 23 21 20 35 33 35 35 29 25 25 32 30 30 28 53 53 50 50 51 48 47 45 35 34 36 37 29 32 34 39
40 38 31 28 21 23 26 24 17 22 25 20 14 11 16 22 21 23 26 49 44 37 43 41 33 30 33 31 29 31 48 45 51 47 54 49 50 43 35 36 39 32 29 33 38
41 41 29 31 23 28 28 20 18 19 21 19 14 16 17 23 17 23 24 36 51 40 42 44 45 37 36 38 28 36 35 48 56 58 54 43 44 46 39 35 38 38 29 31 35
52 47 38 30 32 44 36 23 21 21 19 21 20 24 27 26 18 16 23 25 39 37 37 52 49 43 40 38 36 28 39 44 46 52 52 50 45 47 43 35 39 38 36 31 35
55 52 41 45 50 48 40 35 28 23 24 22 24 27 31 27 22 16 14 19 24 28 35 49 52 51 44 45 47 47 44 32 32 40 50 49 47 50 44 41 42 38 39 38 39
59 56 51 61 54 48 43 42 38 35 34 28 28 30 30 30 26 20 21 20 25 39 42 43 56 55 49 45 49 52 55 53 48 43 40 52 52 46 49 40 40 43 42 43 44
67 65 64 63 58 53 50 48 44 43 44 44 41 43 45 44 44 37 40 32 35 42 48 44 42 41 42 63 58 50 50 51 57 61 49 42 42 40 43 43 44 46 45 44 47
66 59 59 61 57 63 62 53 51 54 58 61 56 47 43 40 38 42 40 36 34 41 45 46 46 45 40 31 36 42 45 43 48 52 58 51 51 43 42 40 44 46 49 49 50
67 64 67 57 59 56 60 57 61 71 69 67 68 67 68 56 45 54 67 51 53 53 49 61 49 55 52 42 34 31 27 35 42 42 43 41 39 45 47 45 40 43 45 48 51
71 70 68 60 58 66 62 66 74 82 71 67 70 72 66 78 91 89 82 70 64 63 61 60 57 55 45 53 52 46 27 23 20 30 44 47 38 34 36 38 41 42 50 49 49

GFSSW_prec_cthk_099.txt.gz
RH
22 22 21 21 21 21 20 19 19 20 22 23 22 21 21 22 25 27 29 28 28 24 21 23 22 21 20 20 20 21 21 23 23 24 21 21 23 22 24 24 25 30 36 33 36
24 22 22 21 21 20 20 20 20 21 21 20 20 20 18 18 20 24 27 30 30 30 25 28 27 24 22 22 21 20 21 22 25 22 20 22 24 23 25 25 26 34 38 44 44
28 25 23 22 20 19 18 18 18 17 17 16 17 19 19 19 22 21 25 29 33 31 30 32 31 28 25 24 23 22 20 22 24 24 21 22 24 24 24 24 27 33 36 39 45
25 23 20 19 17 15 14 14 14 14 13 14 14 14 13 18 24 20 22 28 30 33 35 36 35 33 29 27 27 24 23 23 25 24 23 22 23 23 23 22 23 25 30 36 40
26 23 21 19 18 16 15 14 13 13 12 11 12 13 13 17 23 21 24 24 26 32 38 39 40 38 36 34 33 29 25 26 26 27 26 24 23 23 22 20 22 25 28 32 38
25 21 20 17 16 15 14 13 13 11 10 10 10 10 15 20 20 22 21 23 24 27 37 41 44 44 40 38 35 31 29 28 28 26 27 25 23 26 23 21 23 25 28 32 38
25 19 18 16 15 13 12 11 10 9 9 8 9 10 14 13 15 19 22 23 28 30 29 40 50 48 43 40 37 35 31 28 27 27 27 28 24 26 24 22 21 28 31 34 38
28 19 17 15 14 12 11 10 9 8 8 8 8 15 15 11 11 13 17 23 27 30 30 31 37 43 48 47 45 42 36 32 29 30 28 31 25 28 30 27 30 30 33 37 39
28 22 18 14 12 11 10 8 7 6 6 7 14 16 14 9 13 16 20 20 27 29 32 30 29 39 47 50 47 44 40 34 32 34 33 31 27 29 39 35 30 28 31 37 42
29 26 21 15 11 10 9 7 9 10 11 14 18 17 14 11 9 11 12 19 29 35 38 35 33 31 41 50 51 46 41 37 36 37 40 35 28 29 33 36 36 30 29 34 41
28 24 22 18 12 10 9 14 15 21 19 10 9 12 9 8 10 10 13 20 23 27 35 40 40 31 40 48 52 52 47 44 42 42 43 37 33 30 30 30 34 36 35 34 40
28 25 23 19 14 12 17 20 18 17 17 12 11 12 12 13 15 12 11 16 18 23 22 32 36 43 33 35 52 55 54 50 45 42 43 40 37 31 29 27 27 36 36 35 37
28 28 24 21 15 17 21 21 18 19 21 14 15 17 21 19 20 17 14 13 14 21 23 29 35 45 47 44 44 44 52 54 50 45 44 42 38 33 29 28 26 28 31 27 32
33 31 28 23 24 25 28 23 20 23 26 20 24 26 24 22 24 19 19 17 14 15 18 24 28 40 49 49 41 44 41 48 50 49 46 44 39 37 30 25 27 31 34 32 30
36 34 32 29 26 29 32 23 22 30 23 23 30 27 23 23 21 24 20 19 17 15 22 21 30 30 41 47 47 40 45 47 45 45 47 44 42 37 33 28 27 32 31 29 30
32 32 32 29 30 30 28 23 30 35 28 26 26 26 24 27 24 23 25 21 21 21 18 16 26 31 34 49 57 47 46 43 50 49 50 45 44 42 34 31 37 37 35 31 32
31 28 27 29 35 34 23 28 37 31 20 24 29 25 24 27 27 20 23 27 27 32 27 25 19 19 27 38 54 56 56 56 56 60 55 48 46 42 35 30 38 37 38 35 28
37 29 31 30 34 28 25 29 38 20 25 34 28 23 23 33 25 20 18 32 37 32 28 31 31 25 20 23 44 55 61 64 57 54 58 51 47 41 36 32 35 37 37 37 33
39 38 39 39 36 29 31 31 17 21 23 24 23 18 14 31 22 26 24 38 63 43 41 47 41 36 23 24 35 42 52 52 61 58 64 63 52 46 44 37 37 37 38 34 33
51 53 51 50 42 36 38 26 18 21 24 24 18 14 15 16 28 24 25 42 61 47 37 55 42 43 35 29 31 45 45 55 55 67 59 47 47 49 51 39 38 41 42 39 35
64 65 54 53 45 46 38 27 23 23 25 19 17 20 21 20 28 28 24 33 29 44 32 38 48 47 44 40 41 40 45 51 50 49 54 60 51 50 44 42 44 45 46 48 43
71 73 68 62 59 49 41 36 37 30 27 23 19 21 27 27 33 28 22 21 24 25 29 41 50 51 48 57 47 46 39 44 53 54 50 54 52 52 50 47 43 53 48 50 41
75 76 80 77 67 56 48 48 45 40 33 29 27 22 23 26 31 24 23 18 20 29 49 64 45 43 38 34 41 48 46 53 52 49 47 55 55 48 51 51 50 50 51 50 46
90 89 87 78 71 68 66 58 53 48 42 40 36 33 29 29 33 34 33 38 43 46 51 49 41 46 56 61 75 64 53 59 59 62 59 52 44 47 52 49 46 47 49 48 53
97 76 88 85 71 67 65 71 57 58 54 52 43 40 43 43 40 50 50 49 50 44 39 49 45 43 38 39 55 64 52 45 45 52 62 57 59 56 55 49 47 43 47 52 54
98 78 77 74 67 64 59 61 75 55 65 56 50 50 54 46 46 48 46 49 54 51 47 46 68 52 50 42 34 39 48 43 37 37 39 46 47 46 46 46 36 42 48 48 49
82 79 81 83 75 75 72 65 66 61 68 68 73 81 76 77 81 78 71 76 82 84 76 78 69 61 65 47 35 38 23 18 17 23 30 40 36 41 46 44 34 34 41 41 45

GFSSW_prec_cthk_102.txt.gz
RH
25 23 22 22 21 20 20 20 20 20 19 19 19 18 19 20 20 18 19 22 22 24 25 23 21 22 21 21 21 21 21 20 18 21 25 25 21 21 22 25 25 25 26 31 39
28 25 23 23 21 21 20 19 18 18 17 17 16 16 15 16 19 19 19 19 20 23 25 26 28 28 25 24 22 23 22 21 19 21 25 21 19 21 23 24 26 27 29 35 44
26 25 22 21 21 19 18 17 16 16 15 14 14 14 14 13 17 21 17 17 21 23 26 27 30 31 29 27 27 25 22 23 21 22 25 22 20 21 21 22 25 28 30 34 37
30 26 23 22 20 19 18 17 17 16 14 14 13 12 11 12 18 18 17 17 17 21 26 30 31 32 30 30 31 28 26 24 23 24 24 24 22 21 22 21 24 22 22 25 30
31 26 25 24 22 20 18 17 16 16 14 13 12 12 11 16 17 15 16 16 17 18 24 32 33 32 32 33 35 35 31 29 29 26 26 27 24 22 21 22 22 21 21 23 28
32 26 24 23 21 19 18 16 15 13 12 11 10 9 11 15 12 12 13 14 16 19 20 25 31 33 35 37 40 42 39 35 31 29 28 29 26 24 20 23 21 23 22 23 27
34 29 25 23 21 18 16 14 13 11 10 9 9 8 13 10 9 11 11 14 16 21 24 24 25 32 37 37 39 42 42 38 32 30 28 29 29 24 24 24 24 24 23 26 31
36 32 28 26 22 19 16 14 12 10 9 8 8 11 13 9 10 8 9 10 13 16 23 27 25 26 30 35 41 47 48 45 38 34 30 34 30 26 27 28 26 25 27 33 36
38 35 31 27 23 19 17 14 11 11 11 10 12 20 16 10 9 11 12 14 11 13 15 19 22 23 26 29 34 42 48 49 45 38 39 38 37 29 30 32 30 32 34 32 39
37 35 33 30 25 20 17 15 13 13 18 17 19 22 17 13 10 8 8 8 12 19 20 19 19 20 23 30 33 39 46 47 47 43 44 43 41 33 32 33 32 33 34 36 38
37 36 34 31 26 20 18 18 22 25 28 18 15 17 10 10 9 8 9 11 17 17 22 18 16 17 21 27 32 37 41 48 51 47 52 48 42 39 36 34 30 31 34 37 38
38 35 33 30 26 20 21 29 26 23 22 12 11 11 10 10 11 11 10 13 18 19 20 22 19 17 20 26 27 32 43 45 48 55 59 57 51 39 37 37 32 27 27 33 42
39 38 35 31 26 30 29 33 27 27 25 15 13 14 14 15 13 14 15 14 17 19 22 21 16 21 24 31 32 32 37 49 55 59 60 57 50 39 37 36 32 28 28 31 37
45 43 40 32 35 34 39 41 27 29 31 15 20 18 21 19 20 16 17 16 16 14 14 16 18 23 24 36 38 34 37 46 49 55 61 55 51 40 39 36 35 31 27 26 31
40 39 39 36 30 30 40 35 23 32 31 26 32 31 26 21 26 21 20 22 18 15 15 11 16 18 23 24 37 39 42 45 51 56 56 48 52 37 38 38 35 30 30 33 34
35 36 32 27 30 32 31 23 26 39 27 21 30 25 22 24 22 32 27 24 19 19 17 14 13 18 25 30 33 41 46 48 52 53 57 49 50 43 42 35 34 37 32 35 35
36 36 33 29 27 40 39 25 37 31 16 19 28 28 21 23 35 31 27 33 31 32 27 25 22 19 16 24 28 36 45 57 61 64 53 48 50 43 37 35 36 37 44 39 38
31 32 33 32 28 41 42 40 46 16 18 20 30 38 26 20 25 23 34 22 22 41 38 33 25 41 35 25 24 32 45 56 75 66 65 67 73 49 44 41 35 43 47 39 37
38 36 33 32 30 42 53 51 28 15 14 24 37 32 28 18 28 26 30 23 22 46 57 51 39 50 45 37 28 26 47 44 64 65 70 71 61 56 52 46 42 42 44 38 45
53 52 38 40 47 56 62 44 29 19 34 31 29 36 24 18 16 34 24 21 41 51 60 60 57 45 53 46 26 26 34 52 64 75 77 60 60 69 60 55 50 48 44 40 42
57 61 41 51 63 74 60 35 29 27 38 32 30 32 22 18 17 26 32 33 44 49 50 46 44 30 40 60 37 33 32 41 57 65 69 69 55 57 59 55 50 53 54 52 43
59 65 63 77 90 79 60 42 41 42 43 34 28 26 26 26 30 30 27 34 37 38 35 29 35 45 30 53 65 66 54 43 57 59 63 63 51 55 65 60 56 55 57 57 52
68 68 67 96 96 93 71 50 52 60 48 42 38 30 26 24 28 29 30 34 32 31 29 46 43 43 31 21 45 56 60 56 43 47 54 70 60 55 63 66 61 58 56 52 52
81 79 78 86 93 89 94 73 52 59 55 52 44 40 37 33 32 31 31 31 30 34 36 43 45 62 67 45 56 59 59 57 60 86 53 48 45 50 56 64 65 55 52 54 55
90 77 79 91 82 81 78 92 93 76 61 51 46 44 45 44 40 38 36 37 40 47 43 44 57 50 44 37 56 58 60 57 54 61 79 69 56 57 65 69 61 55 55 52 52
91 95 88 84 95 94 79 65 72 79 72 82 58 46 57 51 52 49 48 48 57 61 62 58 52 45 51 32 36 54 53 59 55 47 44 47 48 50 58 53 50 51 49 47 47
94 92 98 90 82 85 79 89 65 52 78 70 71 80 73 69 69 61 59 57 63 71 69 66 69 55 54 45 31 38 42 50 52 45 40 40 30 28 40 45 43 39 44 44 41

GFSSW_prec_cthk_105.txt.gz
RH
27 26 26 24 24 23 22 22 21 21 20 19 18 17 17 16 16 16 18 17 18 21 21 22 22 19 20 22 21 21 22 21 20 20 20 24 29 28 23 21 18 19 21 23 27
29 26 25 24 23 22 22 21 19 18 17 16 16 15 14 15 15 15 18 18 17 18 19 20 22 24 23 23 23 22 21 21 21 21 21 23 25 27 26 24 21 21 21 23 27
28 28 25 23 22 22 21 20 20 19 18 16 16 14 13 13 14 20 16 15 16 18 20 21 23 26 26 26 27 24 21 21 21 22 23 23 25 26 25 24 23 23 22 24 27
32 30 28 27 25 24 23 22 21 20 18 17 16 15 13 13 15 20 15 14 15 15 16 20 22 24 25 27 28 26 24 22 21 22 23 24 24 25 25 24 24 25 24 23 25
39 33 30 28 26 25 23 22 21 20 19 16 15 14 13 15 14 11 13 14 14 14 15 21 25 26 25 26 27 27 26 24 23 23 25 29 27 26 26 26 26 25 24 22 22
41 38 33 29 28 26 24 21 20 19 17 15 14 13 13 19 11 13 13 12 13 14 16 17 22 26 26 26 27 28 28 27 26 26 27 32 30 30 27 26 28 25 24 22 20
43 40 36 33 30 26 24 21 20 19 17 15 14 13 13 10 9 11 10 10 9 12 16 20 18 19 23 26 27 29 29 27 25 28 29 38 33 31 28 28 30 28 26 24 22
47 45 43 39 34 29 26 23 21 20 19 18 17 16 14 8 9 7 8 9 10 9 13 18 20 20 21 23 25 26 27 28 25 30 35 43 37 36 35 35 31 30 28 26 25
42 41 42 42 41 35 31 26 23 21 20 24 22 26 20 14 10 11 11 13 13 10 9 11 16 16 19 21 22 23 23 27 23 33 39 47 45 40 39 39 36 32 30 30 32
42 40 39 37 33 29 26 26 24 24 26 28 29 32 21 14 13 10 9 9 8 12 16 10 10 11 14 17 18 23 27 24 27 33 42 43 46 45 45 42 40 36 37 34 32
50 45 40 37 33 30 31 30 30 30 31 32 32 29 19 16 14 10 9 9 9 12 19 18 18 16 11 12 12 15 20 22 22 30 37 45 45 49 51 45 45 41 36 33 33
42 42 44 41 35 37 36 38 39 38 34 22 17 16 13 13 12 9 9 11 10 15 19 22 22 15 15 13 13 15 18 19 18 26 35 40 38 47 53 49 48 42 37 32 31
44 45 43 40 36 39 42 46 42 37 37 25 19 19 16 14 14 11 12 13 13 16 20 21 18 19 21 21 23 21 24 25 25 25 32 43 40 50 53 52 47 43 37 34 30
34 35 36 33 36 42 47 49 47 39 48 28 22 20 19 22 20 13 17 17 15 16 20 20 17 18 20 21 26 27 32 31 27 31 35 42 43 50 58 47 44 40 39 35 31
30 36 36 33 28 28 45 39 31 33 59 28 30 29 25 24 27 23 19 19 17 16 18 14 11 13 15 17 21 23 31 37 37 32 34 38 47 42 52 43 41 39 37 33 31
25 31 31 27 29 37 40 35 26 42 51 18 30 30 30 26 24 23 21 21 22 23 22 16 13 14 12 14 19 23 28 31 39 39 46 36 47 44 45 42 40 38 38 36 31
23 25 26 28 24 33 39 32 41 59 19 16 21 27 31 29 24 26 30 31 29 35 29 22 16 17 22 19 16 27 33 50 54 52 42 35 45 43 40 42 40 37 40 39 35
25 26 26 26 27 29 41 41 53 27 17 11 24 40 42 36 30 39 53 44 33 43 42 33 30 22 34 35 32 34 33 52 61 55 43 42 56 49 50 57 56 45 46 48 44
27 24 25 29 34 36 48 54 30 19 15 22 19 34 43 35 29 26 34 38 44 37 46 48 45 31 38 48 41 38 40 29 55 48 54 49 49 46 62 63 55 47 49 51 50
29 27 25 35 46 55 64 48 30 17 16 44 35 36 51 46 32 32 34 40 42 44 40 45 56 35 41 53 42 42 38 44 53 73 73 54 51 58 65 74 66 58 55 56 52
33 35 29 41 50 68 67 53 41 25 25 43 49 37 52 52 34 25 26 31 35 57 49 53 50 41 49 58 68 64 44 37 45 67 74 71 57 68 76 86 78 65 59 58 58
43 45 41 54 73 74 75 72 57 40 32 51 56 49 41 51 38 30 29 42 46 48 54 39 43 41 38 50 49 53 76 60 51 47 51 59 50 61 68 75 80 74 65 60 61
53 47 40 52 81 81 84 75 70 60 43 64 63 40 37 34 39 29 24 35 49 51 51 42 47 52 34 20 18 48 53 82 76 51 45 64 49 54 62 71 79 75 71 73 67
58 57 55 58 69 80 95 86 89 78 56 61 54 51 44 41 37 31 28 25 38 45 45 38 39 41 54 41 45 46 47 67 89 93 78 70 54 61 67 70 79 75 65 67 66
68 61 62 67 84 82 80 75 87 94 84 62 57 52 48 51 50 44 35 29 25 24 33 39 46 36 27 22 40 43 42 48 59 66 84 80 69 68 70 70 77 77 65 62 63
68 66 72 75 81 88 94 76 82 85 97 91 78 69 63 62 51 53 53 50 48 44 50 48 49 48 41 27 20 44 43 36 45 51 57 56 58 58 57 54 62 61 61 61 57
67 74 86 85 96 94 96 81 81 87 81 73 87 85 78 75 77 70 66 60 56 54 56 64 71 75 56 51 37 39 36 38 31 33 40 43 45 55 49 50 62 64 64 61 58

GFSSW_prec_cthk_108.txt.gz
RH
32 30 28 26 25 24 24 23 22 21 21 20 20 18 17 16 16 15 16 16 18 18 21 23 23 21 18 20 19 18 21 22 20 19 18 20 20 20 21 24 24 24 24 22 22
29 28 27 27 26 25 23 23 22 21 19 19 18 17 16 15 15 14 18 18 18 18 18 19 21 21 21 22 21 21 21 20 19 18 18 21 21 21 21 23 25 24 24 24 24
36 32 29 27 27 26 25 24 23 22 20 19 18 18 16 16 16 16 18 17 17 17 19 20 21 22 24 23 22 20 18 19 18 19 20 20 21 22 21 22 23 25 25 25 27
40 37 36 33 30 29 28 26 24 24 22 21 20 19 17 16 17 22 20 17 16 16 16 17 21 22 24 27 26 24 22 22 21 22 23 21 20 21 22 22 23 23 26 26 28
43 41 38 36 35 32 29 27 26 24 23 22 20 19 17 18 16 13 15 14 14 14 14 16 21 22 25 25 26 26 24 24 25 25 24 22 22 22 22 25 25 24 24 27 28
43 41 40 40 37 33 31 28 26 24 23 22 20 19 19 23 14 16 15 14 14 13 14 16 19 24 24 24 26 24 24 23 24 26 26 24 23 25 24 29 29 28 26 29 29
44 44 42 38 37 34 32 30 28 26 25 22 20 23 22 17 13 13 14 14 13 12 13 16 17 18 20 21 23 23 23 23 24 26 27 26 20 24 29 30 30 34 30 31 31
46 46 45 43 41 35 35 33 30 28 26 25 23 27 25 18 17 15 13 12 12 11 10 13 17 17 18 18 20 21 22 22 21 25 27 28 20 25 31 33 33 37 33 30 29
45 47 45 39 39 34 33 34 35 34 31 30 30 34 30 23 21 20 14 13 12 13 10 10 14 16 17 19 20 20 21 22 19 20 20 22 19 22 30 33 40 40 37 33 30
51 49 49 42 38 34 36 34 33 35 34 34 38 40 27 22 23 19 18 16 14 10 13 15 11 12 15 17 20 19 19 17 17 15 20 24 23 23 27 33 41 43 42 38 34
52 50 48 48 48 52 45 36 38 37 38 38 41 40 31 29 26 22 18 18 13 11 14 17 15 15 10 11 12 14 14 13 12 12 16 18 19 18 21 28 34 42 47 43 39
45 46 50 52 47 49 50 53 57 55 47 35 28 25 25 24 27 16 15 16 15 13 13 20 24 15 14 13 13 13 13 12 11 13 17 17 17 14 18 23 33 42 45 45 41
36 36 39 41 38 46 51 52 51 51 51 36 28 26 25 22 21 18 16 19 15 15 16 20 20 17 20 20 19 17 17 16 18 17 21 25 20 18 18 25 30 43 46 44 42
28 28 30 27 32 39 45 44 44 40 46 30 25 26 26 25 26 18 16 15 18 16 17 20 18 18 20 23 26 24 23 23 25 30 31 26 29 19 16 20 32 44 45 43 40
18 15 18 21 21 29 37 34 36 37 36 24 28 28 27 26 26 28 20 19 20 18 19 21 18 18 19 17 22 22 24 25 28 30 34 32 42 16 20 21 33 47 49 44 42
17 18 18 21 20 22 25 20 16 29 42 22 35 34 29 24 24 28 25 24 24 25 23 19 17 17 15 14 15 16 19 24 27 32 41 32 40 22 23 24 33 51 48 45 45
19 20 22 23 21 23 26 27 27 46 17 22 27 37 42 43 29 30 33 31 30 35 32 22 19 16 19 21 19 18 26 40 44 44 37 27 36 25 24 26 40 54 50 45 44
19 21 21 21 23 26 28 37 46 23 21 16 28 27 39 46 52 37 40 38 35 39 34 36 33 21 22 36 29 30 30 39 55 51 37 32 43 33 32 39 53 57 54 45 45
21 22 21 20 28 33 38 48 29 20 13 23 15 25 40 49 50 51 44 43 50 63 60 44 33 22 28 31 38 34 41 36 50 51 56 47 35 31 26 48 58 61 61 59 50
24 25 23 28 33 40 46 39 32 24 23 32 41 34 36 48 57 55 47 47 50 60 59 54 56 28 27 34 44 54 41 46 56 66 59 51 47 45 51 63 66 73 76 69 63
28 31 34 35 40 50 51 41 36 41 47 42 42 40 41 41 56 55 51 48 47 51 49 50 59 42 32 44 50 62 62 69 54 63 61 66 55 57 71 71 78 88 89 78 65
36 39 46 52 58 57 57 54 53 55 63 62 57 42 50 51 55 58 51 48 46 48 56 54 51 41 34 42 41 50 77 84 94 74 70 64 48 50 67 73 75 91 89 83 79
43 45 39 44 52 65 71 73 72 67 68 71 64 66 58 51 57 60 55 46 44 51 54 49 50 49 31 31 54 64 73 68 79 94 84 81 56 54 71 78 79 87 94 86 82
54 52 49 56 60 60 71 73 75 81 76 87 79 81 72 51 46 46 55 50 46 47 53 55 54 44 40 41 42 40 34 50 69 73 82 82 69 53 55 65 73 81 90 85 76
66 70 70 72 74 75 84 80 86 81 72 85 77 80 76 59 48 40 34 41 45 47 43 48 59 50 41 37 33 27 24 25 52 52 65 65 68 57 62 69 78 82 85 82 78
79 78 67 65 66 79 90 87 92 86 88 88 90 77 74 68 56 46 48 49 46 39 37 45 46 47 42 38 33 32 27 30 36 50 39 47 55 63 70 62 62 72 80 83 86
85 73 68 61 74 84 84 90 96 88 82 88 97 97 86 77 76 66 58 52 53 53 47 45 46 49 43 41 59 50 28 27 21 40 44 47 49 64 68 68 71 71 77 87 83

GFSSW_prec_cthk_111.txt.gz
RH
35 32 30 28 28 27 25 24 23 22 21 21 20 19 17 17 17 17 16 16 17 17 18 20 23 23 21 21 20 18 22 23 20 20 19 17 20 20 20 20 19 22 22 22 23
39 37 34 32 29 27 27 25 24 24 23 21 20 19 18 18 17 17 16 18 19 18 19 20 22 23 22 22 22 21 23 21 20 19 18 18 18 20 20 20 19 20 20 22 25
41 39 36 35 34 32 30 27 27 27 26 24 22 21 19 18 18 18 19 19 21 21 20 21 21 22 23 23 23 20 21 20 19 19 19 19 18 20 22 20 20 20 20 23 27
42 42 39 38 36 34 32 31 30 28 27 26 24 22 21 21 20 25 22 20 19 19 19 19 21 23 23 24 24 23 21 20 20 21 22 22 21 20 20 19 21 20 21 23 26
36 35 37 38 37 35 34 32 31 30 29 27 25 25 23 22 23 18 21 24 23 20 19 18 21 22 23 24 26 26 24 23 24 25 24 23 21 20 20 21 23 23 23 24 26
39 38 36 33 32 32 33 33 31 30 30 28 26 25 25 28 21 21 19 18 17 18 17 18 20 24 25 24 25 24 24 24 24 24 25 25 21 23 20 23 22 23 24 25 28
41 41 39 37 35 34 34 33 32 30 29 28 27 27 27 27 20 19 20 20 19 18 17 16 17 20 22 22 23 21 21 23 23 23 24 25 19 21 22 21 20 22 24 26 32
38 36 35 32 31 31 31 34 34 33 31 31 30 30 30 28 24 21 19 18 20 19 16 15 17 18 19 20 20 20 21 22 21 22 22 25 17 20 22 21 21 21 22 26 30
40 38 37 35 34 33 32 32 32 33 34 36 36 36 36 33 30 26 26 23 20 21 20 19 16 16 18 19 20 20 19 20 20 20 21 21 15 16 17 17 17 18 20 26 28
43 41 40 37 34 34 36 39 39 41 39 39 42 42 34 34 36 32 29 27 24 24 26 22 15 13 16 20 22 20 20 18 18 16 15 18 15 13 14 16 16 17 19 22 31
42 39 38 38 37 40 44 43 43 42 43 42 44 46 39 37 37 36 33 28 25 23 18 22 26 24 18 14 15 17 16 16 14 13 12 11 12 11 12 14 13 12 14 19 32
34 34 34 33 31 36 44 47 54 56 55 46 40 36 35 32 35 31 34 34 31 28 24 25 33 23 15 12 12 14 14 13 11 10 16 15 13 12 15 15 13 13 14 19 32
23 22 18 18 23 31 38 42 49 49 47 40 42 41 36 35 32 29 27 28 28 28 25 21 21 21 20 20 20 19 17 16 15 16 19 20 18 16 17 16 13 11 12 17 25
21 16 13 9 14 15 21 24 33 37 46 33 34 37 40 39 37 32 27 26 26 25 24 25 21 16 22 25 26 26 21 21 22 26 28 23 27 16 17 15 14 12 15 18 31
15 12 11 11 14 16 14 13 14 19 18 23 41 38 38 38 36 39 37 30 28 26 25 26 25 25 21 19 21 23 24 26 27 27 27 24 37 18 18 16 13 13 17 27 40
13 12 12 13 14 17 14 15 14 14 18 13 23 38 38 36 38 40 41 34 29 29 28 25 21 22 21 19 20 20 22 23 24 28 36 23 34 18 20 17 14 15 26 42 52
13 13 13 14 14 15 15 20 16 27 10 14 19 24 32 32 31 37 42 40 41 42 39 32 29 24 21 22 21 20 24 32 33 42 34 23 30 20 20 17 21 30 30 43 60
16 14 14 15 15 18 20 28 32 14 18 12 16 21 25 31 35 33 39 47 47 47 41 42 36 29 26 26 28 30 33 43 35 35 28 27 39 28 24 24 26 28 37 46 62
20 17 15 18 16 22 28 38 25 23 24 25 19 21 31 31 35 46 47 43 47 50 53 54 49 42 35 32 34 38 41 37 44 44 53 38 33 24 24 31 35 40 50 60 69
22 17 21 25 25 31 36 35 31 30 30 31 33 30 40 44 43 50 64 51 49 49 54 55 54 47 41 38 42 50 50 47 56 61 55 42 42 40 33 47 55 55 59 69 72
24 20 31 32 35 42 45 42 38 35 45 49 51 48 36 40 43 49 62 63 59 56 51 57 52 49 45 45 41 45 66 68 62 69 66 52 40 46 61 60 64 60 62 70 83
33 29 38 40 47 47 51 47 47 53 62 63 55 52 48 43 43 45 53 70 62 59 63 57 56 56 49 47 39 47 60 65 88 93 82 86 64 51 53 57 61 64 64 68 86
38 37 40 47 52 52 51 57 62 59 65 68 65 62 56 61 67 44 41 63 63 61 62 61 63 59 52 52 50 57 54 50 63 79 80 95 73 58 59 54 59 68 68 78 92
47 51 49 56 61 66 70 63 62 64 68 68 67 65 73 68 78 59 42 55 65 67 57 62 61 53 51 55 53 50 44 48 61 69 60 71 58 52 65 55 58 62 70 79 93
57 62 67 69 76 79 74 69 66 70 72 76 72 82 92 91 91 68 49 52 56 59 65 65 52 50 48 51 44 42 47 50 51 46 48 31 43 41 46 66 63 70 73 79 95
64 74 79 77 67 62 61 69 75 83 91 87 85 89 85 98 85 74 67 56 51 52 54 60 66 58 56 50 50 50 45 38 34 28 26 24 30 37 36 51 58 74 82 83 95
78 81 85 70 67 68 71 79 90 99 91 87 96 98 97 84 77 72 70 67 57 51 50 49 52 54 44 43 46 40 22 27 24 26 25 26 20 45 44 47 65 67 89 85 89

GFSSW_prec_cthk_114.txt.gz
RH
35 35 35 35 33 30 28 26 26 24 23 22 22 21 21 19 19 19 19 18 18 18 18 20 23 24 22 21 22 21 22 24 17 17 16 16 16 16 19 19 19 20 19 20 20
33 33 34 34 34 34 33 31 29 27 25 24 22 23 23 21 20 20 20 19 18 20 19 18 21 24 25 25 25 24 26 23 18 16 16 16 17 17 18 17 20 20 19 20 20
36 33 32 33 33 34 33 33 33 32 30 28 25 25 25 23 23 22 24 23 22 22 22 22 23 23 25 27 27 26 24 21 19 18 18 19 18 18 18 19 21 20 20 20 20
38 34 32 31 30 30 31 33 33 32 32 32 31 30 28 26 26 28 26 24 25 25 25 24 25 25 26 26 26 26 25 23 20 19 21 21 20 20 20 19 19 21 22 22 22
36 33 30 30 31 31 31 30 30 31 31 31 31 30 31 29 31 25 25 28 28 26 24 25 26 25 26 26 26 27 26 25 23 23 22 22 22 21 21 22 22 21 22 23 24
37 35 34 32 31 30 31 31 31 29 28 30 29 28 29 32 31 28 26 25 24 25 28 26 25 26 27 27 27 26 26 25 25 25 24 25 23 24 20 22 23 24 23 24 24
38 36 35 34 33 31 30 30 29 30 31 30 27 27 30 31 28 28 27 26 26 24 23 22 22 22 25 26 25 24 24 23 23 23 24 24 22 21 21 21 21 22 24 25 24
41 37 37 35 33 31 30 30 29 28 28 29 32 32 30 33 32 30 28 28 27 26 24 23 22 23 23 25 25 24 23 24 22 22 22 24 21 20 21 19 20 19 20 21 22
39 36 34 34 32 32 31 30 29 31 34 36 35 34 30 33 42 42 34 31 27 26 26 24 25 22 21 24 27 25 25 22 20 21 23 23 17 16 17 15 14 15 15 15 15
37 34 32 31 30 30 31 31 32 34 36 40 43 43 34 35 37 41 42 40 34 30 29 29 27 24 21 24 31 25 22 22 21 20 20 19 15 14 11 11 12 11 12 12 11
33 32 32 30 29 29 28 27 30 33 38 39 40 40 35 35 34 34 37 40 37 36 38 35 33 29 24 19 17 22 22 23 20 17 15 13 10 10 10 10 11 11 10 9 9
23 19 15 14 15 17 21 23 34 41 42 36 33 38 38 42 39 37 34 39 39 36 29 32 37 29 24 25 27 29 28 25 18 14 14 14 13 13 12 12 12 12 11 11 10
17 14 12 10 11 13 16 21 26 27 33 20 28 39 43 45 45 48 40 40 43 39 43 45 33 31 26 19 18 21 19 17 16 16 17 20 20 13 13 12 14 14 13 12 14
15 12 10 8 9 8 12 12 16 17 30 13 25 30 41 47 48 55 49 40 37 40 32 31 31 34 34 33 32 35 25 19 21 27 31 22 28 16 15 17 16 14 13 14 18
11 9 8 8 9 10 9 9 12 17 12 5 22 30 32 40 42 51 55 55 44 38 34 31 30 30 26 26 23 29 21 26 28 32 32 26 28 21 16 16 15 14 13 21 24
11 9 9 9 9 9 8 9 11 8 10 9 13 16 20 30 38 44 55 56 53 46 40 37 32 32 32 30 30 31 29 26 29 30 38 26 28 18 18 18 18 18 22 27 27
11 10 10 10 10 9 9 13 10 12 6 16 19 15 12 22 34 44 47 56 61 60 47 39 39 37 31 31 32 35 38 40 35 44 35 25 32 20 18 19 26 29 27 25 30
12 10 11 10 11 11 13 17 19 12 16 19 18 11 19 24 28 45 44 50 52 59 63 58 49 42 36 34 34 34 32 37 34 35 30 34 35 26 21 24 28 32 33 34 32
12 12 12 15 14 15 19 26 19 27 29 29 20 21 25 23 27 35 48 49 51 49 58 70 62 53 48 44 41 40 42 40 43 42 48 36 29 27 28 34 36 35 33 33 32
14 13 18 19 20 21 27 26 29 31 32 33 35 36 40 34 28 26 38 51 55 51 51 60 71 63 58 59 56 53 52 50 54 56 50 41 42 39 44 44 40 40 38 37 38
18 17 27 28 28 29 37 36 35 34 41 48 53 54 47 48 39 37 29 37 50 62 57 58 59 64 61 61 60 59 59 62 62 67 66 65 45 51 46 47 48 45 42 40 39
22 24 30 30 35 44 50 51 50 47 45 54 55 59 59 54 55 50 43 35 39 56 68 65 63 65 65 66 63 68 68 66 65 74 75 78 64 47 45 45 45 50 49 44 45
27 28 31 37 48 53 54 52 51 47 55 60 58 62 62 59 66 60 59 50 39 45 66 71 73 67 65 70 69 66 55 62 65 64 66 74 52 47 48 47 44 50 51 51 53
34 36 35 44 52 61 70 67 69 62 60 60 57 63 67 67 72 64 65 65 58 46 54 70 71 67 66 66 64 56 60 56 61 63 54 53 40 24 28 34 38 44 51 55 63
40 43 47 54 64 71 74 68 62 62 68 75 69 70 82 83 81 81 73 75 63 49 46 69 65 64 61 60 57 53 56 59 50 43 56 34 35 26 19 23 34 39 48 59 74
46 47 54 70 72 71 65 61 60 71 89 92 95 91 93 94 85 98 80 86 75 64 56 55 63 68 56 58 60 62 54 50 38 33 41 36 31 16 16 17 32 40 48 58 74
49 54 68 79 74 69 71 72 80 95 87 98 98 98 97 94 93 83 86 80 73 76 74 61 51 60 53 50 52 53 38 36 32 30 28 28 16 18 18 20 41 47 63 63 78

GFSSW_prec_cthk_117.txt.gz
RH
32 32 32 30 29 30 31 30 30 29 27 25 24 23 23 22 22 22 21 20 20 19 18 19 21 23 24 25 24 23 20 18 15 17 14 15 16 15 15 16 18 19 20 20 20
31 30 29 27 27 27 26 27 29 29 28 28 28 26 24 22 23 25 25 24 23 21 20 20 21 23 25 25 25 24 22 19 18 19 19 17 17 16 15 16 17 18 20 20 21
35 33 31 30 29 28 27 27 27 27 28 28 28 30 30 27 26 26 30 30 27 25 24 23 23 23 25 27 27 25 22 22 21 22 22 20 18 18 18 16 19 19 20 21 21
37 35 33 32 30 30 29 28 28 27 26 26 28 30 29 30 31 31 33 32 32 30 29 28 28 29 28 28 28 27 26 25 24 24 23 20 20 20 20 19 19 19 20 21 21
36 33 32 31 30 31 32 31 29 28 28 26 27 27 28 29 34 32 31 30 33 33 34 32 31 31 30 29 29 29 27 27 26 26 25 24 22 21 20 22 23 22 22 20 20
36 34 33 33 33 33 32 31 30 30 28 28 27 29 30 31 31 31 31 31 30 30 34 33 31 30 29 30 30 30 31 30 29 27 26 25 23 25 21 24 25 25 24 22 21
37 35 33 31 31 32 32 31 30 31 30 29 29 30 31 32 33 32 29 27 29 31 30 30 33 34 31 31 29 28 28 27 27 28 27 26 24 22 21 24 23 23 23 22 21
36 35 33 32 32 31 31 30 30 31 31 32 32 33 30 30 33 35 35 33 29 29 32 31 30 29 29 28 29 28 27 28 25 24 25 25 23 22 22 21 20 19 17 17 16
38 35 33 31 30 28 27 27 26 27 31 33 35 37 32 29 32 36 37 39 37 30 32 33 34 32 29 28 27 29 28 26 25 26 26 26 24 21 19 18 17 16 15 15 16
34 32 31 28 25 23 21 20 21 22 26 27 32 31 30 27 27 31 35 36 42 40 36 34 33 32 32 30 28 27 27 25 24 23 24 24 25 22 19 15 13 13 12 11 11
32 28 23 18 15 14 12 11 13 15 15 15 17 24 24 25 30 30 30 32 38 40 43 38 35 33 31 30 27 27 27 28 29 26 22 19 16 15 12 12 12 12 11 11 11
20 17 14 13 12 11 11 13 20 22 24 10 12 20 24 31 36 39 39 33 34 37 40 44 46 41 34 30 28 28 29 27 23 20 20 17 17 15 12 12 11 12 12 12 13
13 12 10 9 8 8 11 12 16 18 24 12 19 21 22 29 34 38 47 47 43 43 41 42 39 41 42 39 34 33 31 28 30 24 23 24 21 15 13 13 14 14 12 12 14
9 8 7 7 8 7 8 9 12 15 18 7 22 24 18 27 28 35 42 52 50 52 48 50 46 46 47 40 33 33 26 23 20 29 34 29 29 25 21 20 14 13 14 18 21
8 8 7 6 6 6 6 6 10 17 5 7 18 18 13 16 20 29 42 51 60 60 49 44 51 43 38 39 42 37 34 27 31 39 39 31 30 22 20 16 16 16 19 22 22
8 7 6 6 6 6 6 7 11 5 5 8 13 12 10 13 16 24 37 48 56 65 66 55 45 44 40 34 33 38 44 40 37 35 40 33 28 23 22 21 19 22 22 23 23
7 6 7 7 8 7 7 9 7 6 7 19 19 13 13 16 14 17 29 48 54 60 64 63 56 54 50 48 43 41 44 45 48 48 32 26 29 26 25 29 32 29 28 27 25
7 8 8 10 10 8 10 9 11 15 19 21 19 14 19 22 16 13 17 33 46 53 62 72 69 61 52 49 47 47 42 39 35 38 36 41 34 35 40 40 40 39 36 29 27
9 9 13 13 12 11 12 11 14 26 29 29 21 23 27 24 26 23 18 24 44 53 58 68 75 65 65 58 51 53 53 41 38 41 43 38 38 44 47 41 39 35 35 34 31
11 13 19 17 16 15 17 21 28 32 35 36 37 38 39 33 34 31 26 24 36 54 60 62 61 70 73 72 70 65 60 61 61 60 54 44 42 44 43 38 36 34 38 38 33
13 15 21 21 20 18 29 33 36 39 45 48 51 50 46 48 43 41 33 24 29 31 60 64 70 61 62 77 77 73 73 74 66 69 53 49 46 51 46 44 34 28 31 35 35
15 21 24 23 26 33 38 43 43 43 39 47 54 60 61 60 55 50 47 40 36 31 30 57 67 69 67 65 67 78 84 84 73 75 74 66 53 54 51 44 36 31 27 30 33
19 22 25 26 35 38 40 46 52 58 56 55 63 64 64 65 66 55 53 49 49 47 49 47 68 70 78 77 77 72 68 74 76 75 73 66 44 47 39 31 28 26 20 24 35
22 28 29 33 37 44 55 59 61 53 48 55 63 65 66 67 70 69 61 54 58 54 51 59 57 69 75 75 71 70 68 64 65 66 63 51 40 31 26 23 20 17 17 22 35
27 35 36 39 42 48 56 58 54 53 55 69 73 85 87 89 86 88 72 69 59 64 60 59 57 58 65 69 69 66 59 56 54 55 52 38 34 28 24 21 18 16 15 18 31
31 35 39 41 48 56 62 61 58 66 81 83 92 89 95 95 97 88 97 82 69 68 71 69 57 55 59 65 57 61 61 64 59 54 49 40 35 24 22 22 18 16 15 26 37
36 38 39 47 57 67 61 60 67 81 82 89 99 92 97 94 87 87 86 82 79 78 73 72 70 59 43 49 59 60 41 40 38 39 38 35 23 20 21 22 18 18 24 37 53

GFSSW_prec_cthk_120.txt.gz
RH
32 30 29 28 27 25 25 25 24 23 22 23 25 25 25 26 25 23 24 23 22 21 20 20 20 23 25 26 25 25 22 20 18 16 16 15 15 15 15 15 16 17 19 20 20
37 34 33 33 30 28 27 27 25 25 25 25 24 25 24 25 28 29 27 27 27 26 23 23 22 23 24 26 27 25 22 21 20 18 19 19 18 18 17 16 16 18 18 19 20
38 37 36 34 32 30 29 28 27 26 26 25 26 25 25 24 27 30 34 33 29 26 26 27 26 25 25 26 27 25 22 23 23 23 23 21 20 20 18 17 18 17 20 19 19
36 35 34 33 31 29 28 27 27 27 27 27 27 27 27 27 27 28 27 30 33 33 32 32 31 31 27 27 27 27 25 25 24 25 25 24 24 21 21 21 21 20 20 20 20
33 32 32 30 30 29 29 27 27 27 27 26 27 28 28 30 32 28 27 27 27 33 38 39 38 36 33 32 31 30 28 27 28 27 26 26 25 23 23 24 23 22 22 21 21
36 35 34 33 32 32 31 30 28 28 26 25 26 27 30 32 31 30 28 27 29 30 35 37 39 40 37 34 33 31 32 30 30 29 27 26 25 25 25 24 24 24 24 25 23
39 37 35 35 34 31 30 29 30 30 29 29 29 30 33 33 31 31 30 29 28 28 32 33 38 40 38 38 36 34 32 30 30 30 29 27 27 24 24 24 24 24 24 25 24
40 38 36 34 32 31 29 28 27 26 26 25 25 28 30 30 32 34 34 36 33 30 30 32 35 36 38 38 37 35 33 32 29 29 27 28 23 26 25 23 23 21 21 22 21
37 37 35 31 29 27 23 21 20 17 16 17 22 24 25 26 31 28 28 33 35 38 32 32 36 36 34 34 33 31 32 31 31 31 29 27 26 27 27 22 20 19 17 17 18
38 35 31 26 22 19 16 14 13 13 12 12 16 19 17 19 20 24 25 26 30 34 37 36 38 38 36 36 31 32 31 31 30 30 30 28 27 26 24 22 20 18 15 15 15
32 28 22 18 16 14 12 12 15 15 12 12 13 15 18 18 18 20 27 28 31 34 38 37 38 34 38 39 36 32 30 29 28 32 29 23 22 24 23 19 16 14 14 14 15
24 19 16 14 13 12 10 14 16 12 13 15 17 18 18 21 22 22 23 31 31 31 34 42 35 34 35 38 39 34 32 28 28 33 30 24 22 20 18 16 14 14 15 20 16
17 15 13 11 10 8 8 10 11 13 17 13 20 20 15 19 23 20 25 28 34 39 39 39 34 39 42 44 43 42 38 34 29 30 31 26 23 20 21 18 15 14 15 14 15
15 12 9 8 8 7 11 7 9 11 14 8 19 18 12 11 18 18 22 29 36 36 37 39 45 44 43 44 46 48 46 36 30 35 33 28 29 28 29 21 19 17 16 19 22
10 9 7 6 6 9 6 5 9 17 5 10 15 14 10 10 11 10 15 23 32 38 41 43 50 54 54 47 47 47 46 44 43 37 35 33 38 32 32 29 22 22 25 28 27
9 7 6 5 4 4 4 6 11 10 6 12 13 11 8 13 10 9 10 17 22 32 39 46 55 55 54 50 53 46 47 54 49 46 45 36 35 27 30 28 28 32 33 30 27
7 6 5 5 7 4 4 9 8 5 7 18 17 12 9 16 11 10 8 16 21 24 41 45 45 52 63 58 56 53 54 59 64 62 47 33 32 27 30 38 40 39 33 35 33
7 6 6 6 6 6 6 9 8 13 18 18 17 14 18 21 16 15 12 9 29 25 28 41 55 60 56 64 64 63 60 57 61 52 44 41 37 40 47 42 41 38 37 36 36
6 7 8 8 8 8 12 7 15 22 24 24 19 19 26 28 29 25 20 15 29 33 36 36 46 68 66 73 62 69 73 57 56 51 46 43 57 62 54 46 43 42 39 45 43
8 13 16 12 10 11 13 19 23 25 27 30 31 33 37 36 36 35 27 21 26 42 48 48 45 54 70 82 77 63 64 63 63 62 49 37 46 48 54 44 37 35 35 35 36
9 20 17 13 13 17 20 23 26 29 30 34 38 40 44 47 45 44 39 28 32 33 34 43 57 46 62 74 90 92 78 76 70 58 54 47 43 51 57 50 44 38 32 28 29
13 25 17 15 23 24 25 28 27 30 37 40 47 53 57 54 52 52 46 44 43 42 42 50 48 60 56 65 77 82 96 97 90 72 60 56 54 60 60 55 46 40 33 31 25
20 23 20 19 31 30 32 34 38 44 48 52 50 50 52 52 63 51 52 50 54 52 59 68 57 58 53 60 70 83 72 77 85 87 72 68 55 68 61 48 37 32 28 26 22
21 27 26 26 31 35 36 39 41 44 41 43 47 56 65 69 67 69 68 70 66 60 62 62 63 66 61 82 79 72 80 73 66 69 73 60 55 57 46 35 30 25 24 24 21
21 28 26 38 37 36 38 42 51 50 48 55 64 79 81 86 80 78 76 78 73 57 63 65 64 59 53 50 60 71 73 69 68 63 57 49 48 39 37 34 29 26 24 22 22
26 29 29 36 35 40 44 48 50 50 57 73 83 90 84 87 98 95 79 87 78 69 68 70 63 62 55 47 57 61 60 62 58 59 56 49 44 34 34 27 25 26 24 24 31
24 26 34 37 41 42 46 46 50 59 63 76 90 90 76 81 74 74 73 73 70 77 73 69 67 67 68 58 51 54 41 48 52 44 44 47 35 28 27 26 26 26 25 36 44

GFSSW_prec_cthk_123.txt.gz
RH
37 35 33 30 29 28 28 27 25 25 25 25 24 24 23 23 24 25 26 27 26 23 22 22 25 25 24 24 25 26 25 21 20 20 20 19 16 15 14 14 16 16 14 23 23
39 38 37 35 33 32 31 29 28 27 26 26 25 24 23 23 25 28 29 28 29 29 27 25 27 27 26 26 27 27 25 22 23 25 24 21 18 17 17 17 17 17 15 15 17
40 38 37 35 32 31 29 28 27 27 26 26 26 25 24 24 31 25 27 28 28 30 30 31 30 29 29 28 28 29 25 25 25 25 24 22 20 18 20 20 19 18 18 19 20
41 38 34 31 30 28 28 28 28 27 26 25 24 23 24 25 31 24 25 24 25 25 30 33 32 32 30 30 30 29 29 29 27 28 28 23 23 22 21 21 22 21 21 21 23
40 36 33 32 31 31 31 29 27 28 27 26 25 25 24 29 29 26 27 27 27 28 33 36 36 36 34 34 32 31 32 30 30 29 29 26 25 25 23 24 24 23 23 24 23
40 39 36 34 31 31 31 30 29 28 27 26 25 23 26 30 26 27 28 27 29 34 34 37 39 39 39 37 36 37 35 34 33 31 30 30 26 26 24 26 26 25 25 24 25
43 41 39 37 33 32 29 29 27 25 23 22 22 21 26 27 28 26 28 30 29 28 32 35 37 39 39 41 39 38 39 37 34 36 33 35 30 27 25 25 25 26 26 25 25
44 41 39 37 33 31 30 26 22 19 18 17 18 24 24 24 21 27 32 32 33 35 33 30 34 35 37 41 40 40 39 39 36 37 34 36 28 30 29 29 28 26 27 26 25
44 42 39 36 34 29 25 21 18 16 15 14 22 23 27 20 21 21 20 21 24 29 35 31 29 33 36 38 39 38 39 38 36 37 36 37 31 31 30 32 30 28 26 22 20
41 39 36 32 27 22 19 16 16 15 15 19 19 22 23 18 14 13 15 16 21 25 32 28 29 32 35 37 34 39 38 37 35 34 38 40 35 35 35 33 34 25 23 20 19
39 36 31 26 22 19 16 19 19 23 16 14 14 15 15 16 16 16 16 14 17 22 27 34 29 29 35 38 37 39 39 39 37 34 37 38 37 38 34 34 32 26 24 20 18
37 29 25 23 19 16 16 14 13 14 18 15 15 18 16 17 21 18 19 21 20 20 25 27 30 36 34 35 38 39 41 37 38 35 37 40 40 34 31 31 32 24 20 17 19
32 28 24 20 16 17 15 13 13 14 18 16 18 15 13 13 18 13 14 17 22 24 25 25 25 36 37 38 34 34 39 41 42 39 37 37 37 32 26 25 24 21 19 20 23
30 25 19 15 18 14 18 12 12 11 19 16 22 16 9 9 15 9 9 14 15 26 25 23 26 29 33 35 46 45 44 43 46 47 43 42 34 32 32 30 29 24 22 24 26
23 18 14 12 14 16 11 9 10 15 17 16 16 11 8 9 9 9 7 11 15 17 25 22 30 33 33 39 48 40 49 50 50 52 48 38 37 31 34 38 36 33 30 29 39
18 13 12 15 15 12 7 6 14 25 15 16 13 11 9 8 12 10 10 7 7 14 20 19 24 30 38 37 47 52 58 53 56 59 57 41 42 34 38 40 39 40 47 49 41
15 12 11 13 16 6 6 18 19 12 10 18 15 12 9 16 13 13 12 9 10 24 23 18 29 49 47 46 44 46 59 70 66 70 57 45 43 35 37 37 39 48 59 47 42
15 11 9 11 9 6 12 18 14 12 16 16 14 13 15 20 20 20 18 16 13 20 34 35 26 44 61 58 58 55 55 66 72 67 55 50 50 41 38 47 55 66 55 43 42
16 14 14 7 5 6 19 12 18 18 19 19 16 17 20 24 24 25 28 23 21 30 42 49 39 50 66 73 72 62 65 55 66 64 64 53 52 61 58 55 52 55 49 47 44
18 20 13 6 6 16 19 16 18 16 18 21 22 24 26 29 34 37 36 31 29 36 42 48 58 50 50 72 66 85 62 81 84 90 73 51 50 58 60 55 53 48 41 39 40
19 24 12 8 15 21 19 20 19 20 20 21 23 28 30 36 43 46 48 45 49 49 51 47 49 43 47 60 73 72 86 70 76 79 65 57 48 51 67 54 48 43 39 40 36
21 30 12 15 25 20 21 18 19 23 29 32 34 42 44 48 45 51 50 56 61 56 58 56 74 58 51 55 69 72 79 97 97 69 66 60 58 61 59 59 54 53 50 46 37
24 20 15 24 32 24 23 25 25 31 31 31 32 36 37 48 54 56 53 61 59 61 59 76 66 74 57 41 75 76 81 82 89 95 92 79 76 76 76 66 58 50 47 37 34
23 30 25 26 23 25 28 29 29 29 26 30 35 44 65 76 73 75 69 70 80 67 58 58 57 61 65 55 81 73 86 80 75 81 80 89 87 90 87 64 47 44 41 34 27
28 26 25 35 29 27 28 31 36 35 39 46 52 70 74 73 72 77 84 84 68 67 60 58 70 72 63 39 50 51 59 70 76 75 73 60 67 78 61 50 47 41 34 31 30
23 29 24 25 30 33 33 36 33 43 45 53 62 65 70 78 82 79 72 71 83 84 79 75 90 73 67 58 52 45 50 59 62 66 65 62 53 50 50 48 41 36 32 32 29
24 23 31 28 33 39 40 37 38 45 50 57 61 71 68 64 60 59 65 64 66 68 73 82 78 73 70 62 61 51 33 43 50 54 61 57 51 50 49 42 36 37 37 34 33